<?xml version="1.0" encoding="UTF-8" standalone="no" ?>
<gpx xmlns="http://www.topografix.com/GPX/1/1" xmlns:xsi="http://www.w3.org/2001/XMLSchema-instance" xsi:schemaLocation="http://www.topografix.com/GPX/1/1 http://www.topografix.com/GPX/1/1/gpx.xsd" version="1.1" creator="VisuGPX - https://www.visugpx.com">
  <metadata>
    <name>Voie ferrée et halage de la Mayenne</name>
    <desc><![CDATA[Parcours variés avec mon VTT: voie ferrée, route, chemin de terre, halage de la Mayenne...]]></desc>
  </metadata>
  <trk>
    <name><![CDATA[Voie ferrÃ©e halage]]></name>
    <extensions>
      <line xmlns="http://www.topografix.com/GPX/gpx_style/0/2">
        <color>ff0080</color>
        <opacity>1.0</opacity>
        <width>2.0</width>
      </line>
    </extensions>
    <trkseg>
      <trkpt lat="48.28535" lon="-0.61682">
        <ele>123.8</ele>
        <time>2012-03-23T13:02:59Z</time>
      </trkpt>
      <trkpt lat="48.28535" lon="-0.61682">
        <ele>172</ele>
        <time>2012-03-23T13:03:03Z</time>
      </trkpt>
      <trkpt lat="48.28529" lon="-0.61679">
        <ele>168</ele>
        <time>2012-03-23T13:03:48Z</time>
      </trkpt>
      <trkpt lat="48.28524" lon="-0.61678">
        <ele>169</ele>
        <time>2012-03-23T13:03:54Z</time>
      </trkpt>
      <trkpt lat="48.2851" lon="-0.61677">
        <ele>171</ele>
        <time>2012-03-23T13:04:02Z</time>
      </trkpt>
      <trkpt lat="48.285" lon="-0.61674">
        <ele>170</ele>
        <time>2012-03-23T13:04:06Z</time>
      </trkpt>
      <trkpt lat="48.28494" lon="-0.61672">
        <ele>171</ele>
        <time>2012-03-23T13:04:08Z</time>
      </trkpt>
      <trkpt lat="48.28482" lon="-0.61669">
        <ele>171</ele>
        <time>2012-03-23T13:04:12Z</time>
      </trkpt>
      <trkpt lat="48.28475" lon="-0.61667">
        <ele>171</ele>
        <time>2012-03-23T13:04:14Z</time>
      </trkpt>
      <trkpt lat="48.28462" lon="-0.61662">
        <ele>173</ele>
        <time>2012-03-23T13:04:18Z</time>
      </trkpt>
      <trkpt lat="48.28455" lon="-0.6166">
        <ele>174</ele>
        <time>2012-03-23T13:04:20Z</time>
      </trkpt>
      <trkpt lat="48.28441" lon="-0.61656">
        <ele>174</ele>
        <time>2012-03-23T13:04:24Z</time>
      </trkpt>
      <trkpt lat="48.28434" lon="-0.61653">
        <ele>175</ele>
        <time>2012-03-23T13:04:26Z</time>
      </trkpt>
      <trkpt lat="48.28421" lon="-0.61648">
        <ele>177</ele>
        <time>2012-03-23T13:04:30Z</time>
      </trkpt>
      <trkpt lat="48.28407" lon="-0.61642">
        <ele>178</ele>
        <time>2012-03-23T13:04:34Z</time>
      </trkpt>
      <trkpt lat="48.284" lon="-0.61639">
        <ele>178</ele>
        <time>2012-03-23T13:04:36Z</time>
      </trkpt>
      <trkpt lat="48.28387" lon="-0.61635">
        <ele>178</ele>
        <time>2012-03-23T13:04:40Z</time>
      </trkpt>
      <trkpt lat="48.2838" lon="-0.61631">
        <ele>178</ele>
        <time>2012-03-23T13:04:42Z</time>
      </trkpt>
      <trkpt lat="48.28365" lon="-0.61625">
        <ele>177</ele>
        <time>2012-03-23T13:04:46Z</time>
      </trkpt>
      <trkpt lat="48.28357" lon="-0.61621">
        <ele>177</ele>
        <time>2012-03-23T13:04:48Z</time>
      </trkpt>
      <trkpt lat="48.28344" lon="-0.61613">
        <ele>180</ele>
        <time>2012-03-23T13:04:52Z</time>
      </trkpt>
      <trkpt lat="48.28329" lon="-0.61606">
        <ele>181</ele>
        <time>2012-03-23T13:04:56Z</time>
      </trkpt>
      <trkpt lat="48.28321" lon="-0.61602">
        <ele>181</ele>
        <time>2012-03-23T13:04:58Z</time>
      </trkpt>
      <trkpt lat="48.28306" lon="-0.61594">
        <ele>180</ele>
        <time>2012-03-23T13:05:02Z</time>
      </trkpt>
      <trkpt lat="48.283" lon="-0.61589">
        <ele>181</ele>
        <time>2012-03-23T13:05:04Z</time>
      </trkpt>
      <trkpt lat="48.28287" lon="-0.61579">
        <ele>183</ele>
        <time>2012-03-23T13:05:08Z</time>
      </trkpt>
      <trkpt lat="48.28273" lon="-0.61568">
        <ele>182</ele>
        <time>2012-03-23T13:05:12Z</time>
      </trkpt>
      <trkpt lat="48.2826" lon="-0.61561">
        <ele>180</ele>
        <time>2012-03-23T13:05:16Z</time>
      </trkpt>
      <trkpt lat="48.28247" lon="-0.61552">
        <ele>181</ele>
        <time>2012-03-23T13:05:20Z</time>
      </trkpt>
      <trkpt lat="48.2824" lon="-0.61546">
        <ele>182</ele>
        <time>2012-03-23T13:05:22Z</time>
      </trkpt>
      <trkpt lat="48.28225" lon="-0.61537">
        <ele>184</ele>
        <time>2012-03-23T13:05:26Z</time>
      </trkpt>
      <trkpt lat="48.2821" lon="-0.61526">
        <ele>182</ele>
        <time>2012-03-23T13:05:30Z</time>
      </trkpt>
      <trkpt lat="48.28197" lon="-0.61512">
        <ele>182</ele>
        <time>2012-03-23T13:05:34Z</time>
      </trkpt>
      <trkpt lat="48.28182" lon="-0.61499">
        <ele>176</ele>
        <time>2012-03-23T13:05:38Z</time>
      </trkpt>
      <trkpt lat="48.28166" lon="-0.61488">
        <ele>175</ele>
        <time>2012-03-23T13:05:42Z</time>
      </trkpt>
      <trkpt lat="48.28159" lon="-0.61483">
        <ele>174</ele>
        <time>2012-03-23T13:05:44Z</time>
      </trkpt>
      <trkpt lat="48.28139" lon="-0.61463">
        <ele>170</ele>
        <time>2012-03-23T13:05:50Z</time>
      </trkpt>
      <trkpt lat="48.28124" lon="-0.61449">
        <ele>169</ele>
        <time>2012-03-23T13:05:54Z</time>
      </trkpt>
      <trkpt lat="48.28108" lon="-0.61436">
        <ele>168</ele>
        <time>2012-03-23T13:05:58Z</time>
      </trkpt>
      <trkpt lat="48.28101" lon="-0.6143">
        <ele>166</ele>
        <time>2012-03-23T13:06:00Z</time>
      </trkpt>
      <trkpt lat="48.28086" lon="-0.61419">
        <ele>166</ele>
        <time>2012-03-23T13:06:04Z</time>
      </trkpt>
      <trkpt lat="48.2807" lon="-0.61408">
        <ele>168</ele>
        <time>2012-03-23T13:06:08Z</time>
      </trkpt>
      <trkpt lat="48.28046" lon="-0.6139">
        <ele>167</ele>
        <time>2012-03-23T13:06:14Z</time>
      </trkpt>
      <trkpt lat="48.28016" lon="-0.61365">
        <ele>165</ele>
        <time>2012-03-23T13:06:22Z</time>
      </trkpt>
      <trkpt lat="48.28001" lon="-0.61354">
        <ele>163</ele>
        <time>2012-03-23T13:06:26Z</time>
      </trkpt>
      <trkpt lat="48.27985" lon="-0.61342">
        <ele>162</ele>
        <time>2012-03-23T13:06:30Z</time>
      </trkpt>
      <trkpt lat="48.2797" lon="-0.61331">
        <ele>161</ele>
        <time>2012-03-23T13:06:34Z</time>
      </trkpt>
      <trkpt lat="48.27955" lon="-0.61319">
        <ele>163</ele>
        <time>2012-03-23T13:06:38Z</time>
      </trkpt>
      <trkpt lat="48.27933" lon="-0.613">
        <ele>163</ele>
        <time>2012-03-23T13:06:44Z</time>
      </trkpt>
      <trkpt lat="48.27917" lon="-0.61288">
        <ele>161</ele>
        <time>2012-03-23T13:06:48Z</time>
      </trkpt>
      <trkpt lat="48.27901" lon="-0.61277">
        <ele>160</ele>
        <time>2012-03-23T13:06:52Z</time>
      </trkpt>
      <trkpt lat="48.27886" lon="-0.61264">
        <ele>157</ele>
        <time>2012-03-23T13:06:56Z</time>
      </trkpt>
      <trkpt lat="48.2787" lon="-0.61253">
        <ele>155</ele>
        <time>2012-03-23T13:07:00Z</time>
      </trkpt>
      <trkpt lat="48.27852" lon="-0.61243">
        <ele>158</ele>
        <time>2012-03-23T13:07:04Z</time>
      </trkpt>
      <trkpt lat="48.27834" lon="-0.61226">
        <ele>158</ele>
        <time>2012-03-23T13:07:10Z</time>
      </trkpt>
      <trkpt lat="48.27815" lon="-0.61212">
        <ele>161</ele>
        <time>2012-03-23T13:07:16Z</time>
      </trkpt>
      <trkpt lat="48.278" lon="-0.61203">
        <ele>161</ele>
        <time>2012-03-23T13:07:20Z</time>
      </trkpt>
      <trkpt lat="48.27793" lon="-0.61198">
        <ele>162</ele>
        <time>2012-03-23T13:07:22Z</time>
      </trkpt>
      <trkpt lat="48.27771" lon="-0.6118">
        <ele>160</ele>
        <time>2012-03-23T13:07:28Z</time>
      </trkpt>
      <trkpt lat="48.27755" lon="-0.6117">
        <ele>162</ele>
        <time>2012-03-23T13:07:32Z</time>
      </trkpt>
      <trkpt lat="48.27748" lon="-0.61165">
        <ele>162</ele>
        <time>2012-03-23T13:07:34Z</time>
      </trkpt>
      <trkpt lat="48.27733" lon="-0.61154">
        <ele>162</ele>
        <time>2012-03-23T13:07:38Z</time>
      </trkpt>
      <trkpt lat="48.27719" lon="-0.61144">
        <ele>160</ele>
        <time>2012-03-23T13:07:42Z</time>
      </trkpt>
      <trkpt lat="48.27698" lon="-0.61129">
        <ele>160</ele>
        <time>2012-03-23T13:07:48Z</time>
      </trkpt>
      <trkpt lat="48.27687" lon="-0.61121">
        <ele>160</ele>
        <time>2012-03-23T13:07:52Z</time>
      </trkpt>
      <trkpt lat="48.27677" lon="-0.61112">
        <ele>160</ele>
        <time>2012-03-23T13:07:56Z</time>
      </trkpt>
      <trkpt lat="48.27673" lon="-0.61109">
        <ele>160</ele>
        <time>2012-03-23T13:07:58Z</time>
      </trkpt>
      <trkpt lat="48.27656" lon="-0.61096">
        <ele>161</ele>
        <time>2012-03-23T13:08:04Z</time>
      </trkpt>
      <trkpt lat="48.27639" lon="-0.61081">
        <ele>159</ele>
        <time>2012-03-23T13:08:10Z</time>
      </trkpt>
      <trkpt lat="48.27624" lon="-0.6108">
        <ele>167</ele>
        <time>2012-03-23T13:08:14Z</time>
      </trkpt>
      <trkpt lat="48.27618" lon="-0.61076">
        <ele>167</ele>
        <time>2012-03-23T13:08:16Z</time>
      </trkpt>
      <trkpt lat="48.27606" lon="-0.61069">
        <ele>166</ele>
        <time>2012-03-23T13:08:20Z</time>
      </trkpt>
      <trkpt lat="48.27599" lon="-0.61066">
        <ele>169</ele>
        <time>2012-03-23T13:08:22Z</time>
      </trkpt>
      <trkpt lat="48.27586" lon="-0.61058">
        <ele>170</ele>
        <time>2012-03-23T13:08:26Z</time>
      </trkpt>
      <trkpt lat="48.27579" lon="-0.61053">
        <ele>169</ele>
        <time>2012-03-23T13:08:28Z</time>
      </trkpt>
      <trkpt lat="48.27566" lon="-0.61043">
        <ele>168</ele>
        <time>2012-03-23T13:08:32Z</time>
      </trkpt>
      <trkpt lat="48.27559" lon="-0.61038">
        <ele>167</ele>
        <time>2012-03-23T13:08:34Z</time>
      </trkpt>
      <trkpt lat="48.27545" lon="-0.61027">
        <ele>166</ele>
        <time>2012-03-23T13:08:38Z</time>
      </trkpt>
      <trkpt lat="48.27531" lon="-0.61014">
        <ele>165</ele>
        <time>2012-03-23T13:08:42Z</time>
      </trkpt>
      <trkpt lat="48.27518" lon="-0.61004">
        <ele>166</ele>
        <time>2012-03-23T13:08:46Z</time>
      </trkpt>
      <trkpt lat="48.27511" lon="-0.60999">
        <ele>165</ele>
        <time>2012-03-23T13:08:48Z</time>
      </trkpt>
      <trkpt lat="48.27498" lon="-0.60987">
        <ele>162</ele>
        <time>2012-03-23T13:08:52Z</time>
      </trkpt>
      <trkpt lat="48.27484" lon="-0.60976">
        <ele>162</ele>
        <time>2012-03-23T13:08:56Z</time>
      </trkpt>
      <trkpt lat="48.2747" lon="-0.60966">
        <ele>163</ele>
        <time>2012-03-23T13:09:00Z</time>
      </trkpt>
      <trkpt lat="48.27457" lon="-0.60957">
        <ele>162</ele>
        <time>2012-03-23T13:09:04Z</time>
      </trkpt>
      <trkpt lat="48.27443" lon="-0.60945">
        <ele>161</ele>
        <time>2012-03-23T13:09:10Z</time>
      </trkpt>
      <trkpt lat="48.27429" lon="-0.60937">
        <ele>162</ele>
        <time>2012-03-23T13:09:16Z</time>
      </trkpt>
      <trkpt lat="48.27426" lon="-0.60936">
        <ele>164</ele>
        <time>2012-03-23T13:09:18Z</time>
      </trkpt>
      <trkpt lat="48.27419" lon="-0.60931">
        <ele>163</ele>
        <time>2012-03-23T13:09:22Z</time>
      </trkpt>
      <trkpt lat="48.27415" lon="-0.60929">
        <ele>163</ele>
        <time>2012-03-23T13:09:24Z</time>
      </trkpt>
      <trkpt lat="48.274" lon="-0.60921">
        <ele>164</ele>
        <time>2012-03-23T13:09:32Z</time>
      </trkpt>
      <trkpt lat="48.27396" lon="-0.60918">
        <ele>164</ele>
        <time>2012-03-23T13:09:34Z</time>
      </trkpt>
      <trkpt lat="48.27384" lon="-0.60914">
        <ele>162</ele>
        <time>2012-03-23T13:09:38Z</time>
      </trkpt>
      <trkpt lat="48.27379" lon="-0.60911">
        <ele>163</ele>
        <time>2012-03-23T13:09:40Z</time>
      </trkpt>
      <trkpt lat="48.27373" lon="-0.60907">
        <ele>163</ele>
        <time>2012-03-23T13:09:42Z</time>
      </trkpt>
      <trkpt lat="48.27362" lon="-0.609">
        <ele>167</ele>
        <time>2012-03-23T13:09:46Z</time>
      </trkpt>
      <trkpt lat="48.27355" lon="-0.60896">
        <ele>167</ele>
        <time>2012-03-23T13:09:48Z</time>
      </trkpt>
      <trkpt lat="48.27344" lon="-0.6089">
        <ele>169</ele>
        <time>2012-03-23T13:09:52Z</time>
      </trkpt>
      <trkpt lat="48.27337" lon="-0.60886">
        <ele>167</ele>
        <time>2012-03-23T13:09:54Z</time>
      </trkpt>
      <trkpt lat="48.27322" lon="-0.60876">
        <ele>164</ele>
        <time>2012-03-23T13:09:58Z</time>
      </trkpt>
      <trkpt lat="48.27317" lon="-0.60874">
        <ele>164</ele>
        <time>2012-03-23T13:10:00Z</time>
      </trkpt>
      <trkpt lat="48.27304" lon="-0.60867">
        <ele>164</ele>
        <time>2012-03-23T13:10:04Z</time>
      </trkpt>
      <trkpt lat="48.27289" lon="-0.60859">
        <ele>164</ele>
        <time>2012-03-23T13:10:08Z</time>
      </trkpt>
      <trkpt lat="48.27276" lon="-0.60849">
        <ele>163</ele>
        <time>2012-03-23T13:10:12Z</time>
      </trkpt>
      <trkpt lat="48.27261" lon="-0.60841">
        <ele>162</ele>
        <time>2012-03-23T13:10:16Z</time>
      </trkpt>
      <trkpt lat="48.27237" lon="-0.60828">
        <ele>157</ele>
        <time>2012-03-23T13:10:22Z</time>
      </trkpt>
      <trkpt lat="48.2722" lon="-0.60822">
        <ele>157</ele>
        <time>2012-03-23T13:10:26Z</time>
      </trkpt>
      <trkpt lat="48.27203" lon="-0.60816">
        <ele>157</ele>
        <time>2012-03-23T13:10:30Z</time>
      </trkpt>
      <trkpt lat="48.27178" lon="-0.60806">
        <ele>159</ele>
        <time>2012-03-23T13:10:36Z</time>
      </trkpt>
      <trkpt lat="48.2716" lon="-0.60801">
        <ele>159</ele>
        <time>2012-03-23T13:10:40Z</time>
      </trkpt>
      <trkpt lat="48.27142" lon="-0.60795">
        <ele>161</ele>
        <time>2012-03-23T13:10:44Z</time>
      </trkpt>
      <trkpt lat="48.27126" lon="-0.60788">
        <ele>160</ele>
        <time>2012-03-23T13:10:48Z</time>
      </trkpt>
      <trkpt lat="48.27109" lon="-0.60785">
        <ele>161</ele>
        <time>2012-03-23T13:10:52Z</time>
      </trkpt>
      <trkpt lat="48.27092" lon="-0.60781">
        <ele>163</ele>
        <time>2012-03-23T13:10:56Z</time>
      </trkpt>
      <trkpt lat="48.27076" lon="-0.60776">
        <ele>162</ele>
        <time>2012-03-23T13:11:00Z</time>
      </trkpt>
      <trkpt lat="48.27067" lon="-0.60774">
        <ele>163</ele>
        <time>2012-03-23T13:11:02Z</time>
      </trkpt>
      <trkpt lat="48.27051" lon="-0.6077">
        <ele>161</ele>
        <time>2012-03-23T13:11:06Z</time>
      </trkpt>
      <trkpt lat="48.27035" lon="-0.60766">
        <ele>163</ele>
        <time>2012-03-23T13:11:10Z</time>
      </trkpt>
      <trkpt lat="48.2702" lon="-0.60762">
        <ele>163</ele>
        <time>2012-03-23T13:11:14Z</time>
      </trkpt>
      <trkpt lat="48.27005" lon="-0.6076">
        <ele>163</ele>
        <time>2012-03-23T13:11:18Z</time>
      </trkpt>
      <trkpt lat="48.26992" lon="-0.60757">
        <ele>163</ele>
        <time>2012-03-23T13:11:22Z</time>
      </trkpt>
      <trkpt lat="48.26987" lon="-0.60756">
        <ele>164</ele>
        <time>2012-03-23T13:11:24Z</time>
      </trkpt>
      <trkpt lat="48.26973" lon="-0.60756">
        <ele>166</ele>
        <time>2012-03-23T13:11:28Z</time>
      </trkpt>
      <trkpt lat="48.26967" lon="-0.60756">
        <ele>168</ele>
        <time>2012-03-23T13:11:30Z</time>
      </trkpt>
      <trkpt lat="48.26952" lon="-0.60755">
        <ele>171</ele>
        <time>2012-03-23T13:11:34Z</time>
      </trkpt>
      <trkpt lat="48.26944" lon="-0.60755">
        <ele>172</ele>
        <time>2012-03-23T13:11:36Z</time>
      </trkpt>
      <trkpt lat="48.2693" lon="-0.60755">
        <ele>175</ele>
        <time>2012-03-23T13:11:40Z</time>
      </trkpt>
      <trkpt lat="48.26914" lon="-0.60753">
        <ele>178</ele>
        <time>2012-03-23T13:11:44Z</time>
      </trkpt>
      <trkpt lat="48.26896" lon="-0.60748">
        <ele>180</ele>
        <time>2012-03-23T13:11:48Z</time>
      </trkpt>
      <trkpt lat="48.26881" lon="-0.60748">
        <ele>182</ele>
        <time>2012-03-23T13:11:52Z</time>
      </trkpt>
      <trkpt lat="48.26864" lon="-0.60747">
        <ele>184</ele>
        <time>2012-03-23T13:11:56Z</time>
      </trkpt>
      <trkpt lat="48.26856" lon="-0.60746">
        <ele>184</ele>
        <time>2012-03-23T13:11:58Z</time>
      </trkpt>
      <trkpt lat="48.26839" lon="-0.60745">
        <ele>184</ele>
        <time>2012-03-23T13:12:02Z</time>
      </trkpt>
      <trkpt lat="48.26823" lon="-0.60745">
        <ele>182</ele>
        <time>2012-03-23T13:12:06Z</time>
      </trkpt>
      <trkpt lat="48.26815" lon="-0.60745">
        <ele>183</ele>
        <time>2012-03-23T13:12:08Z</time>
      </trkpt>
      <trkpt lat="48.26801" lon="-0.60741">
        <ele>181</ele>
        <time>2012-03-23T13:12:12Z</time>
      </trkpt>
      <trkpt lat="48.26788" lon="-0.60741">
        <ele>178</ele>
        <time>2012-03-23T13:12:16Z</time>
      </trkpt>
      <trkpt lat="48.26757" lon="-0.60736">
        <ele>170</ele>
        <time>2012-03-23T13:12:26Z</time>
      </trkpt>
      <trkpt lat="48.26745" lon="-0.60734">
        <ele>169</ele>
        <time>2012-03-23T13:12:30Z</time>
      </trkpt>
      <trkpt lat="48.26725" lon="-0.6073">
        <ele>161</ele>
        <time>2012-03-23T13:12:36Z</time>
      </trkpt>
      <trkpt lat="48.26696" lon="-0.60724">
        <ele>149</ele>
        <time>2012-03-23T13:12:44Z</time>
      </trkpt>
      <trkpt lat="48.2668" lon="-0.60722">
        <ele>143</ele>
        <time>2012-03-23T13:12:48Z</time>
      </trkpt>
      <trkpt lat="48.26663" lon="-0.60722">
        <ele>141</ele>
        <time>2012-03-23T13:12:52Z</time>
      </trkpt>
      <trkpt lat="48.26649" lon="-0.6072">
        <ele>138</ele>
        <time>2012-03-23T13:12:56Z</time>
      </trkpt>
      <trkpt lat="48.2663" lon="-0.6072">
        <ele>137</ele>
        <time>2012-03-23T13:13:02Z</time>
      </trkpt>
      <trkpt lat="48.26607" lon="-0.60719">
        <ele>135</ele>
        <time>2012-03-23T13:13:08Z</time>
      </trkpt>
      <trkpt lat="48.26582" lon="-0.6072">
        <ele>136</ele>
        <time>2012-03-23T13:13:14Z</time>
      </trkpt>
      <trkpt lat="48.26565" lon="-0.6072">
        <ele>136</ele>
        <time>2012-03-23T13:13:18Z</time>
      </trkpt>
      <trkpt lat="48.26543" lon="-0.60722">
        <ele>137</ele>
        <time>2012-03-23T13:13:24Z</time>
      </trkpt>
      <trkpt lat="48.26529" lon="-0.60719">
        <ele>136</ele>
        <time>2012-03-23T13:13:28Z</time>
      </trkpt>
      <trkpt lat="48.26506" lon="-0.60718">
        <ele>134</ele>
        <time>2012-03-23T13:13:34Z</time>
      </trkpt>
      <trkpt lat="48.26491" lon="-0.60717">
        <ele>132</ele>
        <time>2012-03-23T13:13:38Z</time>
      </trkpt>
      <trkpt lat="48.26475" lon="-0.60719">
        <ele>133</ele>
        <time>2012-03-23T13:13:42Z</time>
      </trkpt>
      <trkpt lat="48.26449" lon="-0.60723">
        <ele>134</ele>
        <time>2012-03-23T13:13:48Z</time>
      </trkpt>
      <trkpt lat="48.26426" lon="-0.60732">
        <ele>153</ele>
        <time>2012-03-23T13:13:54Z</time>
      </trkpt>
      <trkpt lat="48.26413" lon="-0.60729">
        <ele>151</ele>
        <time>2012-03-23T13:13:58Z</time>
      </trkpt>
      <trkpt lat="48.26391" lon="-0.60725">
        <ele>149</ele>
        <time>2012-03-23T13:14:04Z</time>
      </trkpt>
      <trkpt lat="48.26375" lon="-0.60718">
        <ele>143</ele>
        <time>2012-03-23T13:14:10Z</time>
      </trkpt>
      <trkpt lat="48.26348" lon="-0.60718">
        <ele>146</ele>
        <time>2012-03-23T13:14:16Z</time>
      </trkpt>
      <trkpt lat="48.26335" lon="-0.60713">
        <ele>141</ele>
        <time>2012-03-23T13:14:20Z</time>
      </trkpt>
      <trkpt lat="48.26311" lon="-0.6071">
        <ele>133</ele>
        <time>2012-03-23T13:14:26Z</time>
      </trkpt>
      <trkpt lat="48.26294" lon="-0.60707">
        <ele>127</ele>
        <time>2012-03-23T13:14:30Z</time>
      </trkpt>
      <trkpt lat="48.26269" lon="-0.60705">
        <ele>123</ele>
        <time>2012-03-23T13:14:36Z</time>
      </trkpt>
      <trkpt lat="48.26247" lon="-0.60702">
        <ele>121</ele>
        <time>2012-03-23T13:14:42Z</time>
      </trkpt>
      <trkpt lat="48.26231" lon="-0.60703">
        <ele>121</ele>
        <time>2012-03-23T13:14:46Z</time>
      </trkpt>
      <trkpt lat="48.2621" lon="-0.60705">
        <ele>120</ele>
        <time>2012-03-23T13:14:52Z</time>
      </trkpt>
      <trkpt lat="48.2618" lon="-0.60714">
        <ele>128</ele>
        <time>2012-03-23T13:14:58Z</time>
      </trkpt>
      <trkpt lat="48.26162" lon="-0.60718">
        <ele>131</ele>
        <time>2012-03-23T13:15:02Z</time>
      </trkpt>
      <trkpt lat="48.26143" lon="-0.60721">
        <ele>137</ele>
        <time>2012-03-23T13:15:06Z</time>
      </trkpt>
      <trkpt lat="48.26127" lon="-0.60721">
        <ele>136</ele>
        <time>2012-03-23T13:15:10Z</time>
      </trkpt>
      <trkpt lat="48.2611" lon="-0.60723">
        <ele>138</ele>
        <time>2012-03-23T13:15:14Z</time>
      </trkpt>
      <trkpt lat="48.26085" lon="-0.60727">
        <ele>139</ele>
        <time>2012-03-23T13:15:20Z</time>
      </trkpt>
      <trkpt lat="48.26069" lon="-0.60729">
        <ele>140</ele>
        <time>2012-03-23T13:15:24Z</time>
      </trkpt>
      <trkpt lat="48.26051" lon="-0.60732">
        <ele>143</ele>
        <time>2012-03-23T13:15:28Z</time>
      </trkpt>
      <trkpt lat="48.26043" lon="-0.60732">
        <ele>144</ele>
        <time>2012-03-23T13:15:30Z</time>
      </trkpt>
      <trkpt lat="48.26026" lon="-0.60734">
        <ele>145</ele>
        <time>2012-03-23T13:15:34Z</time>
      </trkpt>
      <trkpt lat="48.26011" lon="-0.60735">
        <ele>146</ele>
        <time>2012-03-23T13:15:38Z</time>
      </trkpt>
      <trkpt lat="48.25995" lon="-0.60736">
        <ele>148</ele>
        <time>2012-03-23T13:15:42Z</time>
      </trkpt>
      <trkpt lat="48.25986" lon="-0.60741">
        <ele>152</ele>
        <time>2012-03-23T13:15:44Z</time>
      </trkpt>
      <trkpt lat="48.25974" lon="-0.60742">
        <ele>154</ele>
        <time>2012-03-23T13:15:48Z</time>
      </trkpt>
      <trkpt lat="48.25966" lon="-0.60744">
        <ele>156</ele>
        <time>2012-03-23T13:15:52Z</time>
      </trkpt>
      <trkpt lat="48.25961" lon="-0.60745">
        <ele>158</ele>
        <time>2012-03-23T13:15:54Z</time>
      </trkpt>
      <trkpt lat="48.25947" lon="-0.60747">
        <ele>163</ele>
        <time>2012-03-23T13:15:58Z</time>
      </trkpt>
      <trkpt lat="48.25943" lon="-0.60748">
        <ele>163</ele>
        <time>2012-03-23T13:16:00Z</time>
      </trkpt>
      <trkpt lat="48.25936" lon="-0.60748">
        <ele>163</ele>
        <time>2012-03-23T13:16:04Z</time>
      </trkpt>
      <trkpt lat="48.25931" lon="-0.60749">
        <ele>163</ele>
        <time>2012-03-23T13:16:06Z</time>
      </trkpt>
      <trkpt lat="48.25921" lon="-0.60751">
        <ele>162</ele>
        <time>2012-03-23T13:16:10Z</time>
      </trkpt>
      <trkpt lat="48.25915" lon="-0.60751">
        <ele>164</ele>
        <time>2012-03-23T13:16:12Z</time>
      </trkpt>
      <trkpt lat="48.25909" lon="-0.6075">
        <ele>165</ele>
        <time>2012-03-23T13:16:14Z</time>
      </trkpt>
      <trkpt lat="48.25899" lon="-0.60751">
        <ele>164</ele>
        <time>2012-03-23T13:16:18Z</time>
      </trkpt>
      <trkpt lat="48.25892" lon="-0.60752">
        <ele>165</ele>
        <time>2012-03-23T13:16:20Z</time>
      </trkpt>
      <trkpt lat="48.2588" lon="-0.6075">
        <ele>165</ele>
        <time>2012-03-23T13:16:24Z</time>
      </trkpt>
      <trkpt lat="48.25874" lon="-0.6075">
        <ele>165</ele>
        <time>2012-03-23T13:16:26Z</time>
      </trkpt>
      <trkpt lat="48.25863" lon="-0.60747">
        <ele>160</ele>
        <time>2012-03-23T13:16:30Z</time>
      </trkpt>
      <trkpt lat="48.25844" lon="-0.60747">
        <ele>163</ele>
        <time>2012-03-23T13:16:36Z</time>
      </trkpt>
      <trkpt lat="48.25832" lon="-0.60748">
        <ele>164</ele>
        <time>2012-03-23T13:16:40Z</time>
      </trkpt>
      <trkpt lat="48.25825" lon="-0.60747">
        <ele>164</ele>
        <time>2012-03-23T13:16:42Z</time>
      </trkpt>
      <trkpt lat="48.25804" lon="-0.60746">
        <ele>162</ele>
        <time>2012-03-23T13:16:48Z</time>
      </trkpt>
      <trkpt lat="48.25777" lon="-0.60744">
        <ele>160</ele>
        <time>2012-03-23T13:16:56Z</time>
      </trkpt>
      <trkpt lat="48.25763" lon="-0.60744">
        <ele>159</ele>
        <time>2012-03-23T13:17:00Z</time>
      </trkpt>
      <trkpt lat="48.25756" lon="-0.60744">
        <ele>159</ele>
        <time>2012-03-23T13:17:02Z</time>
      </trkpt>
      <trkpt lat="48.25743" lon="-0.60742">
        <ele>156</ele>
        <time>2012-03-23T13:17:06Z</time>
      </trkpt>
      <trkpt lat="48.25736" lon="-0.60741">
        <ele>155</ele>
        <time>2012-03-23T13:17:08Z</time>
      </trkpt>
      <trkpt lat="48.25715" lon="-0.6074">
        <ele>152</ele>
        <time>2012-03-23T13:17:14Z</time>
      </trkpt>
      <trkpt lat="48.2569" lon="-0.60743">
        <ele>155</ele>
        <time>2012-03-23T13:17:20Z</time>
      </trkpt>
      <trkpt lat="48.25675" lon="-0.60743">
        <ele>154</ele>
        <time>2012-03-23T13:17:24Z</time>
      </trkpt>
      <trkpt lat="48.25667" lon="-0.60743">
        <ele>153</ele>
        <time>2012-03-23T13:17:26Z</time>
      </trkpt>
      <trkpt lat="48.25653" lon="-0.60742">
        <ele>150</ele>
        <time>2012-03-23T13:17:30Z</time>
      </trkpt>
      <trkpt lat="48.25637" lon="-0.60745">
        <ele>149</ele>
        <time>2012-03-23T13:17:34Z</time>
      </trkpt>
      <trkpt lat="48.25628" lon="-0.60747">
        <ele>151</ele>
        <time>2012-03-23T13:17:36Z</time>
      </trkpt>
      <trkpt lat="48.25606" lon="-0.60749">
        <ele>150</ele>
        <time>2012-03-23T13:17:42Z</time>
      </trkpt>
      <trkpt lat="48.25582" lon="-0.60748">
        <ele>150</ele>
        <time>2012-03-23T13:17:48Z</time>
      </trkpt>
      <trkpt lat="48.2556" lon="-0.60749">
        <ele>152</ele>
        <time>2012-03-23T13:17:54Z</time>
      </trkpt>
      <trkpt lat="48.25535" lon="-0.60752">
        <ele>158</ele>
        <time>2012-03-23T13:18:00Z</time>
      </trkpt>
      <trkpt lat="48.25513" lon="-0.60752">
        <ele>158</ele>
        <time>2012-03-23T13:18:06Z</time>
      </trkpt>
      <trkpt lat="48.25497" lon="-0.60751">
        <ele>155</ele>
        <time>2012-03-23T13:18:10Z</time>
      </trkpt>
      <trkpt lat="48.25474" lon="-0.60749">
        <ele>157</ele>
        <time>2012-03-23T13:18:16Z</time>
      </trkpt>
      <trkpt lat="48.2546" lon="-0.60749">
        <ele>156</ele>
        <time>2012-03-23T13:18:20Z</time>
      </trkpt>
      <trkpt lat="48.25444" lon="-0.6075">
        <ele>156</ele>
        <time>2012-03-23T13:18:24Z</time>
      </trkpt>
      <trkpt lat="48.25418" lon="-0.60751">
        <ele>159</ele>
        <time>2012-03-23T13:18:30Z</time>
      </trkpt>
      <trkpt lat="48.25403" lon="-0.60751">
        <ele>159</ele>
        <time>2012-03-23T13:18:34Z</time>
      </trkpt>
      <trkpt lat="48.25379" lon="-0.60754">
        <ele>160</ele>
        <time>2012-03-23T13:18:40Z</time>
      </trkpt>
      <trkpt lat="48.25364" lon="-0.60755">
        <ele>158</ele>
        <time>2012-03-23T13:18:44Z</time>
      </trkpt>
      <trkpt lat="48.25349" lon="-0.60755">
        <ele>160</ele>
        <time>2012-03-23T13:18:48Z</time>
      </trkpt>
      <trkpt lat="48.25325" lon="-0.60757">
        <ele>164</ele>
        <time>2012-03-23T13:18:54Z</time>
      </trkpt>
      <trkpt lat="48.25308" lon="-0.60761">
        <ele>166</ele>
        <time>2012-03-23T13:18:58Z</time>
      </trkpt>
      <trkpt lat="48.25284" lon="-0.6076">
        <ele>165</ele>
        <time>2012-03-23T13:19:04Z</time>
      </trkpt>
      <trkpt lat="48.25261" lon="-0.60759">
        <ele>165</ele>
        <time>2012-03-23T13:19:10Z</time>
      </trkpt>
      <trkpt lat="48.25244" lon="-0.60758">
        <ele>165</ele>
        <time>2012-03-23T13:19:14Z</time>
      </trkpt>
      <trkpt lat="48.25236" lon="-0.60758">
        <ele>164</ele>
        <time>2012-03-23T13:19:16Z</time>
      </trkpt>
      <trkpt lat="48.2522" lon="-0.60757">
        <ele>161</ele>
        <time>2012-03-23T13:19:20Z</time>
      </trkpt>
      <trkpt lat="48.25203" lon="-0.6076">
        <ele>163</ele>
        <time>2012-03-23T13:19:24Z</time>
      </trkpt>
      <trkpt lat="48.25185" lon="-0.60761">
        <ele>165</ele>
        <time>2012-03-23T13:19:28Z</time>
      </trkpt>
      <trkpt lat="48.25167" lon="-0.60763">
        <ele>165</ele>
        <time>2012-03-23T13:19:32Z</time>
      </trkpt>
      <trkpt lat="48.2515" lon="-0.60763">
        <ele>167</ele>
        <time>2012-03-23T13:19:36Z</time>
      </trkpt>
      <trkpt lat="48.25136" lon="-0.60766">
        <ele>171</ele>
        <time>2012-03-23T13:19:40Z</time>
      </trkpt>
      <trkpt lat="48.25115" lon="-0.60765">
        <ele>173</ele>
        <time>2012-03-23T13:19:46Z</time>
      </trkpt>
      <trkpt lat="48.25091" lon="-0.60765">
        <ele>171</ele>
        <time>2012-03-23T13:19:52Z</time>
      </trkpt>
      <trkpt lat="48.25076" lon="-0.60765">
        <ele>172</ele>
        <time>2012-03-23T13:19:56Z</time>
      </trkpt>
      <trkpt lat="48.25061" lon="-0.60767">
        <ele>171</ele>
        <time>2012-03-23T13:20:00Z</time>
      </trkpt>
      <trkpt lat="48.25039" lon="-0.60767">
        <ele>167</ele>
        <time>2012-03-23T13:20:06Z</time>
      </trkpt>
      <trkpt lat="48.25024" lon="-0.60768">
        <ele>168</ele>
        <time>2012-03-23T13:20:10Z</time>
      </trkpt>
      <trkpt lat="48.25011" lon="-0.60767">
        <ele>166</ele>
        <time>2012-03-23T13:20:14Z</time>
      </trkpt>
      <trkpt lat="48.25005" lon="-0.60767">
        <ele>167</ele>
        <time>2012-03-23T13:20:16Z</time>
      </trkpt>
      <trkpt lat="48.24982" lon="-0.60767">
        <ele>169</ele>
        <time>2012-03-23T13:20:22Z</time>
      </trkpt>
      <trkpt lat="48.24959" lon="-0.60768">
        <ele>170</ele>
        <time>2012-03-23T13:20:28Z</time>
      </trkpt>
      <trkpt lat="48.24935" lon="-0.60769">
        <ele>167</ele>
        <time>2012-03-23T13:20:34Z</time>
      </trkpt>
      <trkpt lat="48.2491" lon="-0.6077">
        <ele>170</ele>
        <time>2012-03-23T13:20:40Z</time>
      </trkpt>
      <trkpt lat="48.24888" lon="-0.60767">
        <ele>168</ele>
        <time>2012-03-23T13:20:46Z</time>
      </trkpt>
      <trkpt lat="48.24873" lon="-0.60767">
        <ele>167</ele>
        <time>2012-03-23T13:20:50Z</time>
      </trkpt>
      <trkpt lat="48.24857" lon="-0.60767">
        <ele>167</ele>
        <time>2012-03-23T13:20:54Z</time>
      </trkpt>
      <trkpt lat="48.24841" lon="-0.60769">
        <ele>169</ele>
        <time>2012-03-23T13:20:58Z</time>
      </trkpt>
      <trkpt lat="48.24824" lon="-0.6077">
        <ele>169</ele>
        <time>2012-03-23T13:21:02Z</time>
      </trkpt>
      <trkpt lat="48.24801" lon="-0.6077">
        <ele>169</ele>
        <time>2012-03-23T13:21:08Z</time>
      </trkpt>
      <trkpt lat="48.24786" lon="-0.60772">
        <ele>169</ele>
        <time>2012-03-23T13:21:12Z</time>
      </trkpt>
      <trkpt lat="48.24771" lon="-0.60773">
        <ele>169</ele>
        <time>2012-03-23T13:21:16Z</time>
      </trkpt>
      <trkpt lat="48.24754" lon="-0.60774">
        <ele>171</ele>
        <time>2012-03-23T13:21:20Z</time>
      </trkpt>
      <trkpt lat="48.2473" lon="-0.60778">
        <ele>172</ele>
        <time>2012-03-23T13:21:26Z</time>
      </trkpt>
      <trkpt lat="48.24714" lon="-0.6078">
        <ele>172</ele>
        <time>2012-03-23T13:21:30Z</time>
      </trkpt>
      <trkpt lat="48.24699" lon="-0.60782">
        <ele>172</ele>
        <time>2012-03-23T13:21:34Z</time>
      </trkpt>
      <trkpt lat="48.24684" lon="-0.60784">
        <ele>171</ele>
        <time>2012-03-23T13:21:38Z</time>
      </trkpt>
      <trkpt lat="48.24667" lon="-0.60788">
        <ele>172</ele>
        <time>2012-03-23T13:21:42Z</time>
      </trkpt>
      <trkpt lat="48.24658" lon="-0.60789">
        <ele>173</ele>
        <time>2012-03-23T13:21:44Z</time>
      </trkpt>
      <trkpt lat="48.24642" lon="-0.60792">
        <ele>173</ele>
        <time>2012-03-23T13:21:48Z</time>
      </trkpt>
      <trkpt lat="48.24626" lon="-0.60796">
        <ele>173</ele>
        <time>2012-03-23T13:21:52Z</time>
      </trkpt>
      <trkpt lat="48.24611" lon="-0.60799">
        <ele>173</ele>
        <time>2012-03-23T13:21:56Z</time>
      </trkpt>
      <trkpt lat="48.24604" lon="-0.60801">
        <ele>173</ele>
        <time>2012-03-23T13:21:58Z</time>
      </trkpt>
      <trkpt lat="48.2459" lon="-0.60805">
        <ele>173</ele>
        <time>2012-03-23T13:22:02Z</time>
      </trkpt>
      <trkpt lat="48.24576" lon="-0.60809">
        <ele>173</ele>
        <time>2012-03-23T13:22:06Z</time>
      </trkpt>
      <trkpt lat="48.24568" lon="-0.60811">
        <ele>174</ele>
        <time>2012-03-23T13:22:08Z</time>
      </trkpt>
      <trkpt lat="48.24553" lon="-0.60815">
        <ele>175</ele>
        <time>2012-03-23T13:22:12Z</time>
      </trkpt>
      <trkpt lat="48.24538" lon="-0.60819">
        <ele>176</ele>
        <time>2012-03-23T13:22:16Z</time>
      </trkpt>
      <trkpt lat="48.2453" lon="-0.60821">
        <ele>176</ele>
        <time>2012-03-23T13:22:18Z</time>
      </trkpt>
      <trkpt lat="48.24507" lon="-0.60828">
        <ele>177</ele>
        <time>2012-03-23T13:22:24Z</time>
      </trkpt>
      <trkpt lat="48.24491" lon="-0.60834">
        <ele>179</ele>
        <time>2012-03-23T13:22:28Z</time>
      </trkpt>
      <trkpt lat="48.24475" lon="-0.6084">
        <ele>179</ele>
        <time>2012-03-23T13:22:32Z</time>
      </trkpt>
      <trkpt lat="48.24454" lon="-0.60848">
        <ele>175</ele>
        <time>2012-03-23T13:22:38Z</time>
      </trkpt>
      <trkpt lat="48.2444" lon="-0.60853">
        <ele>174</ele>
        <time>2012-03-23T13:22:42Z</time>
      </trkpt>
      <trkpt lat="48.24432" lon="-0.60856">
        <ele>173</ele>
        <time>2012-03-23T13:22:44Z</time>
      </trkpt>
      <trkpt lat="48.24417" lon="-0.60862">
        <ele>173</ele>
        <time>2012-03-23T13:22:48Z</time>
      </trkpt>
      <trkpt lat="48.24401" lon="-0.60869">
        <ele>174</ele>
        <time>2012-03-23T13:22:52Z</time>
      </trkpt>
      <trkpt lat="48.24385" lon="-0.60876">
        <ele>178</ele>
        <time>2012-03-23T13:22:56Z</time>
      </trkpt>
      <trkpt lat="48.24369" lon="-0.60884">
        <ele>179</ele>
        <time>2012-03-23T13:23:00Z</time>
      </trkpt>
      <trkpt lat="48.24354" lon="-0.60888">
        <ele>177</ele>
        <time>2012-03-23T13:23:04Z</time>
      </trkpt>
      <trkpt lat="48.24324" lon="-0.60901">
        <ele>176</ele>
        <time>2012-03-23T13:23:12Z</time>
      </trkpt>
      <trkpt lat="48.24308" lon="-0.60911">
        <ele>177</ele>
        <time>2012-03-23T13:23:16Z</time>
      </trkpt>
      <trkpt lat="48.24299" lon="-0.60916">
        <ele>179</ele>
        <time>2012-03-23T13:23:18Z</time>
      </trkpt>
      <trkpt lat="48.24276" lon="-0.60929">
        <ele>182</ele>
        <time>2012-03-23T13:23:24Z</time>
      </trkpt>
      <trkpt lat="48.24261" lon="-0.60939">
        <ele>184</ele>
        <time>2012-03-23T13:23:28Z</time>
      </trkpt>
      <trkpt lat="48.24253" lon="-0.60944">
        <ele>185</ele>
        <time>2012-03-23T13:23:30Z</time>
      </trkpt>
      <trkpt lat="48.24237" lon="-0.60954">
        <ele>189</ele>
        <time>2012-03-23T13:23:34Z</time>
      </trkpt>
      <trkpt lat="48.24221" lon="-0.60964">
        <ele>191</ele>
        <time>2012-03-23T13:23:38Z</time>
      </trkpt>
      <trkpt lat="48.24205" lon="-0.60973">
        <ele>192</ele>
        <time>2012-03-23T13:23:42Z</time>
      </trkpt>
      <trkpt lat="48.24191" lon="-0.60983">
        <ele>191</ele>
        <time>2012-03-23T13:23:46Z</time>
      </trkpt>
      <trkpt lat="48.24183" lon="-0.60988">
        <ele>192</ele>
        <time>2012-03-23T13:23:48Z</time>
      </trkpt>
      <trkpt lat="48.24168" lon="-0.60998">
        <ele>193</ele>
        <time>2012-03-23T13:23:52Z</time>
      </trkpt>
      <trkpt lat="48.24153" lon="-0.61007">
        <ele>194</ele>
        <time>2012-03-23T13:23:56Z</time>
      </trkpt>
      <trkpt lat="48.24137" lon="-0.61018">
        <ele>195</ele>
        <time>2012-03-23T13:24:00Z</time>
      </trkpt>
      <trkpt lat="48.24121" lon="-0.61028">
        <ele>197</ele>
        <time>2012-03-23T13:24:04Z</time>
      </trkpt>
      <trkpt lat="48.24114" lon="-0.61033">
        <ele>196</ele>
        <time>2012-03-23T13:24:06Z</time>
      </trkpt>
      <trkpt lat="48.24092" lon="-0.61048">
        <ele>195</ele>
        <time>2012-03-23T13:24:12Z</time>
      </trkpt>
      <trkpt lat="48.2407" lon="-0.61065">
        <ele>195</ele>
        <time>2012-03-23T13:24:18Z</time>
      </trkpt>
      <trkpt lat="48.24055" lon="-0.61077">
        <ele>194</ele>
        <time>2012-03-23T13:24:22Z</time>
      </trkpt>
      <trkpt lat="48.24038" lon="-0.61087">
        <ele>196</ele>
        <time>2012-03-23T13:24:26Z</time>
      </trkpt>
      <trkpt lat="48.24023" lon="-0.61099">
        <ele>195</ele>
        <time>2012-03-23T13:24:30Z</time>
      </trkpt>
      <trkpt lat="48.24007" lon="-0.61109">
        <ele>196</ele>
        <time>2012-03-23T13:24:34Z</time>
      </trkpt>
      <trkpt lat="48.24" lon="-0.61114">
        <ele>195</ele>
        <time>2012-03-23T13:24:36Z</time>
      </trkpt>
      <trkpt lat="48.23985" lon="-0.61125">
        <ele>194</ele>
        <time>2012-03-23T13:24:40Z</time>
      </trkpt>
      <trkpt lat="48.2397" lon="-0.61136">
        <ele>194</ele>
        <time>2012-03-23T13:24:44Z</time>
      </trkpt>
      <trkpt lat="48.23954" lon="-0.61147">
        <ele>194</ele>
        <time>2012-03-23T13:24:46Z</time>
      </trkpt>
      <trkpt lat="48.23938" lon="-0.61158">
        <ele>196</ele>
        <time>2012-03-23T13:24:50Z</time>
      </trkpt>
      <trkpt lat="48.23914" lon="-0.61174">
        <ele>195</ele>
        <time>2012-03-23T13:24:56Z</time>
      </trkpt>
      <trkpt lat="48.239" lon="-0.61185">
        <ele>194</ele>
        <time>2012-03-23T13:25:00Z</time>
      </trkpt>
      <trkpt lat="48.23892" lon="-0.6119">
        <ele>194</ele>
        <time>2012-03-23T13:25:02Z</time>
      </trkpt>
      <trkpt lat="48.23876" lon="-0.61202">
        <ele>196</ele>
        <time>2012-03-23T13:25:06Z</time>
      </trkpt>
      <trkpt lat="48.23869" lon="-0.61207">
        <ele>196</ele>
        <time>2012-03-23T13:25:08Z</time>
      </trkpt>
      <trkpt lat="48.23853" lon="-0.61217">
        <ele>196</ele>
        <time>2012-03-23T13:25:12Z</time>
      </trkpt>
      <trkpt lat="48.23838" lon="-0.61228">
        <ele>195</ele>
        <time>2012-03-23T13:25:16Z</time>
      </trkpt>
      <trkpt lat="48.23823" lon="-0.61238">
        <ele>196</ele>
        <time>2012-03-23T13:25:20Z</time>
      </trkpt>
      <trkpt lat="48.23816" lon="-0.61243">
        <ele>195</ele>
        <time>2012-03-23T13:25:22Z</time>
      </trkpt>
      <trkpt lat="48.23803" lon="-0.61253">
        <ele>195</ele>
        <time>2012-03-23T13:25:26Z</time>
      </trkpt>
      <trkpt lat="48.23798" lon="-0.61256">
        <ele>195</ele>
        <time>2012-03-23T13:25:28Z</time>
      </trkpt>
      <trkpt lat="48.23786" lon="-0.61265">
        <ele>195</ele>
        <time>2012-03-23T13:25:32Z</time>
      </trkpt>
      <trkpt lat="48.23779" lon="-0.61269">
        <ele>195</ele>
        <time>2012-03-23T13:25:34Z</time>
      </trkpt>
      <trkpt lat="48.23767" lon="-0.61278">
        <ele>195</ele>
        <time>2012-03-23T13:25:38Z</time>
      </trkpt>
      <trkpt lat="48.23762" lon="-0.61281">
        <ele>195</ele>
        <time>2012-03-23T13:25:40Z</time>
      </trkpt>
      <trkpt lat="48.23753" lon="-0.61289">
        <ele>193</ele>
        <time>2012-03-23T13:25:44Z</time>
      </trkpt>
      <trkpt lat="48.23749" lon="-0.61292">
        <ele>193</ele>
        <time>2012-03-23T13:25:46Z</time>
      </trkpt>
      <trkpt lat="48.23741" lon="-0.61298">
        <ele>193</ele>
        <time>2012-03-23T13:25:50Z</time>
      </trkpt>
      <trkpt lat="48.23738" lon="-0.61302">
        <ele>193</ele>
        <time>2012-03-23T13:25:52Z</time>
      </trkpt>
      <trkpt lat="48.23735" lon="-0.61307">
        <ele>192</ele>
        <time>2012-03-23T13:25:54Z</time>
      </trkpt>
      <trkpt lat="48.23725" lon="-0.61314">
        <ele>191</ele>
        <time>2012-03-23T13:26:00Z</time>
      </trkpt>
      <trkpt lat="48.23709" lon="-0.61321">
        <ele>184</ele>
        <time>2012-03-23T13:26:08Z</time>
      </trkpt>
      <trkpt lat="48.23704" lon="-0.61326">
        <ele>184</ele>
        <time>2012-03-23T13:26:10Z</time>
      </trkpt>
      <trkpt lat="48.23692" lon="-0.61335">
        <ele>184</ele>
        <time>2012-03-23T13:26:14Z</time>
      </trkpt>
      <trkpt lat="48.23685" lon="-0.6134">
        <ele>185</ele>
        <time>2012-03-23T13:26:16Z</time>
      </trkpt>
      <trkpt lat="48.23679" lon="-0.61344">
        <ele>186</ele>
        <time>2012-03-23T13:26:18Z</time>
      </trkpt>
      <trkpt lat="48.23665" lon="-0.61352">
        <ele>188</ele>
        <time>2012-03-23T13:26:22Z</time>
      </trkpt>
      <trkpt lat="48.23659" lon="-0.61357">
        <ele>188</ele>
        <time>2012-03-23T13:26:24Z</time>
      </trkpt>
      <trkpt lat="48.23647" lon="-0.61365">
        <ele>188</ele>
        <time>2012-03-23T13:26:28Z</time>
      </trkpt>
      <trkpt lat="48.23639" lon="-0.61372">
        <ele>187</ele>
        <time>2012-03-23T13:26:32Z</time>
      </trkpt>
      <trkpt lat="48.23635" lon="-0.61375">
        <ele>187</ele>
        <time>2012-03-23T13:26:34Z</time>
      </trkpt>
      <trkpt lat="48.23622" lon="-0.61384">
        <ele>186</ele>
        <time>2012-03-23T13:26:40Z</time>
      </trkpt>
      <trkpt lat="48.23616" lon="-0.61388">
        <ele>186</ele>
        <time>2012-03-23T13:26:42Z</time>
      </trkpt>
      <trkpt lat="48.23602" lon="-0.61395">
        <ele>187</ele>
        <time>2012-03-23T13:26:46Z</time>
      </trkpt>
      <trkpt lat="48.23597" lon="-0.61398">
        <ele>184</ele>
        <time>2012-03-23T13:26:48Z</time>
      </trkpt>
      <trkpt lat="48.23591" lon="-0.61402">
        <ele>185</ele>
        <time>2012-03-23T13:26:50Z</time>
      </trkpt>
      <trkpt lat="48.23578" lon="-0.61411">
        <ele>184</ele>
        <time>2012-03-23T13:26:54Z</time>
      </trkpt>
      <trkpt lat="48.23573" lon="-0.61415">
        <ele>183</ele>
        <time>2012-03-23T13:26:56Z</time>
      </trkpt>
      <trkpt lat="48.23559" lon="-0.61423">
        <ele>185</ele>
        <time>2012-03-23T13:27:00Z</time>
      </trkpt>
      <trkpt lat="48.23552" lon="-0.61429">
        <ele>187</ele>
        <time>2012-03-23T13:27:02Z</time>
      </trkpt>
      <trkpt lat="48.23537" lon="-0.61438">
        <ele>189</ele>
        <time>2012-03-23T13:27:06Z</time>
      </trkpt>
      <trkpt lat="48.23531" lon="-0.61443">
        <ele>189</ele>
        <time>2012-03-23T13:27:08Z</time>
      </trkpt>
      <trkpt lat="48.23517" lon="-0.61453">
        <ele>189</ele>
        <time>2012-03-23T13:27:12Z</time>
      </trkpt>
      <trkpt lat="48.23503" lon="-0.61465">
        <ele>189</ele>
        <time>2012-03-23T13:27:16Z</time>
      </trkpt>
      <trkpt lat="48.23488" lon="-0.61475">
        <ele>188</ele>
        <time>2012-03-23T13:27:20Z</time>
      </trkpt>
      <trkpt lat="48.23474" lon="-0.61486">
        <ele>188</ele>
        <time>2012-03-23T13:27:24Z</time>
      </trkpt>
      <trkpt lat="48.2346" lon="-0.61497">
        <ele>187</ele>
        <time>2012-03-23T13:27:28Z</time>
      </trkpt>
      <trkpt lat="48.23446" lon="-0.61508">
        <ele>187</ele>
        <time>2012-03-23T13:27:32Z</time>
      </trkpt>
      <trkpt lat="48.23431" lon="-0.61517">
        <ele>187</ele>
        <time>2012-03-23T13:27:36Z</time>
      </trkpt>
      <trkpt lat="48.23416" lon="-0.61527">
        <ele>187</ele>
        <time>2012-03-23T13:27:40Z</time>
      </trkpt>
      <trkpt lat="48.23401" lon="-0.61537">
        <ele>187</ele>
        <time>2012-03-23T13:27:44Z</time>
      </trkpt>
      <trkpt lat="48.23393" lon="-0.61542">
        <ele>186</ele>
        <time>2012-03-23T13:27:46Z</time>
      </trkpt>
      <trkpt lat="48.23378" lon="-0.61552">
        <ele>186</ele>
        <time>2012-03-23T13:27:50Z</time>
      </trkpt>
      <trkpt lat="48.23363" lon="-0.61562">
        <ele>186</ele>
        <time>2012-03-23T13:27:54Z</time>
      </trkpt>
      <trkpt lat="48.23346" lon="-0.61572">
        <ele>187</ele>
        <time>2012-03-23T13:27:58Z</time>
      </trkpt>
      <trkpt lat="48.2333" lon="-0.61581">
        <ele>187</ele>
        <time>2012-03-23T13:28:02Z</time>
      </trkpt>
      <trkpt lat="48.23323" lon="-0.61586">
        <ele>187</ele>
        <time>2012-03-23T13:28:04Z</time>
      </trkpt>
      <trkpt lat="48.23307" lon="-0.61594">
        <ele>186</ele>
        <time>2012-03-23T13:28:08Z</time>
      </trkpt>
      <trkpt lat="48.23291" lon="-0.61603">
        <ele>186</ele>
        <time>2012-03-23T13:28:12Z</time>
      </trkpt>
      <trkpt lat="48.23283" lon="-0.61607">
        <ele>187</ele>
        <time>2012-03-23T13:28:14Z</time>
      </trkpt>
      <trkpt lat="48.23269" lon="-0.61613">
        <ele>185</ele>
        <time>2012-03-23T13:28:18Z</time>
      </trkpt>
      <trkpt lat="48.23264" lon="-0.61615">
        <ele>183</ele>
        <time>2012-03-23T13:28:20Z</time>
      </trkpt>
      <trkpt lat="48.23252" lon="-0.61619">
        <ele>179</ele>
        <time>2012-03-23T13:28:24Z</time>
      </trkpt>
      <trkpt lat="48.23245" lon="-0.61623">
        <ele>178</ele>
        <time>2012-03-23T13:28:26Z</time>
      </trkpt>
      <trkpt lat="48.23229" lon="-0.61631">
        <ele>179</ele>
        <time>2012-03-23T13:28:30Z</time>
      </trkpt>
      <trkpt lat="48.23222" lon="-0.61633">
        <ele>178</ele>
        <time>2012-03-23T13:28:32Z</time>
      </trkpt>
      <trkpt lat="48.23208" lon="-0.61638">
        <ele>179</ele>
        <time>2012-03-23T13:28:36Z</time>
      </trkpt>
      <trkpt lat="48.23203" lon="-0.61638">
        <ele>176</ele>
        <time>2012-03-23T13:28:38Z</time>
      </trkpt>
      <trkpt lat="48.23189" lon="-0.61647">
        <ele>173</ele>
        <time>2012-03-23T13:28:42Z</time>
      </trkpt>
      <trkpt lat="48.2318" lon="-0.61651">
        <ele>175</ele>
        <time>2012-03-23T13:28:44Z</time>
      </trkpt>
      <trkpt lat="48.23165" lon="-0.61658">
        <ele>174</ele>
        <time>2012-03-23T13:28:48Z</time>
      </trkpt>
      <trkpt lat="48.23148" lon="-0.61667">
        <ele>177</ele>
        <time>2012-03-23T13:28:52Z</time>
      </trkpt>
      <trkpt lat="48.23126" lon="-0.61676">
        <ele>176</ele>
        <time>2012-03-23T13:28:58Z</time>
      </trkpt>
      <trkpt lat="48.2311" lon="-0.61683">
        <ele>176</ele>
        <time>2012-03-23T13:29:02Z</time>
      </trkpt>
      <trkpt lat="48.23078" lon="-0.61694">
        <ele>179</ele>
        <time>2012-03-23T13:29:10Z</time>
      </trkpt>
      <trkpt lat="48.23055" lon="-0.61703">
        <ele>179</ele>
        <time>2012-03-23T13:29:16Z</time>
      </trkpt>
      <trkpt lat="48.23034" lon="-0.61711">
        <ele>173</ele>
        <time>2012-03-23T13:29:22Z</time>
      </trkpt>
      <trkpt lat="48.23007" lon="-0.61721">
        <ele>173</ele>
        <time>2012-03-23T13:29:30Z</time>
      </trkpt>
      <trkpt lat="48.2299" lon="-0.61727">
        <ele>175</ele>
        <time>2012-03-23T13:29:34Z</time>
      </trkpt>
      <trkpt lat="48.22974" lon="-0.61734">
        <ele>175</ele>
        <time>2012-03-23T13:29:38Z</time>
      </trkpt>
      <trkpt lat="48.22949" lon="-0.61744">
        <ele>177</ele>
        <time>2012-03-23T13:29:44Z</time>
      </trkpt>
      <trkpt lat="48.2292" lon="-0.61756">
        <ele>176</ele>
        <time>2012-03-23T13:29:52Z</time>
      </trkpt>
      <trkpt lat="48.22906" lon="-0.61763">
        <ele>174</ele>
        <time>2012-03-23T13:29:56Z</time>
      </trkpt>
      <trkpt lat="48.22881" lon="-0.61772">
        <ele>172</ele>
        <time>2012-03-23T13:30:04Z</time>
      </trkpt>
      <trkpt lat="48.22854" lon="-0.61786">
        <ele>176</ele>
        <time>2012-03-23T13:30:10Z</time>
      </trkpt>
      <trkpt lat="48.22824" lon="-0.61802">
        <ele>174</ele>
        <time>2012-03-23T13:30:18Z</time>
      </trkpt>
      <trkpt lat="48.22805" lon="-0.61811">
        <ele>176</ele>
        <time>2012-03-23T13:30:22Z</time>
      </trkpt>
      <trkpt lat="48.22788" lon="-0.61819">
        <ele>178</ele>
        <time>2012-03-23T13:30:26Z</time>
      </trkpt>
      <trkpt lat="48.22773" lon="-0.61825">
        <ele>178</ele>
        <time>2012-03-23T13:30:30Z</time>
      </trkpt>
      <trkpt lat="48.22742" lon="-0.61837">
        <ele>180</ele>
        <time>2012-03-23T13:30:38Z</time>
      </trkpt>
      <trkpt lat="48.22723" lon="-0.61847">
        <ele>185</ele>
        <time>2012-03-23T13:30:42Z</time>
      </trkpt>
      <trkpt lat="48.227" lon="-0.61857">
        <ele>185</ele>
        <time>2012-03-23T13:30:48Z</time>
      </trkpt>
      <trkpt lat="48.22683" lon="-0.61866">
        <ele>188</ele>
        <time>2012-03-23T13:30:52Z</time>
      </trkpt>
      <trkpt lat="48.22662" lon="-0.61875">
        <ele>187</ele>
        <time>2012-03-23T13:30:58Z</time>
      </trkpt>
      <trkpt lat="48.22647" lon="-0.61883">
        <ele>188</ele>
        <time>2012-03-23T13:31:02Z</time>
      </trkpt>
      <trkpt lat="48.2264" lon="-0.61886">
        <ele>187</ele>
        <time>2012-03-23T13:31:04Z</time>
      </trkpt>
      <trkpt lat="48.22614" lon="-0.61897">
        <ele>190</ele>
        <time>2012-03-23T13:31:10Z</time>
      </trkpt>
      <trkpt lat="48.22596" lon="-0.61906">
        <ele>192</ele>
        <time>2012-03-23T13:31:14Z</time>
      </trkpt>
      <trkpt lat="48.22571" lon="-0.61918">
        <ele>191</ele>
        <time>2012-03-23T13:31:20Z</time>
      </trkpt>
      <trkpt lat="48.22555" lon="-0.61925">
        <ele>192</ele>
        <time>2012-03-23T13:31:24Z</time>
      </trkpt>
      <trkpt lat="48.22547" lon="-0.6193">
        <ele>192</ele>
        <time>2012-03-23T13:31:26Z</time>
      </trkpt>
      <trkpt lat="48.22531" lon="-0.61938">
        <ele>191</ele>
        <time>2012-03-23T13:31:30Z</time>
      </trkpt>
      <trkpt lat="48.22519" lon="-0.61943">
        <ele>188</ele>
        <time>2012-03-23T13:31:34Z</time>
      </trkpt>
      <trkpt lat="48.22507" lon="-0.61949">
        <ele>185</ele>
        <time>2012-03-23T13:31:38Z</time>
      </trkpt>
      <trkpt lat="48.22499" lon="-0.61952">
        <ele>185</ele>
        <time>2012-03-23T13:31:40Z</time>
      </trkpt>
      <trkpt lat="48.22483" lon="-0.61958">
        <ele>185</ele>
        <time>2012-03-23T13:31:44Z</time>
      </trkpt>
      <trkpt lat="48.22475" lon="-0.61961">
        <ele>185</ele>
        <time>2012-03-23T13:31:46Z</time>
      </trkpt>
      <trkpt lat="48.2246" lon="-0.61967">
        <ele>185</ele>
        <time>2012-03-23T13:31:50Z</time>
      </trkpt>
      <trkpt lat="48.22455" lon="-0.61969">
        <ele>183</ele>
        <time>2012-03-23T13:31:52Z</time>
      </trkpt>
      <trkpt lat="48.22439" lon="-0.61975">
        <ele>183</ele>
        <time>2012-03-23T13:31:56Z</time>
      </trkpt>
      <trkpt lat="48.22423" lon="-0.61982">
        <ele>184</ele>
        <time>2012-03-23T13:32:00Z</time>
      </trkpt>
      <trkpt lat="48.22416" lon="-0.61984">
        <ele>184</ele>
        <time>2012-03-23T13:32:02Z</time>
      </trkpt>
      <trkpt lat="48.224" lon="-0.61991">
        <ele>186</ele>
        <time>2012-03-23T13:32:06Z</time>
      </trkpt>
      <trkpt lat="48.22384" lon="-0.61996">
        <ele>188</ele>
        <time>2012-03-23T13:32:10Z</time>
      </trkpt>
      <trkpt lat="48.2236" lon="-0.62006">
        <ele>188</ele>
        <time>2012-03-23T13:32:16Z</time>
      </trkpt>
      <trkpt lat="48.22342" lon="-0.62015">
        <ele>188</ele>
        <time>2012-03-23T13:32:20Z</time>
      </trkpt>
      <trkpt lat="48.22311" lon="-0.6203">
        <ele>184</ele>
        <time>2012-03-23T13:32:28Z</time>
      </trkpt>
      <trkpt lat="48.223" lon="-0.62032">
        <ele>184</ele>
        <time>2012-03-23T13:32:32Z</time>
      </trkpt>
      <trkpt lat="48.22265" lon="-0.62048">
        <ele>184</ele>
        <time>2012-03-23T13:32:42Z</time>
      </trkpt>
      <trkpt lat="48.22242" lon="-0.62059">
        <ele>185</ele>
        <time>2012-03-23T13:32:48Z</time>
      </trkpt>
      <trkpt lat="48.22226" lon="-0.62066">
        <ele>182</ele>
        <time>2012-03-23T13:32:54Z</time>
      </trkpt>
      <trkpt lat="48.22215" lon="-0.6207">
        <ele>182</ele>
        <time>2012-03-23T13:32:58Z</time>
      </trkpt>
      <trkpt lat="48.2221" lon="-0.62071">
        <ele>181</ele>
        <time>2012-03-23T13:33:00Z</time>
      </trkpt>
      <trkpt lat="48.22194" lon="-0.62084">
        <ele>180</ele>
        <time>2012-03-23T13:33:08Z</time>
      </trkpt>
      <trkpt lat="48.22182" lon="-0.62092">
        <ele>185</ele>
        <time>2012-03-23T13:33:14Z</time>
      </trkpt>
      <trkpt lat="48.22179" lon="-0.62094">
        <ele>189</ele>
        <time>2012-03-23T13:33:20Z</time>
      </trkpt>
      <trkpt lat="48.22179" lon="-0.62094">
        <ele>189</ele>
        <time>2012-03-23T13:33:46Z</time>
      </trkpt>
      <trkpt lat="48.22179" lon="-0.62094">
        <ele>189</ele>
        <time>2012-03-23T13:34:16Z</time>
      </trkpt>
      <trkpt lat="48.22179" lon="-0.62094">
        <ele>189</ele>
        <time>2012-03-23T13:34:35Z</time>
      </trkpt>
      <trkpt lat="48.22179" lon="-0.62094">
        <ele>189</ele>
        <time>2012-03-23T13:34:54Z</time>
      </trkpt>
      <trkpt lat="48.22179" lon="-0.62094">
        <ele>189</ele>
        <time>2012-03-23T13:35:14Z</time>
      </trkpt>
      <trkpt lat="48.2218" lon="-0.62105">
        <ele>194</ele>
        <time>2012-03-23T13:35:30Z</time>
      </trkpt>
      <trkpt lat="48.22182" lon="-0.62114">
        <ele>194</ele>
        <time>2012-03-23T13:35:32Z</time>
      </trkpt>
      <trkpt lat="48.22183" lon="-0.62131">
        <ele>194</ele>
        <time>2012-03-23T13:35:36Z</time>
      </trkpt>
      <trkpt lat="48.22182" lon="-0.62141">
        <ele>194</ele>
        <time>2012-03-23T13:35:38Z</time>
      </trkpt>
      <trkpt lat="48.22181" lon="-0.62151">
        <ele>195</ele>
        <time>2012-03-23T13:35:40Z</time>
      </trkpt>
      <trkpt lat="48.22179" lon="-0.6216">
        <ele>196</ele>
        <time>2012-03-23T13:35:42Z</time>
      </trkpt>
      <trkpt lat="48.22177" lon="-0.62169">
        <ele>197</ele>
        <time>2012-03-23T13:35:44Z</time>
      </trkpt>
      <trkpt lat="48.22174" lon="-0.62178">
        <ele>197</ele>
        <time>2012-03-23T13:35:46Z</time>
      </trkpt>
      <trkpt lat="48.22168" lon="-0.62194">
        <ele>197</ele>
        <time>2012-03-23T13:35:50Z</time>
      </trkpt>
      <trkpt lat="48.22164" lon="-0.62203">
        <ele>197</ele>
        <time>2012-03-23T13:35:52Z</time>
      </trkpt>
      <trkpt lat="48.22154" lon="-0.62218">
        <ele>196</ele>
        <time>2012-03-23T13:35:56Z</time>
      </trkpt>
      <trkpt lat="48.22147" lon="-0.62226">
        <ele>196</ele>
        <time>2012-03-23T13:35:58Z</time>
      </trkpt>
      <trkpt lat="48.22134" lon="-0.62244">
        <ele>195</ele>
        <time>2012-03-23T13:36:02Z</time>
      </trkpt>
      <trkpt lat="48.22119" lon="-0.62264">
        <ele>195</ele>
        <time>2012-03-23T13:36:06Z</time>
      </trkpt>
      <trkpt lat="48.22105" lon="-0.62279">
        <ele>195</ele>
        <time>2012-03-23T13:36:10Z</time>
      </trkpt>
      <trkpt lat="48.22089" lon="-0.62289">
        <ele>194</ele>
        <time>2012-03-23T13:36:14Z</time>
      </trkpt>
      <trkpt lat="48.22073" lon="-0.62297">
        <ele>195</ele>
        <time>2012-03-23T13:36:18Z</time>
      </trkpt>
      <trkpt lat="48.22057" lon="-0.62305">
        <ele>196</ele>
        <time>2012-03-23T13:36:22Z</time>
      </trkpt>
      <trkpt lat="48.22049" lon="-0.6231">
        <ele>196</ele>
        <time>2012-03-23T13:36:24Z</time>
      </trkpt>
      <trkpt lat="48.22033" lon="-0.62322">
        <ele>196</ele>
        <time>2012-03-23T13:36:28Z</time>
      </trkpt>
      <trkpt lat="48.22018" lon="-0.62335">
        <ele>197</ele>
        <time>2012-03-23T13:36:32Z</time>
      </trkpt>
      <trkpt lat="48.22007" lon="-0.62354">
        <ele>197</ele>
        <time>2012-03-23T13:36:36Z</time>
      </trkpt>
      <trkpt lat="48.22001" lon="-0.62377">
        <ele>197</ele>
        <time>2012-03-23T13:36:40Z</time>
      </trkpt>
      <trkpt lat="48.21997" lon="-0.62401">
        <ele>197</ele>
        <time>2012-03-23T13:36:44Z</time>
      </trkpt>
      <trkpt lat="48.21995" lon="-0.62413">
        <ele>197</ele>
        <time>2012-03-23T13:36:46Z</time>
      </trkpt>
      <trkpt lat="48.21992" lon="-0.62435">
        <ele>197</ele>
        <time>2012-03-23T13:36:50Z</time>
      </trkpt>
      <trkpt lat="48.21989" lon="-0.62467">
        <ele>197</ele>
        <time>2012-03-23T13:36:56Z</time>
      </trkpt>
      <trkpt lat="48.21987" lon="-0.62491">
        <ele>197</ele>
        <time>2012-03-23T13:37:00Z</time>
      </trkpt>
      <trkpt lat="48.21985" lon="-0.62513">
        <ele>196</ele>
        <time>2012-03-23T13:37:04Z</time>
      </trkpt>
      <trkpt lat="48.21984" lon="-0.62525">
        <ele>196</ele>
        <time>2012-03-23T13:37:06Z</time>
      </trkpt>
      <trkpt lat="48.21982" lon="-0.62548">
        <ele>197</ele>
        <time>2012-03-23T13:37:10Z</time>
      </trkpt>
      <trkpt lat="48.2198" lon="-0.6257">
        <ele>198</ele>
        <time>2012-03-23T13:37:14Z</time>
      </trkpt>
      <trkpt lat="48.21978" lon="-0.62592">
        <ele>198</ele>
        <time>2012-03-23T13:37:18Z</time>
      </trkpt>
      <trkpt lat="48.21977" lon="-0.62614">
        <ele>198</ele>
        <time>2012-03-23T13:37:22Z</time>
      </trkpt>
      <trkpt lat="48.21976" lon="-0.62634">
        <ele>198</ele>
        <time>2012-03-23T13:37:26Z</time>
      </trkpt>
      <trkpt lat="48.21974" lon="-0.6265">
        <ele>200</ele>
        <time>2012-03-23T13:37:30Z</time>
      </trkpt>
      <trkpt lat="48.21973" lon="-0.62656">
        <ele>200</ele>
        <time>2012-03-23T13:37:32Z</time>
      </trkpt>
      <trkpt lat="48.21971" lon="-0.62668">
        <ele>200</ele>
        <time>2012-03-23T13:37:36Z</time>
      </trkpt>
      <trkpt lat="48.21973" lon="-0.62677">
        <ele>200</ele>
        <time>2012-03-23T13:37:40Z</time>
      </trkpt>
      <trkpt lat="48.21973" lon="-0.62677">
        <ele>200</ele>
        <time>2012-03-23T13:37:56Z</time>
      </trkpt>
      <trkpt lat="48.2198" lon="-0.62677">
        <ele>200</ele>
        <time>2012-03-23T13:38:00Z</time>
      </trkpt>
      <trkpt lat="48.21988" lon="-0.62672">
        <ele>200</ele>
        <time>2012-03-23T13:38:04Z</time>
      </trkpt>
      <trkpt lat="48.21997" lon="-0.62665">
        <ele>200</ele>
        <time>2012-03-23T13:38:08Z</time>
      </trkpt>
      <trkpt lat="48.22002" lon="-0.62662">
        <ele>200</ele>
        <time>2012-03-23T13:38:10Z</time>
      </trkpt>
      <trkpt lat="48.22007" lon="-0.62658">
        <ele>200</ele>
        <time>2012-03-23T13:38:12Z</time>
      </trkpt>
      <trkpt lat="48.22016" lon="-0.6265">
        <ele>200</ele>
        <time>2012-03-23T13:38:16Z</time>
      </trkpt>
      <trkpt lat="48.22021" lon="-0.62647">
        <ele>200</ele>
        <time>2012-03-23T13:38:18Z</time>
      </trkpt>
      <trkpt lat="48.22032" lon="-0.62639">
        <ele>199</ele>
        <time>2012-03-23T13:38:22Z</time>
      </trkpt>
      <trkpt lat="48.22038" lon="-0.62636">
        <ele>198</ele>
        <time>2012-03-23T13:38:24Z</time>
      </trkpt>
      <trkpt lat="48.22057" lon="-0.62624">
        <ele>198</ele>
        <time>2012-03-23T13:38:30Z</time>
      </trkpt>
      <trkpt lat="48.22072" lon="-0.62615">
        <ele>197</ele>
        <time>2012-03-23T13:38:34Z</time>
      </trkpt>
      <trkpt lat="48.22088" lon="-0.62606">
        <ele>197</ele>
        <time>2012-03-23T13:38:38Z</time>
      </trkpt>
      <trkpt lat="48.22103" lon="-0.62597">
        <ele>197</ele>
        <time>2012-03-23T13:38:42Z</time>
      </trkpt>
      <trkpt lat="48.22119" lon="-0.62588">
        <ele>196</ele>
        <time>2012-03-23T13:38:46Z</time>
      </trkpt>
      <trkpt lat="48.22136" lon="-0.62579">
        <ele>196</ele>
        <time>2012-03-23T13:38:50Z</time>
      </trkpt>
      <trkpt lat="48.22153" lon="-0.6257">
        <ele>195</ele>
        <time>2012-03-23T13:38:54Z</time>
      </trkpt>
      <trkpt lat="48.22171" lon="-0.6256">
        <ele>195</ele>
        <time>2012-03-23T13:38:58Z</time>
      </trkpt>
      <trkpt lat="48.22188" lon="-0.6255">
        <ele>194</ele>
        <time>2012-03-23T13:39:02Z</time>
      </trkpt>
      <trkpt lat="48.22203" lon="-0.62542">
        <ele>194</ele>
        <time>2012-03-23T13:39:06Z</time>
      </trkpt>
      <trkpt lat="48.22219" lon="-0.62531">
        <ele>194</ele>
        <time>2012-03-23T13:39:10Z</time>
      </trkpt>
      <trkpt lat="48.22233" lon="-0.62515">
        <ele>194</ele>
        <time>2012-03-23T13:39:14Z</time>
      </trkpt>
      <trkpt lat="48.22246" lon="-0.62495">
        <ele>193</ele>
        <time>2012-03-23T13:39:18Z</time>
      </trkpt>
      <trkpt lat="48.22257" lon="-0.62472">
        <ele>193</ele>
        <time>2012-03-23T13:39:22Z</time>
      </trkpt>
      <trkpt lat="48.22266" lon="-0.62448">
        <ele>192</ele>
        <time>2012-03-23T13:39:26Z</time>
      </trkpt>
      <trkpt lat="48.22275" lon="-0.62424">
        <ele>191</ele>
        <time>2012-03-23T13:39:30Z</time>
      </trkpt>
      <trkpt lat="48.22285" lon="-0.624">
        <ele>190</ele>
        <time>2012-03-23T13:39:34Z</time>
      </trkpt>
      <trkpt lat="48.22297" lon="-0.6238">
        <ele>189</ele>
        <time>2012-03-23T13:39:38Z</time>
      </trkpt>
      <trkpt lat="48.22311" lon="-0.62361">
        <ele>188</ele>
        <time>2012-03-23T13:39:42Z</time>
      </trkpt>
      <trkpt lat="48.22327" lon="-0.62344">
        <ele>187</ele>
        <time>2012-03-23T13:39:46Z</time>
      </trkpt>
      <trkpt lat="48.22345" lon="-0.62327">
        <ele>187</ele>
        <time>2012-03-23T13:39:50Z</time>
      </trkpt>
      <trkpt lat="48.22363" lon="-0.62309">
        <ele>186</ele>
        <time>2012-03-23T13:39:54Z</time>
      </trkpt>
      <trkpt lat="48.22381" lon="-0.62291">
        <ele>186</ele>
        <time>2012-03-23T13:39:58Z</time>
      </trkpt>
      <trkpt lat="48.22399" lon="-0.62274">
        <ele>185</ele>
        <time>2012-03-23T13:40:02Z</time>
      </trkpt>
      <trkpt lat="48.22415" lon="-0.62257">
        <ele>184</ele>
        <time>2012-03-23T13:40:06Z</time>
      </trkpt>
      <trkpt lat="48.22432" lon="-0.6224">
        <ele>184</ele>
        <time>2012-03-23T13:40:10Z</time>
      </trkpt>
      <trkpt lat="48.22447" lon="-0.62223">
        <ele>183</ele>
        <time>2012-03-23T13:40:14Z</time>
      </trkpt>
      <trkpt lat="48.22462" lon="-0.62205">
        <ele>183</ele>
        <time>2012-03-23T13:40:18Z</time>
      </trkpt>
      <trkpt lat="48.22477" lon="-0.62185">
        <ele>183</ele>
        <time>2012-03-23T13:40:22Z</time>
      </trkpt>
      <trkpt lat="48.22491" lon="-0.62165">
        <ele>183</ele>
        <time>2012-03-23T13:40:26Z</time>
      </trkpt>
      <trkpt lat="48.22504" lon="-0.62143">
        <ele>182</ele>
        <time>2012-03-23T13:40:30Z</time>
      </trkpt>
      <trkpt lat="48.22518" lon="-0.6212">
        <ele>181</ele>
        <time>2012-03-23T13:40:34Z</time>
      </trkpt>
      <trkpt lat="48.22531" lon="-0.62096">
        <ele>180</ele>
        <time>2012-03-23T13:40:38Z</time>
      </trkpt>
      <trkpt lat="48.22545" lon="-0.62072">
        <ele>180</ele>
        <time>2012-03-23T13:40:42Z</time>
      </trkpt>
      <trkpt lat="48.22558" lon="-0.62053">
        <ele>180</ele>
        <time>2012-03-23T13:40:46Z</time>
      </trkpt>
      <trkpt lat="48.22574" lon="-0.62039">
        <ele>180</ele>
        <time>2012-03-23T13:40:50Z</time>
      </trkpt>
      <trkpt lat="48.22591" lon="-0.62032">
        <ele>181</ele>
        <time>2012-03-23T13:40:54Z</time>
      </trkpt>
      <trkpt lat="48.22607" lon="-0.62027">
        <ele>181</ele>
        <time>2012-03-23T13:40:58Z</time>
      </trkpt>
      <trkpt lat="48.22623" lon="-0.62023">
        <ele>181</ele>
        <time>2012-03-23T13:41:02Z</time>
      </trkpt>
      <trkpt lat="48.22631" lon="-0.6202">
        <ele>182</ele>
        <time>2012-03-23T13:41:04Z</time>
      </trkpt>
      <trkpt lat="48.22646" lon="-0.62014">
        <ele>181</ele>
        <time>2012-03-23T13:41:08Z</time>
      </trkpt>
      <trkpt lat="48.22655" lon="-0.62011">
        <ele>181</ele>
        <time>2012-03-23T13:41:10Z</time>
      </trkpt>
      <trkpt lat="48.22671" lon="-0.62004">
        <ele>182</ele>
        <time>2012-03-23T13:41:14Z</time>
      </trkpt>
      <trkpt lat="48.22687" lon="-0.61995">
        <ele>183</ele>
        <time>2012-03-23T13:41:18Z</time>
      </trkpt>
      <trkpt lat="48.22695" lon="-0.61991">
        <ele>183</ele>
        <time>2012-03-23T13:41:20Z</time>
      </trkpt>
      <trkpt lat="48.22711" lon="-0.61981">
        <ele>183</ele>
        <time>2012-03-23T13:41:24Z</time>
      </trkpt>
      <trkpt lat="48.22727" lon="-0.61968">
        <ele>184</ele>
        <time>2012-03-23T13:41:28Z</time>
      </trkpt>
      <trkpt lat="48.22743" lon="-0.61956">
        <ele>184</ele>
        <time>2012-03-23T13:41:32Z</time>
      </trkpt>
      <trkpt lat="48.22759" lon="-0.61943">
        <ele>184</ele>
        <time>2012-03-23T13:41:36Z</time>
      </trkpt>
      <trkpt lat="48.22775" lon="-0.6193">
        <ele>183</ele>
        <time>2012-03-23T13:41:40Z</time>
      </trkpt>
      <trkpt lat="48.22792" lon="-0.61915">
        <ele>183</ele>
        <time>2012-03-23T13:41:44Z</time>
      </trkpt>
      <trkpt lat="48.22811" lon="-0.619">
        <ele>182</ele>
        <time>2012-03-23T13:41:48Z</time>
      </trkpt>
      <trkpt lat="48.22832" lon="-0.61885">
        <ele>181</ele>
        <time>2012-03-23T13:41:52Z</time>
      </trkpt>
      <trkpt lat="48.22857" lon="-0.61872">
        <ele>179</ele>
        <time>2012-03-23T13:41:56Z</time>
      </trkpt>
      <trkpt lat="48.22884" lon="-0.61862">
        <ele>178</ele>
        <time>2012-03-23T13:42:00Z</time>
      </trkpt>
      <trkpt lat="48.22912" lon="-0.61853">
        <ele>176</ele>
        <time>2012-03-23T13:42:04Z</time>
      </trkpt>
      <trkpt lat="48.2294" lon="-0.61845">
        <ele>175</ele>
        <time>2012-03-23T13:42:08Z</time>
      </trkpt>
      <trkpt lat="48.22967" lon="-0.61841">
        <ele>174</ele>
        <time>2012-03-23T13:42:12Z</time>
      </trkpt>
      <trkpt lat="48.22991" lon="-0.61844">
        <ele>174</ele>
        <time>2012-03-23T13:42:16Z</time>
      </trkpt>
      <trkpt lat="48.23013" lon="-0.6185">
        <ele>174</ele>
        <time>2012-03-23T13:42:20Z</time>
      </trkpt>
      <trkpt lat="48.23033" lon="-0.61858">
        <ele>174</ele>
        <time>2012-03-23T13:42:24Z</time>
      </trkpt>
      <trkpt lat="48.23052" lon="-0.61866">
        <ele>175</ele>
        <time>2012-03-23T13:42:28Z</time>
      </trkpt>
      <trkpt lat="48.23069" lon="-0.61873">
        <ele>176</ele>
        <time>2012-03-23T13:42:32Z</time>
      </trkpt>
      <trkpt lat="48.23085" lon="-0.6188">
        <ele>176</ele>
        <time>2012-03-23T13:42:36Z</time>
      </trkpt>
      <trkpt lat="48.23101" lon="-0.61885">
        <ele>176</ele>
        <time>2012-03-23T13:42:40Z</time>
      </trkpt>
      <trkpt lat="48.23116" lon="-0.61892">
        <ele>176</ele>
        <time>2012-03-23T13:42:44Z</time>
      </trkpt>
      <trkpt lat="48.23124" lon="-0.61895">
        <ele>176</ele>
        <time>2012-03-23T13:42:46Z</time>
      </trkpt>
      <trkpt lat="48.23139" lon="-0.619">
        <ele>176</ele>
        <time>2012-03-23T13:42:50Z</time>
      </trkpt>
      <trkpt lat="48.23154" lon="-0.61906">
        <ele>177</ele>
        <time>2012-03-23T13:42:54Z</time>
      </trkpt>
      <trkpt lat="48.23162" lon="-0.61909">
        <ele>177</ele>
        <time>2012-03-23T13:42:56Z</time>
      </trkpt>
      <trkpt lat="48.23176" lon="-0.61915">
        <ele>177</ele>
        <time>2012-03-23T13:43:00Z</time>
      </trkpt>
      <trkpt lat="48.23189" lon="-0.6192">
        <ele>177</ele>
        <time>2012-03-23T13:43:04Z</time>
      </trkpt>
      <trkpt lat="48.23201" lon="-0.61925">
        <ele>177</ele>
        <time>2012-03-23T13:43:08Z</time>
      </trkpt>
      <trkpt lat="48.23207" lon="-0.61928">
        <ele>177</ele>
        <time>2012-03-23T13:43:10Z</time>
      </trkpt>
      <trkpt lat="48.2322" lon="-0.61933">
        <ele>178</ele>
        <time>2012-03-23T13:43:14Z</time>
      </trkpt>
      <trkpt lat="48.23226" lon="-0.61936">
        <ele>178</ele>
        <time>2012-03-23T13:43:16Z</time>
      </trkpt>
      <trkpt lat="48.23238" lon="-0.6194">
        <ele>179</ele>
        <time>2012-03-23T13:43:20Z</time>
      </trkpt>
      <trkpt lat="48.23245" lon="-0.61943">
        <ele>180</ele>
        <time>2012-03-23T13:43:22Z</time>
      </trkpt>
      <trkpt lat="48.23257" lon="-0.61947">
        <ele>181</ele>
        <time>2012-03-23T13:43:26Z</time>
      </trkpt>
      <trkpt lat="48.23263" lon="-0.6195">
        <ele>181</ele>
        <time>2012-03-23T13:43:28Z</time>
      </trkpt>
      <trkpt lat="48.23274" lon="-0.61954">
        <ele>181</ele>
        <time>2012-03-23T13:43:32Z</time>
      </trkpt>
      <trkpt lat="48.2328" lon="-0.61956">
        <ele>181</ele>
        <time>2012-03-23T13:43:34Z</time>
      </trkpt>
      <trkpt lat="48.23292" lon="-0.61961">
        <ele>182</ele>
        <time>2012-03-23T13:43:38Z</time>
      </trkpt>
      <trkpt lat="48.23298" lon="-0.61964">
        <ele>182</ele>
        <time>2012-03-23T13:43:40Z</time>
      </trkpt>
      <trkpt lat="48.23304" lon="-0.61966">
        <ele>182</ele>
        <time>2012-03-23T13:43:42Z</time>
      </trkpt>
      <trkpt lat="48.23317" lon="-0.61971">
        <ele>183</ele>
        <time>2012-03-23T13:43:46Z</time>
      </trkpt>
      <trkpt lat="48.23323" lon="-0.61973">
        <ele>183</ele>
        <time>2012-03-23T13:43:48Z</time>
      </trkpt>
      <trkpt lat="48.23336" lon="-0.61978">
        <ele>183</ele>
        <time>2012-03-23T13:43:52Z</time>
      </trkpt>
      <trkpt lat="48.23343" lon="-0.6198">
        <ele>183</ele>
        <time>2012-03-23T13:43:54Z</time>
      </trkpt>
      <trkpt lat="48.23355" lon="-0.61983">
        <ele>183</ele>
        <time>2012-03-23T13:43:58Z</time>
      </trkpt>
      <trkpt lat="48.23361" lon="-0.61984">
        <ele>183</ele>
        <time>2012-03-23T13:44:00Z</time>
      </trkpt>
      <trkpt lat="48.23374" lon="-0.61986">
        <ele>183</ele>
        <time>2012-03-23T13:44:04Z</time>
      </trkpt>
      <trkpt lat="48.2338" lon="-0.61987">
        <ele>183</ele>
        <time>2012-03-23T13:44:06Z</time>
      </trkpt>
      <trkpt lat="48.23391" lon="-0.61988">
        <ele>183</ele>
        <time>2012-03-23T13:44:10Z</time>
      </trkpt>
      <trkpt lat="48.23396" lon="-0.61989">
        <ele>183</ele>
        <time>2012-03-23T13:44:12Z</time>
      </trkpt>
      <trkpt lat="48.23408" lon="-0.61989">
        <ele>183</ele>
        <time>2012-03-23T13:44:16Z</time>
      </trkpt>
      <trkpt lat="48.23414" lon="-0.61989">
        <ele>183</ele>
        <time>2012-03-23T13:44:18Z</time>
      </trkpt>
      <trkpt lat="48.23428" lon="-0.61987">
        <ele>182</ele>
        <time>2012-03-23T13:44:22Z</time>
      </trkpt>
      <trkpt lat="48.23435" lon="-0.61986">
        <ele>182</ele>
        <time>2012-03-23T13:44:24Z</time>
      </trkpt>
      <trkpt lat="48.23448" lon="-0.61982">
        <ele>182</ele>
        <time>2012-03-23T13:44:28Z</time>
      </trkpt>
      <trkpt lat="48.23454" lon="-0.61981">
        <ele>182</ele>
        <time>2012-03-23T13:44:30Z</time>
      </trkpt>
      <trkpt lat="48.23468" lon="-0.61977">
        <ele>182</ele>
        <time>2012-03-23T13:44:34Z</time>
      </trkpt>
      <trkpt lat="48.23474" lon="-0.61975">
        <ele>182</ele>
        <time>2012-03-23T13:44:36Z</time>
      </trkpt>
      <trkpt lat="48.23486" lon="-0.61971">
        <ele>182</ele>
        <time>2012-03-23T13:44:40Z</time>
      </trkpt>
      <trkpt lat="48.23491" lon="-0.61969">
        <ele>181</ele>
        <time>2012-03-23T13:44:42Z</time>
      </trkpt>
      <trkpt lat="48.23501" lon="-0.61964">
        <ele>181</ele>
        <time>2012-03-23T13:44:46Z</time>
      </trkpt>
      <trkpt lat="48.23519" lon="-0.61957">
        <ele>180</ele>
        <time>2012-03-23T13:44:52Z</time>
      </trkpt>
      <trkpt lat="48.23525" lon="-0.61955">
        <ele>180</ele>
        <time>2012-03-23T13:44:54Z</time>
      </trkpt>
      <trkpt lat="48.23535" lon="-0.6195">
        <ele>180</ele>
        <time>2012-03-23T13:44:58Z</time>
      </trkpt>
      <trkpt lat="48.2354" lon="-0.61948">
        <ele>179</ele>
        <time>2012-03-23T13:45:00Z</time>
      </trkpt>
      <trkpt lat="48.23548" lon="-0.61944">
        <ele>179</ele>
        <time>2012-03-23T13:45:04Z</time>
      </trkpt>
      <trkpt lat="48.23553" lon="-0.61935">
        <ele>179</ele>
        <time>2012-03-23T13:45:08Z</time>
      </trkpt>
      <trkpt lat="48.23557" lon="-0.61916">
        <ele>181</ele>
        <time>2012-03-23T13:45:14Z</time>
      </trkpt>
      <trkpt lat="48.2356" lon="-0.61912">
        <ele>181</ele>
        <time>2012-03-23T13:45:16Z</time>
      </trkpt>
      <trkpt lat="48.2357" lon="-0.61912">
        <ele>181</ele>
        <time>2012-03-23T13:45:20Z</time>
      </trkpt>
      <trkpt lat="48.23575" lon="-0.61912">
        <ele>181</ele>
        <time>2012-03-23T13:45:22Z</time>
      </trkpt>
      <trkpt lat="48.2358" lon="-0.61912">
        <ele>181</ele>
        <time>2012-03-23T13:45:24Z</time>
      </trkpt>
      <trkpt lat="48.23592" lon="-0.61913">
        <ele>181</ele>
        <time>2012-03-23T13:45:28Z</time>
      </trkpt>
      <trkpt lat="48.23597" lon="-0.61914">
        <ele>182</ele>
        <time>2012-03-23T13:45:30Z</time>
      </trkpt>
      <trkpt lat="48.23607" lon="-0.6192">
        <ele>186</ele>
        <time>2012-03-23T13:45:34Z</time>
      </trkpt>
      <trkpt lat="48.23612" lon="-0.61921">
        <ele>186</ele>
        <time>2012-03-23T13:45:36Z</time>
      </trkpt>
      <trkpt lat="48.23624" lon="-0.61925">
        <ele>186</ele>
        <time>2012-03-23T13:45:40Z</time>
      </trkpt>
      <trkpt lat="48.2363" lon="-0.61927">
        <ele>186</ele>
        <time>2012-03-23T13:45:42Z</time>
      </trkpt>
      <trkpt lat="48.23655" lon="-0.61934">
        <ele>184</ele>
        <time>2012-03-23T13:45:50Z</time>
      </trkpt>
      <trkpt lat="48.23677" lon="-0.61939">
        <ele>184</ele>
        <time>2012-03-23T13:45:58Z</time>
      </trkpt>
      <trkpt lat="48.23687" lon="-0.61944">
        <ele>185</ele>
        <time>2012-03-23T13:46:02Z</time>
      </trkpt>
      <trkpt lat="48.23693" lon="-0.61946">
        <ele>186</ele>
        <time>2012-03-23T13:46:04Z</time>
      </trkpt>
      <trkpt lat="48.23699" lon="-0.61947">
        <ele>187</ele>
        <time>2012-03-23T13:46:06Z</time>
      </trkpt>
      <trkpt lat="48.23711" lon="-0.61949">
        <ele>186</ele>
        <time>2012-03-23T13:46:10Z</time>
      </trkpt>
      <trkpt lat="48.23718" lon="-0.6195">
        <ele>186</ele>
        <time>2012-03-23T13:46:12Z</time>
      </trkpt>
      <trkpt lat="48.23733" lon="-0.61953">
        <ele>185</ele>
        <time>2012-03-23T13:46:16Z</time>
      </trkpt>
      <trkpt lat="48.2374" lon="-0.61954">
        <ele>185</ele>
        <time>2012-03-23T13:46:18Z</time>
      </trkpt>
      <trkpt lat="48.23756" lon="-0.61957">
        <ele>185</ele>
        <time>2012-03-23T13:46:22Z</time>
      </trkpt>
      <trkpt lat="48.23769" lon="-0.6196">
        <ele>185</ele>
        <time>2012-03-23T13:46:26Z</time>
      </trkpt>
      <trkpt lat="48.23783" lon="-0.61963">
        <ele>184</ele>
        <time>2012-03-23T13:46:30Z</time>
      </trkpt>
      <trkpt lat="48.23789" lon="-0.61964">
        <ele>183</ele>
        <time>2012-03-23T13:46:32Z</time>
      </trkpt>
      <trkpt lat="48.23803" lon="-0.61969">
        <ele>183</ele>
        <time>2012-03-23T13:46:36Z</time>
      </trkpt>
      <trkpt lat="48.23828" lon="-0.61982">
        <ele>185</ele>
        <time>2012-03-23T13:46:44Z</time>
      </trkpt>
      <trkpt lat="48.23843" lon="-0.61985">
        <ele>186</ele>
        <time>2012-03-23T13:46:48Z</time>
      </trkpt>
      <trkpt lat="48.23851" lon="-0.61987">
        <ele>186</ele>
        <time>2012-03-23T13:46:50Z</time>
      </trkpt>
      <trkpt lat="48.23869" lon="-0.61991">
        <ele>183</ele>
        <time>2012-03-23T13:46:54Z</time>
      </trkpt>
      <trkpt lat="48.23882" lon="-0.61994">
        <ele>182</ele>
        <time>2012-03-23T13:46:58Z</time>
      </trkpt>
      <trkpt lat="48.23907" lon="-0.62001">
        <ele>183</ele>
        <time>2012-03-23T13:47:10Z</time>
      </trkpt>
      <trkpt lat="48.23926" lon="-0.62">
        <ele>183</ele>
        <time>2012-03-23T13:47:14Z</time>
      </trkpt>
      <trkpt lat="48.23935" lon="-0.62009">
        <ele>183</ele>
        <time>2012-03-23T13:47:24Z</time>
      </trkpt>
      <trkpt lat="48.23946" lon="-0.62014">
        <ele>187</ele>
        <time>2012-03-23T13:47:30Z</time>
      </trkpt>
      <trkpt lat="48.23952" lon="-0.62015">
        <ele>187</ele>
        <time>2012-03-23T13:47:32Z</time>
      </trkpt>
      <trkpt lat="48.23957" lon="-0.62017">
        <ele>186</ele>
        <time>2012-03-23T13:47:34Z</time>
      </trkpt>
      <trkpt lat="48.23983" lon="-0.62024">
        <ele>188</ele>
        <time>2012-03-23T13:47:44Z</time>
      </trkpt>
      <trkpt lat="48.23997" lon="-0.62024">
        <ele>186</ele>
        <time>2012-03-23T13:47:48Z</time>
      </trkpt>
      <trkpt lat="48.24014" lon="-0.62023">
        <ele>187</ele>
        <time>2012-03-23T13:47:54Z</time>
      </trkpt>
      <trkpt lat="48.24026" lon="-0.6202">
        <ele>186</ele>
        <time>2012-03-23T13:47:58Z</time>
      </trkpt>
      <trkpt lat="48.24033" lon="-0.62019">
        <ele>185</ele>
        <time>2012-03-23T13:48:00Z</time>
      </trkpt>
      <trkpt lat="48.24039" lon="-0.62019">
        <ele>185</ele>
        <time>2012-03-23T13:48:02Z</time>
      </trkpt>
      <trkpt lat="48.24055" lon="-0.62018">
        <ele>185</ele>
        <time>2012-03-23T13:48:08Z</time>
      </trkpt>
      <trkpt lat="48.24061" lon="-0.62018">
        <ele>185</ele>
        <time>2012-03-23T13:48:10Z</time>
      </trkpt>
      <trkpt lat="48.24075" lon="-0.6202">
        <ele>184</ele>
        <time>2012-03-23T13:48:14Z</time>
      </trkpt>
      <trkpt lat="48.24081" lon="-0.62022">
        <ele>184</ele>
        <time>2012-03-23T13:48:16Z</time>
      </trkpt>
      <trkpt lat="48.24092" lon="-0.62023">
        <ele>183</ele>
        <time>2012-03-23T13:48:20Z</time>
      </trkpt>
      <trkpt lat="48.24098" lon="-0.62025">
        <ele>183</ele>
        <time>2012-03-23T13:48:22Z</time>
      </trkpt>
      <trkpt lat="48.2411" lon="-0.62027">
        <ele>184</ele>
        <time>2012-03-23T13:48:26Z</time>
      </trkpt>
      <trkpt lat="48.24114" lon="-0.62029">
        <ele>185</ele>
        <time>2012-03-23T13:48:28Z</time>
      </trkpt>
      <trkpt lat="48.24119" lon="-0.62028">
        <ele>185</ele>
        <time>2012-03-23T13:48:30Z</time>
      </trkpt>
      <trkpt lat="48.24119" lon="-0.62028">
        <ele>185</ele>
        <time>2012-03-23T13:48:46Z</time>
      </trkpt>
      <trkpt lat="48.24119" lon="-0.62028">
        <ele>185</ele>
        <time>2012-03-23T13:49:03Z</time>
      </trkpt>
      <trkpt lat="48.24123" lon="-0.62039">
        <ele>186</ele>
        <time>2012-03-23T13:49:10Z</time>
      </trkpt>
      <trkpt lat="48.24124" lon="-0.62049">
        <ele>184</ele>
        <time>2012-03-23T13:49:14Z</time>
      </trkpt>
      <trkpt lat="48.2413" lon="-0.6207">
        <ele>183</ele>
        <time>2012-03-23T13:49:20Z</time>
      </trkpt>
      <trkpt lat="48.24133" lon="-0.62077">
        <ele>182</ele>
        <time>2012-03-23T13:49:22Z</time>
      </trkpt>
      <trkpt lat="48.24136" lon="-0.62085">
        <ele>182</ele>
        <time>2012-03-23T13:49:24Z</time>
      </trkpt>
      <trkpt lat="48.24141" lon="-0.62099">
        <ele>182</ele>
        <time>2012-03-23T13:49:28Z</time>
      </trkpt>
      <trkpt lat="48.24144" lon="-0.62106">
        <ele>182</ele>
        <time>2012-03-23T13:49:30Z</time>
      </trkpt>
      <trkpt lat="48.24149" lon="-0.62119">
        <ele>182</ele>
        <time>2012-03-23T13:49:34Z</time>
      </trkpt>
      <trkpt lat="48.24152" lon="-0.62126">
        <ele>183</ele>
        <time>2012-03-23T13:49:36Z</time>
      </trkpt>
      <trkpt lat="48.24158" lon="-0.62142">
        <ele>183</ele>
        <time>2012-03-23T13:49:40Z</time>
      </trkpt>
      <trkpt lat="48.2416" lon="-0.62149">
        <ele>183</ele>
        <time>2012-03-23T13:49:42Z</time>
      </trkpt>
      <trkpt lat="48.24164" lon="-0.62162">
        <ele>183</ele>
        <time>2012-03-23T13:49:46Z</time>
      </trkpt>
      <trkpt lat="48.24165" lon="-0.62169">
        <ele>183</ele>
        <time>2012-03-23T13:49:48Z</time>
      </trkpt>
      <trkpt lat="48.24168" lon="-0.62184">
        <ele>183</ele>
        <time>2012-03-23T13:49:52Z</time>
      </trkpt>
      <trkpt lat="48.24169" lon="-0.62191">
        <ele>183</ele>
        <time>2012-03-23T13:49:54Z</time>
      </trkpt>
      <trkpt lat="48.24169" lon="-0.62198">
        <ele>183</ele>
        <time>2012-03-23T13:49:56Z</time>
      </trkpt>
      <trkpt lat="48.24171" lon="-0.62214">
        <ele>183</ele>
        <time>2012-03-23T13:50:00Z</time>
      </trkpt>
      <trkpt lat="48.24172" lon="-0.62222">
        <ele>184</ele>
        <time>2012-03-23T13:50:02Z</time>
      </trkpt>
      <trkpt lat="48.24173" lon="-0.6223">
        <ele>184</ele>
        <time>2012-03-23T13:50:04Z</time>
      </trkpt>
      <trkpt lat="48.24175" lon="-0.62247">
        <ele>185</ele>
        <time>2012-03-23T13:50:08Z</time>
      </trkpt>
      <trkpt lat="48.24176" lon="-0.62254">
        <ele>185</ele>
        <time>2012-03-23T13:50:10Z</time>
      </trkpt>
      <trkpt lat="48.24177" lon="-0.62268">
        <ele>186</ele>
        <time>2012-03-23T13:50:14Z</time>
      </trkpt>
      <trkpt lat="48.24178" lon="-0.62274">
        <ele>186</ele>
        <time>2012-03-23T13:50:16Z</time>
      </trkpt>
      <trkpt lat="48.2418" lon="-0.62288">
        <ele>186</ele>
        <time>2012-03-23T13:50:20Z</time>
      </trkpt>
      <trkpt lat="48.24181" lon="-0.62296">
        <ele>186</ele>
        <time>2012-03-23T13:50:22Z</time>
      </trkpt>
      <trkpt lat="48.24182" lon="-0.62305">
        <ele>186</ele>
        <time>2012-03-23T13:50:24Z</time>
      </trkpt>
      <trkpt lat="48.24187" lon="-0.62322">
        <ele>186</ele>
        <time>2012-03-23T13:50:28Z</time>
      </trkpt>
      <trkpt lat="48.2419" lon="-0.62331">
        <ele>186</ele>
        <time>2012-03-23T13:50:30Z</time>
      </trkpt>
      <trkpt lat="48.24198" lon="-0.62347">
        <ele>185</ele>
        <time>2012-03-23T13:50:34Z</time>
      </trkpt>
      <trkpt lat="48.24201" lon="-0.62356">
        <ele>185</ele>
        <time>2012-03-23T13:50:36Z</time>
      </trkpt>
      <trkpt lat="48.24208" lon="-0.62376">
        <ele>185</ele>
        <time>2012-03-23T13:50:40Z</time>
      </trkpt>
      <trkpt lat="48.2421" lon="-0.62387">
        <ele>185</ele>
        <time>2012-03-23T13:50:42Z</time>
      </trkpt>
      <trkpt lat="48.24216" lon="-0.6241">
        <ele>184</ele>
        <time>2012-03-23T13:50:46Z</time>
      </trkpt>
      <trkpt lat="48.24222" lon="-0.62434">
        <ele>184</ele>
        <time>2012-03-23T13:50:50Z</time>
      </trkpt>
      <trkpt lat="48.24232" lon="-0.62458">
        <ele>183</ele>
        <time>2012-03-23T13:50:54Z</time>
      </trkpt>
      <trkpt lat="48.24243" lon="-0.62479">
        <ele>184</ele>
        <time>2012-03-23T13:50:58Z</time>
      </trkpt>
      <trkpt lat="48.24255" lon="-0.62498">
        <ele>183</ele>
        <time>2012-03-23T13:51:02Z</time>
      </trkpt>
      <trkpt lat="48.24267" lon="-0.62519">
        <ele>182</ele>
        <time>2012-03-23T13:51:06Z</time>
      </trkpt>
      <trkpt lat="48.2428" lon="-0.6254">
        <ele>181</ele>
        <time>2012-03-23T13:51:10Z</time>
      </trkpt>
      <trkpt lat="48.24292" lon="-0.62561">
        <ele>180</ele>
        <time>2012-03-23T13:51:14Z</time>
      </trkpt>
      <trkpt lat="48.24303" lon="-0.62582">
        <ele>179</ele>
        <time>2012-03-23T13:51:18Z</time>
      </trkpt>
      <trkpt lat="48.24315" lon="-0.62603">
        <ele>178</ele>
        <time>2012-03-23T13:51:22Z</time>
      </trkpt>
      <trkpt lat="48.24328" lon="-0.62625">
        <ele>177</ele>
        <time>2012-03-23T13:51:26Z</time>
      </trkpt>
      <trkpt lat="48.24339" lon="-0.62649">
        <ele>176</ele>
        <time>2012-03-23T13:51:30Z</time>
      </trkpt>
      <trkpt lat="48.2435" lon="-0.62674">
        <ele>175</ele>
        <time>2012-03-23T13:51:34Z</time>
      </trkpt>
      <trkpt lat="48.24361" lon="-0.62702">
        <ele>174</ele>
        <time>2012-03-23T13:51:38Z</time>
      </trkpt>
      <trkpt lat="48.24371" lon="-0.62732">
        <ele>173</ele>
        <time>2012-03-23T13:51:42Z</time>
      </trkpt>
      <trkpt lat="48.24382" lon="-0.62764">
        <ele>172</ele>
        <time>2012-03-23T13:51:46Z</time>
      </trkpt>
      <trkpt lat="48.24393" lon="-0.62794">
        <ele>172</ele>
        <time>2012-03-23T13:51:50Z</time>
      </trkpt>
      <trkpt lat="48.24408" lon="-0.62822">
        <ele>171</ele>
        <time>2012-03-23T13:51:54Z</time>
      </trkpt>
      <trkpt lat="48.24425" lon="-0.62844">
        <ele>171</ele>
        <time>2012-03-23T13:51:58Z</time>
      </trkpt>
      <trkpt lat="48.24442" lon="-0.62862">
        <ele>171</ele>
        <time>2012-03-23T13:52:02Z</time>
      </trkpt>
      <trkpt lat="48.24455" lon="-0.62881">
        <ele>172</ele>
        <time>2012-03-23T13:52:06Z</time>
      </trkpt>
      <trkpt lat="48.24466" lon="-0.62904">
        <ele>172</ele>
        <time>2012-03-23T13:52:10Z</time>
      </trkpt>
      <trkpt lat="48.24474" lon="-0.6293">
        <ele>172</ele>
        <time>2012-03-23T13:52:14Z</time>
      </trkpt>
      <trkpt lat="48.2448" lon="-0.62957">
        <ele>172</ele>
        <time>2012-03-23T13:52:18Z</time>
      </trkpt>
      <trkpt lat="48.24485" lon="-0.62982">
        <ele>172</ele>
        <time>2012-03-23T13:52:22Z</time>
      </trkpt>
      <trkpt lat="48.24489" lon="-0.63005">
        <ele>172</ele>
        <time>2012-03-23T13:52:26Z</time>
      </trkpt>
      <trkpt lat="48.24494" lon="-0.63026">
        <ele>172</ele>
        <time>2012-03-23T13:52:30Z</time>
      </trkpt>
      <trkpt lat="48.24499" lon="-0.63049">
        <ele>172</ele>
        <time>2012-03-23T13:52:34Z</time>
      </trkpt>
      <trkpt lat="48.24505" lon="-0.63072">
        <ele>171</ele>
        <time>2012-03-23T13:52:38Z</time>
      </trkpt>
      <trkpt lat="48.24512" lon="-0.63096">
        <ele>171</ele>
        <time>2012-03-23T13:52:42Z</time>
      </trkpt>
      <trkpt lat="48.24519" lon="-0.63121">
        <ele>171</ele>
        <time>2012-03-23T13:52:46Z</time>
      </trkpt>
      <trkpt lat="48.24526" lon="-0.63147">
        <ele>170</ele>
        <time>2012-03-23T13:52:50Z</time>
      </trkpt>
      <trkpt lat="48.24533" lon="-0.63174">
        <ele>170</ele>
        <time>2012-03-23T13:52:54Z</time>
      </trkpt>
      <trkpt lat="48.24538" lon="-0.63202">
        <ele>170</ele>
        <time>2012-03-23T13:52:58Z</time>
      </trkpt>
      <trkpt lat="48.24543" lon="-0.63232">
        <ele>170</ele>
        <time>2012-03-23T13:53:02Z</time>
      </trkpt>
      <trkpt lat="48.24545" lon="-0.63262">
        <ele>169</ele>
        <time>2012-03-23T13:53:06Z</time>
      </trkpt>
      <trkpt lat="48.24548" lon="-0.63293">
        <ele>169</ele>
        <time>2012-03-23T13:53:10Z</time>
      </trkpt>
      <trkpt lat="48.2455" lon="-0.63324">
        <ele>169</ele>
        <time>2012-03-23T13:53:14Z</time>
      </trkpt>
      <trkpt lat="48.24553" lon="-0.63354">
        <ele>170</ele>
        <time>2012-03-23T13:53:18Z</time>
      </trkpt>
      <trkpt lat="48.24556" lon="-0.6338">
        <ele>171</ele>
        <time>2012-03-23T13:53:22Z</time>
      </trkpt>
      <trkpt lat="48.24559" lon="-0.63404">
        <ele>172</ele>
        <time>2012-03-23T13:53:26Z</time>
      </trkpt>
      <trkpt lat="48.24562" lon="-0.63427">
        <ele>173</ele>
        <time>2012-03-23T13:53:30Z</time>
      </trkpt>
      <trkpt lat="48.24564" lon="-0.63439">
        <ele>173</ele>
        <time>2012-03-23T13:53:32Z</time>
      </trkpt>
      <trkpt lat="48.24569" lon="-0.63463">
        <ele>173</ele>
        <time>2012-03-23T13:53:36Z</time>
      </trkpt>
      <trkpt lat="48.24575" lon="-0.63484">
        <ele>173</ele>
        <time>2012-03-23T13:53:40Z</time>
      </trkpt>
      <trkpt lat="48.24581" lon="-0.63503">
        <ele>174</ele>
        <time>2012-03-23T13:53:44Z</time>
      </trkpt>
      <trkpt lat="48.24585" lon="-0.63512">
        <ele>174</ele>
        <time>2012-03-23T13:53:46Z</time>
      </trkpt>
      <trkpt lat="48.24594" lon="-0.6353">
        <ele>174</ele>
        <time>2012-03-23T13:53:50Z</time>
      </trkpt>
      <trkpt lat="48.24604" lon="-0.63548">
        <ele>174</ele>
        <time>2012-03-23T13:53:54Z</time>
      </trkpt>
      <trkpt lat="48.24614" lon="-0.63563">
        <ele>174</ele>
        <time>2012-03-23T13:53:58Z</time>
      </trkpt>
      <trkpt lat="48.24625" lon="-0.63578">
        <ele>173</ele>
        <time>2012-03-23T13:54:02Z</time>
      </trkpt>
      <trkpt lat="48.24637" lon="-0.63594">
        <ele>173</ele>
        <time>2012-03-23T13:54:06Z</time>
      </trkpt>
      <trkpt lat="48.24649" lon="-0.63612">
        <ele>172</ele>
        <time>2012-03-23T13:54:10Z</time>
      </trkpt>
      <trkpt lat="48.24664" lon="-0.63632">
        <ele>171</ele>
        <time>2012-03-23T13:54:14Z</time>
      </trkpt>
      <trkpt lat="48.24681" lon="-0.63654">
        <ele>170</ele>
        <time>2012-03-23T13:54:18Z</time>
      </trkpt>
      <trkpt lat="48.24702" lon="-0.63672">
        <ele>169</ele>
        <time>2012-03-23T13:54:22Z</time>
      </trkpt>
      <trkpt lat="48.24725" lon="-0.63683">
        <ele>168</ele>
        <time>2012-03-23T13:54:26Z</time>
      </trkpt>
      <trkpt lat="48.24747" lon="-0.63693">
        <ele>169</ele>
        <time>2012-03-23T13:54:30Z</time>
      </trkpt>
      <trkpt lat="48.24764" lon="-0.6371">
        <ele>169</ele>
        <time>2012-03-23T13:54:34Z</time>
      </trkpt>
      <trkpt lat="48.24777" lon="-0.63733">
        <ele>168</ele>
        <time>2012-03-23T13:54:38Z</time>
      </trkpt>
      <trkpt lat="48.24791" lon="-0.63757">
        <ele>168</ele>
        <time>2012-03-23T13:54:42Z</time>
      </trkpt>
      <trkpt lat="48.2481" lon="-0.63794">
        <ele>168</ele>
        <time>2012-03-23T13:54:48Z</time>
      </trkpt>
      <trkpt lat="48.24824" lon="-0.63818">
        <ele>169</ele>
        <time>2012-03-23T13:54:52Z</time>
      </trkpt>
      <trkpt lat="48.2484" lon="-0.63839">
        <ele>170</ele>
        <time>2012-03-23T13:54:56Z</time>
      </trkpt>
      <trkpt lat="48.24856" lon="-0.63859">
        <ele>171</ele>
        <time>2012-03-23T13:55:00Z</time>
      </trkpt>
      <trkpt lat="48.24871" lon="-0.63878">
        <ele>171</ele>
        <time>2012-03-23T13:55:04Z</time>
      </trkpt>
      <trkpt lat="48.24884" lon="-0.63894">
        <ele>171</ele>
        <time>2012-03-23T13:55:08Z</time>
      </trkpt>
      <trkpt lat="48.24896" lon="-0.63909">
        <ele>172</ele>
        <time>2012-03-23T13:55:12Z</time>
      </trkpt>
      <trkpt lat="48.24907" lon="-0.63923">
        <ele>172</ele>
        <time>2012-03-23T13:55:16Z</time>
      </trkpt>
      <trkpt lat="48.24913" lon="-0.6393">
        <ele>172</ele>
        <time>2012-03-23T13:55:18Z</time>
      </trkpt>
      <trkpt lat="48.24923" lon="-0.63943">
        <ele>172</ele>
        <time>2012-03-23T13:55:22Z</time>
      </trkpt>
      <trkpt lat="48.24933" lon="-0.63956">
        <ele>172</ele>
        <time>2012-03-23T13:55:26Z</time>
      </trkpt>
      <trkpt lat="48.24937" lon="-0.63963">
        <ele>172</ele>
        <time>2012-03-23T13:55:28Z</time>
      </trkpt>
      <trkpt lat="48.24944" lon="-0.63977">
        <ele>172</ele>
        <time>2012-03-23T13:55:32Z</time>
      </trkpt>
      <trkpt lat="48.24947" lon="-0.63984">
        <ele>172</ele>
        <time>2012-03-23T13:55:34Z</time>
      </trkpt>
      <trkpt lat="48.2495" lon="-0.63999">
        <ele>172</ele>
        <time>2012-03-23T13:55:38Z</time>
      </trkpt>
      <trkpt lat="48.24952" lon="-0.64007">
        <ele>172</ele>
        <time>2012-03-23T13:55:40Z</time>
      </trkpt>
      <trkpt lat="48.24955" lon="-0.64034">
        <ele>172</ele>
        <time>2012-03-23T13:55:46Z</time>
      </trkpt>
      <trkpt lat="48.24957" lon="-0.64052">
        <ele>172</ele>
        <time>2012-03-23T13:55:50Z</time>
      </trkpt>
      <trkpt lat="48.24958" lon="-0.64062">
        <ele>172</ele>
        <time>2012-03-23T13:55:52Z</time>
      </trkpt>
      <trkpt lat="48.2496" lon="-0.6408">
        <ele>172</ele>
        <time>2012-03-23T13:55:56Z</time>
      </trkpt>
      <trkpt lat="48.24961" lon="-0.64087">
        <ele>172</ele>
        <time>2012-03-23T13:55:58Z</time>
      </trkpt>
      <trkpt lat="48.24961" lon="-0.64095">
        <ele>172</ele>
        <time>2012-03-23T13:56:04Z</time>
      </trkpt>
      <trkpt lat="48.24967" lon="-0.64094">
        <ele>172</ele>
        <time>2012-03-23T13:56:14Z</time>
      </trkpt>
      <trkpt lat="48.24972" lon="-0.6411">
        <ele>173</ele>
        <time>2012-03-23T13:56:36Z</time>
      </trkpt>
      <trkpt lat="48.24972" lon="-0.64118">
        <ele>173</ele>
        <time>2012-03-23T13:56:40Z</time>
      </trkpt>
      <trkpt lat="48.24973" lon="-0.64126">
        <ele>173</ele>
        <time>2012-03-23T13:56:44Z</time>
      </trkpt>
      <trkpt lat="48.24971" lon="-0.64145">
        <ele>172</ele>
        <time>2012-03-23T13:56:52Z</time>
      </trkpt>
      <trkpt lat="48.24969" lon="-0.64153">
        <ele>172</ele>
        <time>2012-03-23T13:56:54Z</time>
      </trkpt>
      <trkpt lat="48.24961" lon="-0.64165">
        <ele>172</ele>
        <time>2012-03-23T13:56:58Z</time>
      </trkpt>
      <trkpt lat="48.24955" lon="-0.64169">
        <ele>172</ele>
        <time>2012-03-23T13:57:00Z</time>
      </trkpt>
      <trkpt lat="48.24948" lon="-0.6417">
        <ele>173</ele>
        <time>2012-03-23T13:57:02Z</time>
      </trkpt>
      <trkpt lat="48.24934" lon="-0.64167">
        <ele>174</ele>
        <time>2012-03-23T13:57:06Z</time>
      </trkpt>
      <trkpt lat="48.24926" lon="-0.64166">
        <ele>174</ele>
        <time>2012-03-23T13:57:08Z</time>
      </trkpt>
      <trkpt lat="48.24912" lon="-0.64168">
        <ele>175</ele>
        <time>2012-03-23T13:57:12Z</time>
      </trkpt>
      <trkpt lat="48.24897" lon="-0.64173">
        <ele>175</ele>
        <time>2012-03-23T13:57:16Z</time>
      </trkpt>
      <trkpt lat="48.24882" lon="-0.64177">
        <ele>175</ele>
        <time>2012-03-23T13:57:20Z</time>
      </trkpt>
      <trkpt lat="48.24868" lon="-0.64181">
        <ele>175</ele>
        <time>2012-03-23T13:57:24Z</time>
      </trkpt>
      <trkpt lat="48.24855" lon="-0.64185">
        <ele>175</ele>
        <time>2012-03-23T13:57:28Z</time>
      </trkpt>
      <trkpt lat="48.24849" lon="-0.64186">
        <ele>176</ele>
        <time>2012-03-23T13:57:30Z</time>
      </trkpt>
      <trkpt lat="48.24836" lon="-0.6419">
        <ele>176</ele>
        <time>2012-03-23T13:57:34Z</time>
      </trkpt>
      <trkpt lat="48.2483" lon="-0.64193">
        <ele>175</ele>
        <time>2012-03-23T13:57:36Z</time>
      </trkpt>
      <trkpt lat="48.24819" lon="-0.64203">
        <ele>175</ele>
        <time>2012-03-23T13:57:40Z</time>
      </trkpt>
      <trkpt lat="48.24814" lon="-0.64212">
        <ele>175</ele>
        <time>2012-03-23T13:57:42Z</time>
      </trkpt>
      <trkpt lat="48.24812" lon="-0.64235">
        <ele>174</ele>
        <time>2012-03-23T13:57:46Z</time>
      </trkpt>
      <trkpt lat="48.24813" lon="-0.64246">
        <ele>174</ele>
        <time>2012-03-23T13:57:48Z</time>
      </trkpt>
      <trkpt lat="48.24817" lon="-0.64268">
        <ele>174</ele>
        <time>2012-03-23T13:57:52Z</time>
      </trkpt>
      <trkpt lat="48.2482" lon="-0.64292">
        <ele>173</ele>
        <time>2012-03-23T13:57:56Z</time>
      </trkpt>
      <trkpt lat="48.24824" lon="-0.64317">
        <ele>172</ele>
        <time>2012-03-23T13:58:00Z</time>
      </trkpt>
      <trkpt lat="48.24826" lon="-0.64343">
        <ele>171</ele>
        <time>2012-03-23T13:58:04Z</time>
      </trkpt>
      <trkpt lat="48.24829" lon="-0.6437">
        <ele>170</ele>
        <time>2012-03-23T13:58:08Z</time>
      </trkpt>
      <trkpt lat="48.24833" lon="-0.64395">
        <ele>170</ele>
        <time>2012-03-23T13:58:12Z</time>
      </trkpt>
      <trkpt lat="48.24838" lon="-0.64419">
        <ele>170</ele>
        <time>2012-03-23T13:58:16Z</time>
      </trkpt>
      <trkpt lat="48.24841" lon="-0.64437">
        <ele>170</ele>
        <time>2012-03-23T13:58:20Z</time>
      </trkpt>
      <trkpt lat="48.24842" lon="-0.64445">
        <ele>170</ele>
        <time>2012-03-23T13:58:24Z</time>
      </trkpt>
      <trkpt lat="48.24843" lon="-0.64453">
        <ele>170</ele>
        <time>2012-03-23T13:58:36Z</time>
      </trkpt>
      <trkpt lat="48.24844" lon="-0.64467">
        <ele>170</ele>
        <time>2012-03-23T13:58:40Z</time>
      </trkpt>
      <trkpt lat="48.24845" lon="-0.64487">
        <ele>170</ele>
        <time>2012-03-23T13:58:44Z</time>
      </trkpt>
      <trkpt lat="48.24845" lon="-0.64499">
        <ele>170</ele>
        <time>2012-03-23T13:58:46Z</time>
      </trkpt>
      <trkpt lat="48.24846" lon="-0.64511">
        <ele>169</ele>
        <time>2012-03-23T13:58:48Z</time>
      </trkpt>
      <trkpt lat="48.24847" lon="-0.64523">
        <ele>169</ele>
        <time>2012-03-23T13:58:50Z</time>
      </trkpt>
      <trkpt lat="48.24848" lon="-0.64535">
        <ele>169</ele>
        <time>2012-03-23T13:58:52Z</time>
      </trkpt>
      <trkpt lat="48.24848" lon="-0.64546">
        <ele>169</ele>
        <time>2012-03-23T13:58:54Z</time>
      </trkpt>
      <trkpt lat="48.24848" lon="-0.6457">
        <ele>168</ele>
        <time>2012-03-23T13:58:58Z</time>
      </trkpt>
      <trkpt lat="48.24846" lon="-0.64595">
        <ele>167</ele>
        <time>2012-03-23T13:59:02Z</time>
      </trkpt>
      <trkpt lat="48.24843" lon="-0.6462">
        <ele>166</ele>
        <time>2012-03-23T13:59:06Z</time>
      </trkpt>
      <trkpt lat="48.2484" lon="-0.64647">
        <ele>165</ele>
        <time>2012-03-23T13:59:10Z</time>
      </trkpt>
      <trkpt lat="48.24837" lon="-0.64675">
        <ele>163</ele>
        <time>2012-03-23T13:59:14Z</time>
      </trkpt>
      <trkpt lat="48.24835" lon="-0.64703">
        <ele>161</ele>
        <time>2012-03-23T13:59:18Z</time>
      </trkpt>
      <trkpt lat="48.24833" lon="-0.64732">
        <ele>160</ele>
        <time>2012-03-23T13:59:22Z</time>
      </trkpt>
      <trkpt lat="48.2483" lon="-0.64761">
        <ele>159</ele>
        <time>2012-03-23T13:59:26Z</time>
      </trkpt>
      <trkpt lat="48.24829" lon="-0.64791">
        <ele>158</ele>
        <time>2012-03-23T13:59:30Z</time>
      </trkpt>
      <trkpt lat="48.24827" lon="-0.6482">
        <ele>156</ele>
        <time>2012-03-23T13:59:34Z</time>
      </trkpt>
      <trkpt lat="48.24826" lon="-0.64849">
        <ele>154</ele>
        <time>2012-03-23T13:59:38Z</time>
      </trkpt>
      <trkpt lat="48.24826" lon="-0.64877">
        <ele>153</ele>
        <time>2012-03-23T13:59:42Z</time>
      </trkpt>
      <trkpt lat="48.24824" lon="-0.649">
        <ele>152</ele>
        <time>2012-03-23T13:59:46Z</time>
      </trkpt>
      <trkpt lat="48.2482" lon="-0.64906">
        <ele>151</ele>
        <time>2012-03-23T13:59:48Z</time>
      </trkpt>
      <trkpt lat="48.24815" lon="-0.64922">
        <ele>154</ele>
        <time>2012-03-23T13:59:54Z</time>
      </trkpt>
      <trkpt lat="48.24814" lon="-0.64933">
        <ele>155</ele>
        <time>2012-03-23T13:59:58Z</time>
      </trkpt>
      <trkpt lat="48.24819" lon="-0.64937">
        <ele>153</ele>
        <time>2012-03-23T14:00:00Z</time>
      </trkpt>
      <trkpt lat="48.24824" lon="-0.64937">
        <ele>152</ele>
        <time>2012-03-23T14:00:02Z</time>
      </trkpt>
      <trkpt lat="48.24834" lon="-0.64939">
        <ele>151</ele>
        <time>2012-03-23T14:00:09Z</time>
      </trkpt>
      <trkpt lat="48.24842" lon="-0.64941">
        <ele>150</ele>
        <time>2012-03-23T14:00:13Z</time>
      </trkpt>
      <trkpt lat="48.24846" lon="-0.64943">
        <ele>149</ele>
        <time>2012-03-23T14:00:15Z</time>
      </trkpt>
      <trkpt lat="48.2485" lon="-0.64944">
        <ele>149</ele>
        <time>2012-03-23T14:00:17Z</time>
      </trkpt>
      <trkpt lat="48.24855" lon="-0.64945">
        <ele>149</ele>
        <time>2012-03-23T14:00:19Z</time>
      </trkpt>
      <trkpt lat="48.24871" lon="-0.64944">
        <ele>152</ele>
        <time>2012-03-23T14:00:25Z</time>
      </trkpt>
      <trkpt lat="48.24877" lon="-0.64944">
        <ele>151</ele>
        <time>2012-03-23T14:00:27Z</time>
      </trkpt>
      <trkpt lat="48.24889" lon="-0.64944">
        <ele>150</ele>
        <time>2012-03-23T14:00:31Z</time>
      </trkpt>
      <trkpt lat="48.24895" lon="-0.64945">
        <ele>150</ele>
        <time>2012-03-23T14:00:33Z</time>
      </trkpt>
      <trkpt lat="48.24911" lon="-0.64946">
        <ele>149</ele>
        <time>2012-03-23T14:00:39Z</time>
      </trkpt>
      <trkpt lat="48.2492" lon="-0.64948">
        <ele>148</ele>
        <time>2012-03-23T14:00:43Z</time>
      </trkpt>
      <trkpt lat="48.24924" lon="-0.64949">
        <ele>148</ele>
        <time>2012-03-23T14:00:45Z</time>
      </trkpt>
      <trkpt lat="48.24935" lon="-0.64951">
        <ele>148</ele>
        <time>2012-03-23T14:00:49Z</time>
      </trkpt>
      <trkpt lat="48.24942" lon="-0.64951">
        <ele>147</ele>
        <time>2012-03-23T14:00:51Z</time>
      </trkpt>
      <trkpt lat="48.24948" lon="-0.64953">
        <ele>147</ele>
        <time>2012-03-23T14:00:53Z</time>
      </trkpt>
      <trkpt lat="48.24954" lon="-0.6496">
        <ele>148</ele>
        <time>2012-03-23T14:01:01Z</time>
      </trkpt>
      <trkpt lat="48.24952" lon="-0.6497">
        <ele>147</ele>
        <time>2012-03-23T14:01:07Z</time>
      </trkpt>
      <trkpt lat="48.24949" lon="-0.64979">
        <ele>146</ele>
        <time>2012-03-23T14:01:13Z</time>
      </trkpt>
      <trkpt lat="48.24943" lon="-0.64998">
        <ele>144</ele>
        <time>2012-03-23T14:01:27Z</time>
      </trkpt>
      <trkpt lat="48.24941" lon="-0.65005">
        <ele>143</ele>
        <time>2012-03-23T14:01:35Z</time>
      </trkpt>
      <trkpt lat="48.24941" lon="-0.65005">
        <ele>143</ele>
        <time>2012-03-23T14:01:51Z</time>
      </trkpt>
      <trkpt lat="48.24941" lon="-0.65005">
        <ele>143</ele>
        <time>2012-03-23T14:02:07Z</time>
      </trkpt>
      <trkpt lat="48.24941" lon="-0.65005">
        <ele>143</ele>
        <time>2012-03-23T14:02:23Z</time>
      </trkpt>
      <trkpt lat="48.24941" lon="-0.65005">
        <ele>143</ele>
        <time>2012-03-23T14:02:39Z</time>
      </trkpt>
      <trkpt lat="48.24941" lon="-0.65005">
        <ele>143</ele>
        <time>2012-03-23T14:02:55Z</time>
      </trkpt>
      <trkpt lat="48.24941" lon="-0.65005">
        <ele>143</ele>
        <time>2012-03-23T14:03:11Z</time>
      </trkpt>
      <trkpt lat="48.24941" lon="-0.65005">
        <ele>143</ele>
        <time>2012-03-23T14:03:27Z</time>
      </trkpt>
      <trkpt lat="48.24941" lon="-0.65005">
        <ele>143</ele>
        <time>2012-03-23T14:03:43Z</time>
      </trkpt>
      <trkpt lat="48.24936" lon="-0.65009">
        <ele>140</ele>
        <time>2012-03-23T14:03:53Z</time>
      </trkpt>
      <trkpt lat="48.24924" lon="-0.65024">
        <ele>136</ele>
        <time>2012-03-23T14:04:11Z</time>
      </trkpt>
      <trkpt lat="48.24922" lon="-0.65033">
        <ele>135</ele>
        <time>2012-03-23T14:04:17Z</time>
      </trkpt>
      <trkpt lat="48.24921" lon="-0.65043">
        <ele>135</ele>
        <time>2012-03-23T14:04:23Z</time>
      </trkpt>
      <trkpt lat="48.24921" lon="-0.65049">
        <ele>135</ele>
        <time>2012-03-23T14:04:27Z</time>
      </trkpt>
      <trkpt lat="48.24922" lon="-0.65058">
        <ele>136</ele>
        <time>2012-03-23T14:04:33Z</time>
      </trkpt>
      <trkpt lat="48.24924" lon="-0.65067">
        <ele>136</ele>
        <time>2012-03-23T14:04:39Z</time>
      </trkpt>
      <trkpt lat="48.24927" lon="-0.65076">
        <ele>134</ele>
        <time>2012-03-23T14:04:45Z</time>
      </trkpt>
      <trkpt lat="48.24933" lon="-0.65079">
        <ele>133</ele>
        <time>2012-03-23T14:04:49Z</time>
      </trkpt>
      <trkpt lat="48.24938" lon="-0.65082">
        <ele>132</ele>
        <time>2012-03-23T14:04:53Z</time>
      </trkpt>
      <trkpt lat="48.24945" lon="-0.65085">
        <ele>131</ele>
        <time>2012-03-23T14:04:59Z</time>
      </trkpt>
      <trkpt lat="48.2495" lon="-0.65087">
        <ele>129</ele>
        <time>2012-03-23T14:05:03Z</time>
      </trkpt>
      <trkpt lat="48.24955" lon="-0.65089">
        <ele>126</ele>
        <time>2012-03-23T14:05:07Z</time>
      </trkpt>
      <trkpt lat="48.24959" lon="-0.65092">
        <ele>124</ele>
        <time>2012-03-23T14:05:11Z</time>
      </trkpt>
      <trkpt lat="48.24963" lon="-0.65097">
        <ele>123</ele>
        <time>2012-03-23T14:05:17Z</time>
      </trkpt>
      <trkpt lat="48.24963" lon="-0.65097">
        <ele>123</ele>
        <time>2012-03-23T14:05:33Z</time>
      </trkpt>
      <trkpt lat="48.24963" lon="-0.65097">
        <ele>123</ele>
        <time>2012-03-23T14:05:49Z</time>
      </trkpt>
      <trkpt lat="48.24963" lon="-0.65097">
        <ele>123</ele>
        <time>2012-03-23T14:06:05Z</time>
      </trkpt>
      <trkpt lat="48.24963" lon="-0.65097">
        <ele>123</ele>
        <time>2012-03-23T14:06:21Z</time>
      </trkpt>
      <trkpt lat="48.24963" lon="-0.65097">
        <ele>123</ele>
        <time>2012-03-23T14:06:37Z</time>
      </trkpt>
      <trkpt lat="48.24969" lon="-0.651">
        <ele>132</ele>
        <time>2012-03-23T14:06:43Z</time>
      </trkpt>
      <trkpt lat="48.24976" lon="-0.651">
        <ele>130</ele>
        <time>2012-03-23T14:06:47Z</time>
      </trkpt>
      <trkpt lat="48.24988" lon="-0.651">
        <ele>132</ele>
        <time>2012-03-23T14:06:53Z</time>
      </trkpt>
      <trkpt lat="48.24993" lon="-0.65099">
        <ele>133</ele>
        <time>2012-03-23T14:06:55Z</time>
      </trkpt>
      <trkpt lat="48.25002" lon="-0.65097">
        <ele>135</ele>
        <time>2012-03-23T14:06:59Z</time>
      </trkpt>
      <trkpt lat="48.25013" lon="-0.65099">
        <ele>137</ele>
        <time>2012-03-23T14:07:03Z</time>
      </trkpt>
      <trkpt lat="48.25025" lon="-0.65101">
        <ele>137</ele>
        <time>2012-03-23T14:07:07Z</time>
      </trkpt>
      <trkpt lat="48.25044" lon="-0.65105">
        <ele>139</ele>
        <time>2012-03-23T14:07:13Z</time>
      </trkpt>
      <trkpt lat="48.2506" lon="-0.65109">
        <ele>140</ele>
        <time>2012-03-23T14:07:19Z</time>
      </trkpt>
      <trkpt lat="48.25071" lon="-0.65109">
        <ele>140</ele>
        <time>2012-03-23T14:07:23Z</time>
      </trkpt>
      <trkpt lat="48.25078" lon="-0.65108">
        <ele>138</ele>
        <time>2012-03-23T14:07:25Z</time>
      </trkpt>
      <trkpt lat="48.25092" lon="-0.65105">
        <ele>136</ele>
        <time>2012-03-23T14:07:29Z</time>
      </trkpt>
      <trkpt lat="48.251" lon="-0.65103">
        <ele>135</ele>
        <time>2012-03-23T14:07:31Z</time>
      </trkpt>
      <trkpt lat="48.25114" lon="-0.65098">
        <ele>134</ele>
        <time>2012-03-23T14:07:35Z</time>
      </trkpt>
      <trkpt lat="48.25128" lon="-0.65096">
        <ele>134</ele>
        <time>2012-03-23T14:07:39Z</time>
      </trkpt>
      <trkpt lat="48.25135" lon="-0.65096">
        <ele>134</ele>
        <time>2012-03-23T14:07:41Z</time>
      </trkpt>
      <trkpt lat="48.2515" lon="-0.65096">
        <ele>136</ele>
        <time>2012-03-23T14:07:45Z</time>
      </trkpt>
      <trkpt lat="48.25162" lon="-0.65097">
        <ele>137</ele>
        <time>2012-03-23T14:07:49Z</time>
      </trkpt>
      <trkpt lat="48.25168" lon="-0.65096">
        <ele>137</ele>
        <time>2012-03-23T14:07:51Z</time>
      </trkpt>
      <trkpt lat="48.25181" lon="-0.65097">
        <ele>136</ele>
        <time>2012-03-23T14:07:55Z</time>
      </trkpt>
      <trkpt lat="48.25189" lon="-0.65097">
        <ele>135</ele>
        <time>2012-03-23T14:07:57Z</time>
      </trkpt>
      <trkpt lat="48.25204" lon="-0.65099">
        <ele>136</ele>
        <time>2012-03-23T14:08:01Z</time>
      </trkpt>
      <trkpt lat="48.25211" lon="-0.651">
        <ele>136</ele>
        <time>2012-03-23T14:08:03Z</time>
      </trkpt>
      <trkpt lat="48.25227" lon="-0.65101">
        <ele>135</ele>
        <time>2012-03-23T14:08:07Z</time>
      </trkpt>
      <trkpt lat="48.25243" lon="-0.65105">
        <ele>135</ele>
        <time>2012-03-23T14:08:11Z</time>
      </trkpt>
      <trkpt lat="48.2526" lon="-0.65108">
        <ele>135</ele>
        <time>2012-03-23T14:08:15Z</time>
      </trkpt>
      <trkpt lat="48.25276" lon="-0.65112">
        <ele>135</ele>
        <time>2012-03-23T14:08:19Z</time>
      </trkpt>
      <trkpt lat="48.25291" lon="-0.65115">
        <ele>135</ele>
        <time>2012-03-23T14:08:23Z</time>
      </trkpt>
      <trkpt lat="48.2531" lon="-0.65116">
        <ele>128</ele>
        <time>2012-03-23T14:08:29Z</time>
      </trkpt>
      <trkpt lat="48.25342" lon="-0.65117">
        <ele>126</ele>
        <time>2012-03-23T14:08:37Z</time>
      </trkpt>
      <trkpt lat="48.25359" lon="-0.65117">
        <ele>127</ele>
        <time>2012-03-23T14:08:41Z</time>
      </trkpt>
      <trkpt lat="48.25375" lon="-0.65117">
        <ele>129</ele>
        <time>2012-03-23T14:08:45Z</time>
      </trkpt>
      <trkpt lat="48.25392" lon="-0.65116">
        <ele>129</ele>
        <time>2012-03-23T14:08:49Z</time>
      </trkpt>
      <trkpt lat="48.25399" lon="-0.65115">
        <ele>128</ele>
        <time>2012-03-23T14:08:51Z</time>
      </trkpt>
      <trkpt lat="48.25415" lon="-0.65118">
        <ele>128</ele>
        <time>2012-03-23T14:08:55Z</time>
      </trkpt>
      <trkpt lat="48.25431" lon="-0.65122">
        <ele>129</ele>
        <time>2012-03-23T14:08:59Z</time>
      </trkpt>
      <trkpt lat="48.25446" lon="-0.65129">
        <ele>130</ele>
        <time>2012-03-23T14:09:03Z</time>
      </trkpt>
      <trkpt lat="48.25461" lon="-0.65136">
        <ele>135</ele>
        <time>2012-03-23T14:09:07Z</time>
      </trkpt>
      <trkpt lat="48.25478" lon="-0.65145">
        <ele>134</ele>
        <time>2012-03-23T14:09:11Z</time>
      </trkpt>
      <trkpt lat="48.25486" lon="-0.65151">
        <ele>134</ele>
        <time>2012-03-23T14:09:13Z</time>
      </trkpt>
      <trkpt lat="48.25501" lon="-0.65164">
        <ele>134</ele>
        <time>2012-03-23T14:09:17Z</time>
      </trkpt>
      <trkpt lat="48.25515" lon="-0.65177">
        <ele>135</ele>
        <time>2012-03-23T14:09:21Z</time>
      </trkpt>
      <trkpt lat="48.25527" lon="-0.65188">
        <ele>136</ele>
        <time>2012-03-23T14:09:25Z</time>
      </trkpt>
      <trkpt lat="48.2554" lon="-0.65202">
        <ele>136</ele>
        <time>2012-03-23T14:09:29Z</time>
      </trkpt>
      <trkpt lat="48.25555" lon="-0.65215">
        <ele>136</ele>
        <time>2012-03-23T14:09:33Z</time>
      </trkpt>
      <trkpt lat="48.2557" lon="-0.65225">
        <ele>136</ele>
        <time>2012-03-23T14:09:37Z</time>
      </trkpt>
      <trkpt lat="48.25586" lon="-0.65232">
        <ele>137</ele>
        <time>2012-03-23T14:09:41Z</time>
      </trkpt>
      <trkpt lat="48.25603" lon="-0.65238">
        <ele>136</ele>
        <time>2012-03-23T14:09:45Z</time>
      </trkpt>
      <trkpt lat="48.25619" lon="-0.65243">
        <ele>134</ele>
        <time>2012-03-23T14:09:49Z</time>
      </trkpt>
      <trkpt lat="48.25635" lon="-0.65245">
        <ele>133</ele>
        <time>2012-03-23T14:09:53Z</time>
      </trkpt>
      <trkpt lat="48.25652" lon="-0.65249">
        <ele>130</ele>
        <time>2012-03-23T14:09:57Z</time>
      </trkpt>
      <trkpt lat="48.25669" lon="-0.6525">
        <ele>129</ele>
        <time>2012-03-23T14:10:01Z</time>
      </trkpt>
      <trkpt lat="48.25686" lon="-0.65249">
        <ele>128</ele>
        <time>2012-03-23T14:10:05Z</time>
      </trkpt>
      <trkpt lat="48.25703" lon="-0.65249">
        <ele>128</ele>
        <time>2012-03-23T14:10:09Z</time>
      </trkpt>
      <trkpt lat="48.2572" lon="-0.6525">
        <ele>127</ele>
        <time>2012-03-23T14:10:13Z</time>
      </trkpt>
      <trkpt lat="48.25737" lon="-0.6525">
        <ele>126</ele>
        <time>2012-03-23T14:10:17Z</time>
      </trkpt>
      <trkpt lat="48.25753" lon="-0.65251">
        <ele>127</ele>
        <time>2012-03-23T14:10:21Z</time>
      </trkpt>
      <trkpt lat="48.25762" lon="-0.65251">
        <ele>128</ele>
        <time>2012-03-23T14:10:23Z</time>
      </trkpt>
      <trkpt lat="48.25779" lon="-0.65252">
        <ele>128</ele>
        <time>2012-03-23T14:10:27Z</time>
      </trkpt>
      <trkpt lat="48.25796" lon="-0.65254">
        <ele>128</ele>
        <time>2012-03-23T14:10:31Z</time>
      </trkpt>
      <trkpt lat="48.25814" lon="-0.65257">
        <ele>128</ele>
        <time>2012-03-23T14:10:35Z</time>
      </trkpt>
      <trkpt lat="48.25831" lon="-0.6526">
        <ele>129</ele>
        <time>2012-03-23T14:10:39Z</time>
      </trkpt>
      <trkpt lat="48.25839" lon="-0.65262">
        <ele>128</ele>
        <time>2012-03-23T14:10:41Z</time>
      </trkpt>
      <trkpt lat="48.25856" lon="-0.65264">
        <ele>129</ele>
        <time>2012-03-23T14:10:45Z</time>
      </trkpt>
      <trkpt lat="48.25874" lon="-0.65268">
        <ele>128</ele>
        <time>2012-03-23T14:10:49Z</time>
      </trkpt>
      <trkpt lat="48.259" lon="-0.65273">
        <ele>126</ele>
        <time>2012-03-23T14:10:55Z</time>
      </trkpt>
      <trkpt lat="48.25917" lon="-0.65275">
        <ele>125</ele>
        <time>2012-03-23T14:10:59Z</time>
      </trkpt>
      <trkpt lat="48.25925" lon="-0.65275">
        <ele>125</ele>
        <time>2012-03-23T14:11:01Z</time>
      </trkpt>
      <trkpt lat="48.25942" lon="-0.65272">
        <ele>127</ele>
        <time>2012-03-23T14:11:05Z</time>
      </trkpt>
      <trkpt lat="48.2596" lon="-0.6527">
        <ele>127</ele>
        <time>2012-03-23T14:11:09Z</time>
      </trkpt>
      <trkpt lat="48.25969" lon="-0.65269">
        <ele>127</ele>
        <time>2012-03-23T14:11:11Z</time>
      </trkpt>
      <trkpt lat="48.25986" lon="-0.65265">
        <ele>128</ele>
        <time>2012-03-23T14:11:15Z</time>
      </trkpt>
      <trkpt lat="48.26002" lon="-0.65262">
        <ele>129</ele>
        <time>2012-03-23T14:11:19Z</time>
      </trkpt>
      <trkpt lat="48.26019" lon="-0.65257">
        <ele>130</ele>
        <time>2012-03-23T14:11:23Z</time>
      </trkpt>
      <trkpt lat="48.26027" lon="-0.65255">
        <ele>129</ele>
        <time>2012-03-23T14:11:25Z</time>
      </trkpt>
      <trkpt lat="48.26043" lon="-0.65251">
        <ele>129</ele>
        <time>2012-03-23T14:11:29Z</time>
      </trkpt>
      <trkpt lat="48.26051" lon="-0.65248">
        <ele>129</ele>
        <time>2012-03-23T14:11:31Z</time>
      </trkpt>
      <trkpt lat="48.26067" lon="-0.65243">
        <ele>130</ele>
        <time>2012-03-23T14:11:35Z</time>
      </trkpt>
      <trkpt lat="48.26083" lon="-0.65237">
        <ele>130</ele>
        <time>2012-03-23T14:11:39Z</time>
      </trkpt>
      <trkpt lat="48.26091" lon="-0.65234">
        <ele>130</ele>
        <time>2012-03-23T14:11:41Z</time>
      </trkpt>
      <trkpt lat="48.26107" lon="-0.65229">
        <ele>131</ele>
        <time>2012-03-23T14:11:45Z</time>
      </trkpt>
      <trkpt lat="48.26123" lon="-0.65224">
        <ele>131</ele>
        <time>2012-03-23T14:11:49Z</time>
      </trkpt>
      <trkpt lat="48.26139" lon="-0.65219">
        <ele>131</ele>
        <time>2012-03-23T14:11:53Z</time>
      </trkpt>
      <trkpt lat="48.26147" lon="-0.65217">
        <ele>131</ele>
        <time>2012-03-23T14:11:55Z</time>
      </trkpt>
      <trkpt lat="48.26163" lon="-0.65213">
        <ele>131</ele>
        <time>2012-03-23T14:11:59Z</time>
      </trkpt>
      <trkpt lat="48.2618" lon="-0.65208">
        <ele>132</ele>
        <time>2012-03-23T14:12:03Z</time>
      </trkpt>
      <trkpt lat="48.26197" lon="-0.65204">
        <ele>131</ele>
        <time>2012-03-23T14:12:07Z</time>
      </trkpt>
      <trkpt lat="48.26205" lon="-0.65201">
        <ele>131</ele>
        <time>2012-03-23T14:12:09Z</time>
      </trkpt>
      <trkpt lat="48.26222" lon="-0.65196">
        <ele>131</ele>
        <time>2012-03-23T14:12:13Z</time>
      </trkpt>
      <trkpt lat="48.26239" lon="-0.65192">
        <ele>130</ele>
        <time>2012-03-23T14:12:17Z</time>
      </trkpt>
      <trkpt lat="48.26255" lon="-0.65186">
        <ele>129</ele>
        <time>2012-03-23T14:12:21Z</time>
      </trkpt>
      <trkpt lat="48.26271" lon="-0.65179">
        <ele>129</ele>
        <time>2012-03-23T14:12:25Z</time>
      </trkpt>
      <trkpt lat="48.26286" lon="-0.65171">
        <ele>129</ele>
        <time>2012-03-23T14:12:29Z</time>
      </trkpt>
      <trkpt lat="48.26302" lon="-0.65164">
        <ele>129</ele>
        <time>2012-03-23T14:12:33Z</time>
      </trkpt>
      <trkpt lat="48.26316" lon="-0.65156">
        <ele>129</ele>
        <time>2012-03-23T14:12:37Z</time>
      </trkpt>
      <trkpt lat="48.26332" lon="-0.65147">
        <ele>128</ele>
        <time>2012-03-23T14:12:41Z</time>
      </trkpt>
      <trkpt lat="48.26348" lon="-0.6514">
        <ele>128</ele>
        <time>2012-03-23T14:12:45Z</time>
      </trkpt>
      <trkpt lat="48.26363" lon="-0.65133">
        <ele>126</ele>
        <time>2012-03-23T14:12:49Z</time>
      </trkpt>
      <trkpt lat="48.26379" lon="-0.65125">
        <ele>125</ele>
        <time>2012-03-23T14:12:53Z</time>
      </trkpt>
      <trkpt lat="48.26395" lon="-0.65117">
        <ele>124</ele>
        <time>2012-03-23T14:12:57Z</time>
      </trkpt>
      <trkpt lat="48.26411" lon="-0.65108">
        <ele>124</ele>
        <time>2012-03-23T14:13:01Z</time>
      </trkpt>
      <trkpt lat="48.26426" lon="-0.651">
        <ele>124</ele>
        <time>2012-03-23T14:13:05Z</time>
      </trkpt>
      <trkpt lat="48.26441" lon="-0.65091">
        <ele>125</ele>
        <time>2012-03-23T14:13:09Z</time>
      </trkpt>
      <trkpt lat="48.26456" lon="-0.65083">
        <ele>126</ele>
        <time>2012-03-23T14:13:13Z</time>
      </trkpt>
      <trkpt lat="48.26471" lon="-0.65075">
        <ele>126</ele>
        <time>2012-03-23T14:13:17Z</time>
      </trkpt>
      <trkpt lat="48.26487" lon="-0.65067">
        <ele>126</ele>
        <time>2012-03-23T14:13:21Z</time>
      </trkpt>
      <trkpt lat="48.26502" lon="-0.65059">
        <ele>126</ele>
        <time>2012-03-23T14:13:25Z</time>
      </trkpt>
      <trkpt lat="48.26517" lon="-0.6505">
        <ele>126</ele>
        <time>2012-03-23T14:13:29Z</time>
      </trkpt>
      <trkpt lat="48.26525" lon="-0.65046">
        <ele>126</ele>
        <time>2012-03-23T14:13:31Z</time>
      </trkpt>
      <trkpt lat="48.26541" lon="-0.65037">
        <ele>126</ele>
        <time>2012-03-23T14:13:35Z</time>
      </trkpt>
      <trkpt lat="48.26556" lon="-0.65029">
        <ele>126</ele>
        <time>2012-03-23T14:13:39Z</time>
      </trkpt>
      <trkpt lat="48.26572" lon="-0.6502">
        <ele>126</ele>
        <time>2012-03-23T14:13:43Z</time>
      </trkpt>
      <trkpt lat="48.26588" lon="-0.65011">
        <ele>125</ele>
        <time>2012-03-23T14:13:47Z</time>
      </trkpt>
      <trkpt lat="48.26604" lon="-0.65002">
        <ele>126</ele>
        <time>2012-03-23T14:13:51Z</time>
      </trkpt>
      <trkpt lat="48.2662" lon="-0.64993">
        <ele>126</ele>
        <time>2012-03-23T14:13:55Z</time>
      </trkpt>
      <trkpt lat="48.26637" lon="-0.64985">
        <ele>126</ele>
        <time>2012-03-23T14:13:59Z</time>
      </trkpt>
      <trkpt lat="48.26653" lon="-0.64979">
        <ele>126</ele>
        <time>2012-03-23T14:14:03Z</time>
      </trkpt>
      <trkpt lat="48.2667" lon="-0.64973">
        <ele>127</ele>
        <time>2012-03-23T14:14:07Z</time>
      </trkpt>
      <trkpt lat="48.26686" lon="-0.64964">
        <ele>128</ele>
        <time>2012-03-23T14:14:11Z</time>
      </trkpt>
      <trkpt lat="48.26701" lon="-0.64954">
        <ele>128</ele>
        <time>2012-03-23T14:14:15Z</time>
      </trkpt>
      <trkpt lat="48.26709" lon="-0.64947">
        <ele>128</ele>
        <time>2012-03-23T14:14:17Z</time>
      </trkpt>
      <trkpt lat="48.26722" lon="-0.64933">
        <ele>129</ele>
        <time>2012-03-23T14:14:21Z</time>
      </trkpt>
      <trkpt lat="48.26734" lon="-0.64915">
        <ele>130</ele>
        <time>2012-03-23T14:14:25Z</time>
      </trkpt>
      <trkpt lat="48.26742" lon="-0.64894">
        <ele>130</ele>
        <time>2012-03-23T14:14:29Z</time>
      </trkpt>
      <trkpt lat="48.26749" lon="-0.64874">
        <ele>132</ele>
        <time>2012-03-23T14:14:33Z</time>
      </trkpt>
      <trkpt lat="48.26754" lon="-0.64853">
        <ele>133</ele>
        <time>2012-03-23T14:14:37Z</time>
      </trkpt>
      <trkpt lat="48.26759" lon="-0.64829">
        <ele>133</ele>
        <time>2012-03-23T14:14:41Z</time>
      </trkpt>
      <trkpt lat="48.26764" lon="-0.64805">
        <ele>134</ele>
        <time>2012-03-23T14:14:45Z</time>
      </trkpt>
      <trkpt lat="48.26769" lon="-0.64782">
        <ele>134</ele>
        <time>2012-03-23T14:14:49Z</time>
      </trkpt>
      <trkpt lat="48.26775" lon="-0.64757">
        <ele>134</ele>
        <time>2012-03-23T14:14:53Z</time>
      </trkpt>
      <trkpt lat="48.2678" lon="-0.64733">
        <ele>135</ele>
        <time>2012-03-23T14:14:57Z</time>
      </trkpt>
      <trkpt lat="48.26782" lon="-0.64721">
        <ele>134</ele>
        <time>2012-03-23T14:14:59Z</time>
      </trkpt>
      <trkpt lat="48.26785" lon="-0.64698">
        <ele>133</ele>
        <time>2012-03-23T14:15:03Z</time>
      </trkpt>
      <trkpt lat="48.26787" lon="-0.64688">
        <ele>132</ele>
        <time>2012-03-23T14:15:05Z</time>
      </trkpt>
      <trkpt lat="48.2679" lon="-0.64667">
        <ele>128</ele>
        <time>2012-03-23T14:15:09Z</time>
      </trkpt>
      <trkpt lat="48.2679" lon="-0.64656">
        <ele>128</ele>
        <time>2012-03-23T14:15:11Z</time>
      </trkpt>
      <trkpt lat="48.26791" lon="-0.64633">
        <ele>127</ele>
        <time>2012-03-23T14:15:15Z</time>
      </trkpt>
      <trkpt lat="48.26796" lon="-0.64589">
        <ele>125</ele>
        <time>2012-03-23T14:15:23Z</time>
      </trkpt>
      <trkpt lat="48.26798" lon="-0.6457">
        <ele>126</ele>
        <time>2012-03-23T14:15:27Z</time>
      </trkpt>
      <trkpt lat="48.26801" lon="-0.64553">
        <ele>127</ele>
        <time>2012-03-23T14:15:31Z</time>
      </trkpt>
      <trkpt lat="48.26802" lon="-0.64543">
        <ele>128</ele>
        <time>2012-03-23T14:15:33Z</time>
      </trkpt>
      <trkpt lat="48.26806" lon="-0.64523">
        <ele>128</ele>
        <time>2012-03-23T14:15:37Z</time>
      </trkpt>
      <trkpt lat="48.26809" lon="-0.64514">
        <ele>128</ele>
        <time>2012-03-23T14:15:39Z</time>
      </trkpt>
      <trkpt lat="48.26814" lon="-0.64494">
        <ele>127</ele>
        <time>2012-03-23T14:15:43Z</time>
      </trkpt>
      <trkpt lat="48.26817" lon="-0.64484">
        <ele>126</ele>
        <time>2012-03-23T14:15:45Z</time>
      </trkpt>
      <trkpt lat="48.26824" lon="-0.64457">
        <ele>125</ele>
        <time>2012-03-23T14:15:51Z</time>
      </trkpt>
      <trkpt lat="48.26827" lon="-0.64441">
        <ele>124</ele>
        <time>2012-03-23T14:15:55Z</time>
      </trkpt>
      <trkpt lat="48.26828" lon="-0.64425">
        <ele>117</ele>
        <time>2012-03-23T14:16:01Z</time>
      </trkpt>
      <trkpt lat="48.2683" lon="-0.64411">
        <ele>115</ele>
        <time>2012-03-23T14:16:11Z</time>
      </trkpt>
      <trkpt lat="48.2683" lon="-0.64411">
        <ele>115</ele>
        <time>2012-03-23T14:16:29Z</time>
      </trkpt>
      <trkpt lat="48.2683" lon="-0.64411">
        <ele>115</ele>
        <time>2012-03-23T14:16:48Z</time>
      </trkpt>
      <trkpt lat="48.26835" lon="-0.64403">
        <ele>121</ele>
        <time>2012-03-23T14:16:57Z</time>
      </trkpt>
      <trkpt lat="48.26838" lon="-0.64397">
        <ele>123</ele>
        <time>2012-03-23T14:16:59Z</time>
      </trkpt>
      <trkpt lat="48.26848" lon="-0.64372">
        <ele>128</ele>
        <time>2012-03-23T14:17:07Z</time>
      </trkpt>
      <trkpt lat="48.26851" lon="-0.64365">
        <ele>129</ele>
        <time>2012-03-23T14:17:09Z</time>
      </trkpt>
      <trkpt lat="48.26855" lon="-0.64357">
        <ele>130</ele>
        <time>2012-03-23T14:17:11Z</time>
      </trkpt>
      <trkpt lat="48.26862" lon="-0.64324">
        <ele>129</ele>
        <time>2012-03-23T14:17:19Z</time>
      </trkpt>
      <trkpt lat="48.26865" lon="-0.64305">
        <ele>128</ele>
        <time>2012-03-23T14:17:23Z</time>
      </trkpt>
      <trkpt lat="48.26869" lon="-0.64263">
        <ele>126</ele>
        <time>2012-03-23T14:17:31Z</time>
      </trkpt>
      <trkpt lat="48.26871" lon="-0.64229">
        <ele>124</ele>
        <time>2012-03-23T14:17:37Z</time>
      </trkpt>
      <trkpt lat="48.26872" lon="-0.64206">
        <ele>123</ele>
        <time>2012-03-23T14:17:41Z</time>
      </trkpt>
      <trkpt lat="48.26875" lon="-0.64187">
        <ele>120</ele>
        <time>2012-03-23T14:17:45Z</time>
      </trkpt>
      <trkpt lat="48.26881" lon="-0.64149">
        <ele>115</ele>
        <time>2012-03-23T14:17:53Z</time>
      </trkpt>
      <trkpt lat="48.2689" lon="-0.64099">
        <ele>118</ele>
        <time>2012-03-23T14:18:01Z</time>
      </trkpt>
      <trkpt lat="48.26892" lon="-0.64055">
        <ele>109</ele>
        <time>2012-03-23T14:18:07Z</time>
      </trkpt>
      <trkpt lat="48.26898" lon="-0.64016">
        <ele>106</ele>
        <time>2012-03-23T14:18:13Z</time>
      </trkpt>
      <trkpt lat="48.26903" lon="-0.6399">
        <ele>109</ele>
        <time>2012-03-23T14:18:17Z</time>
      </trkpt>
      <trkpt lat="48.26909" lon="-0.63953">
        <ele>106</ele>
        <time>2012-03-23T14:18:23Z</time>
      </trkpt>
      <trkpt lat="48.26918" lon="-0.63904">
        <ele>106</ele>
        <time>2012-03-23T14:18:31Z</time>
      </trkpt>
      <trkpt lat="48.26923" lon="-0.63877">
        <ele>106</ele>
        <time>2012-03-23T14:18:35Z</time>
      </trkpt>
      <trkpt lat="48.26934" lon="-0.63816">
        <ele>104</ele>
        <time>2012-03-23T14:18:45Z</time>
      </trkpt>
      <trkpt lat="48.26945" lon="-0.63778">
        <ele>107</ele>
        <time>2012-03-23T14:18:51Z</time>
      </trkpt>
      <trkpt lat="48.26952" lon="-0.63755">
        <ele>106</ele>
        <time>2012-03-23T14:18:55Z</time>
      </trkpt>
      <trkpt lat="48.2696" lon="-0.63734">
        <ele>106</ele>
        <time>2012-03-23T14:18:59Z</time>
      </trkpt>
      <trkpt lat="48.26966" lon="-0.63711">
        <ele>107</ele>
        <time>2012-03-23T14:19:03Z</time>
      </trkpt>
      <trkpt lat="48.2697" lon="-0.63688">
        <ele>102</ele>
        <time>2012-03-23T14:19:07Z</time>
      </trkpt>
      <trkpt lat="48.2698" lon="-0.63651">
        <ele>102</ele>
        <time>2012-03-23T14:19:13Z</time>
      </trkpt>
      <trkpt lat="48.26989" lon="-0.63627">
        <ele>104</ele>
        <time>2012-03-23T14:19:17Z</time>
      </trkpt>
      <trkpt lat="48.26996" lon="-0.63605">
        <ele>104</ele>
        <time>2012-03-23T14:19:21Z</time>
      </trkpt>
      <trkpt lat="48.27001" lon="-0.63579">
        <ele>103</ele>
        <time>2012-03-23T14:19:25Z</time>
      </trkpt>
      <trkpt lat="48.2701" lon="-0.63545">
        <ele>101</ele>
        <time>2012-03-23T14:19:31Z</time>
      </trkpt>
      <trkpt lat="48.27016" lon="-0.63521">
        <ele>102</ele>
        <time>2012-03-23T14:19:35Z</time>
      </trkpt>
      <trkpt lat="48.2702" lon="-0.63513">
        <ele>103</ele>
        <time>2012-03-23T14:19:37Z</time>
      </trkpt>
      <trkpt lat="48.2703" lon="-0.63478">
        <ele>110</ele>
        <time>2012-03-23T14:19:45Z</time>
      </trkpt>
      <trkpt lat="48.27039" lon="-0.63464">
        <ele>116</ele>
        <time>2012-03-23T14:19:49Z</time>
      </trkpt>
      <trkpt lat="48.27045" lon="-0.63452">
        <ele>118</ele>
        <time>2012-03-23T14:19:55Z</time>
      </trkpt>
      <trkpt lat="48.27049" lon="-0.63439">
        <ele>121</ele>
        <time>2012-03-23T14:20:01Z</time>
      </trkpt>
      <trkpt lat="48.27051" lon="-0.63435">
        <ele>120</ele>
        <time>2012-03-23T14:20:03Z</time>
      </trkpt>
      <trkpt lat="48.27054" lon="-0.63426">
        <ele>120</ele>
        <time>2012-03-23T14:20:07Z</time>
      </trkpt>
      <trkpt lat="48.27054" lon="-0.63426">
        <ele>120</ele>
        <time>2012-03-23T14:20:35Z</time>
      </trkpt>
      <trkpt lat="48.27054" lon="-0.63426">
        <ele>120</ele>
        <time>2012-03-23T14:20:55Z</time>
      </trkpt>
      <trkpt lat="48.27054" lon="-0.63426">
        <ele>120</ele>
        <time>2012-03-23T14:21:15Z</time>
      </trkpt>
      <trkpt lat="48.27054" lon="-0.63426">
        <ele>120</ele>
        <time>2012-03-23T14:21:35Z</time>
      </trkpt>
      <trkpt lat="48.27059" lon="-0.63419">
        <ele>123</ele>
        <time>2012-03-23T14:21:39Z</time>
      </trkpt>
      <trkpt lat="48.27064" lon="-0.63419">
        <ele>129</ele>
        <time>2012-03-23T14:21:41Z</time>
      </trkpt>
      <trkpt lat="48.27073" lon="-0.63399">
        <ele>130</ele>
        <time>2012-03-23T14:21:49Z</time>
      </trkpt>
      <trkpt lat="48.27077" lon="-0.63392">
        <ele>129</ele>
        <time>2012-03-23T14:21:51Z</time>
      </trkpt>
      <trkpt lat="48.27081" lon="-0.63385">
        <ele>129</ele>
        <time>2012-03-23T14:21:53Z</time>
      </trkpt>
      <trkpt lat="48.27097" lon="-0.63364">
        <ele>131</ele>
        <time>2012-03-23T14:21:59Z</time>
      </trkpt>
      <trkpt lat="48.27117" lon="-0.63329">
        <ele>130</ele>
        <time>2012-03-23T14:22:07Z</time>
      </trkpt>
      <trkpt lat="48.27125" lon="-0.63315">
        <ele>127</ele>
        <time>2012-03-23T14:22:11Z</time>
      </trkpt>
      <trkpt lat="48.27128" lon="-0.63308">
        <ele>127</ele>
        <time>2012-03-23T14:22:13Z</time>
      </trkpt>
      <trkpt lat="48.27137" lon="-0.63295">
        <ele>127</ele>
        <time>2012-03-23T14:22:17Z</time>
      </trkpt>
      <trkpt lat="48.27141" lon="-0.63291">
        <ele>125</ele>
        <time>2012-03-23T14:22:19Z</time>
      </trkpt>
      <trkpt lat="48.27155" lon="-0.63271">
        <ele>125</ele>
        <time>2012-03-23T14:22:25Z</time>
      </trkpt>
      <trkpt lat="48.2717" lon="-0.63249">
        <ele>125</ele>
        <time>2012-03-23T14:22:31Z</time>
      </trkpt>
      <trkpt lat="48.27181" lon="-0.63232">
        <ele>129</ele>
        <time>2012-03-23T14:22:35Z</time>
      </trkpt>
      <trkpt lat="48.27186" lon="-0.63223">
        <ele>129</ele>
        <time>2012-03-23T14:22:37Z</time>
      </trkpt>
      <trkpt lat="48.27196" lon="-0.63206">
        <ele>129</ele>
        <time>2012-03-23T14:22:41Z</time>
      </trkpt>
      <trkpt lat="48.27204" lon="-0.63191">
        <ele>131</ele>
        <time>2012-03-23T14:22:45Z</time>
      </trkpt>
      <trkpt lat="48.27207" lon="-0.63184">
        <ele>130</ele>
        <time>2012-03-23T14:22:47Z</time>
      </trkpt>
      <trkpt lat="48.27214" lon="-0.6317">
        <ele>132</ele>
        <time>2012-03-23T14:22:51Z</time>
      </trkpt>
      <trkpt lat="48.27217" lon="-0.63161">
        <ele>133</ele>
        <time>2012-03-23T14:22:53Z</time>
      </trkpt>
      <trkpt lat="48.27225" lon="-0.63142">
        <ele>133</ele>
        <time>2012-03-23T14:22:57Z</time>
      </trkpt>
      <trkpt lat="48.27227" lon="-0.63132">
        <ele>132</ele>
        <time>2012-03-23T14:22:59Z</time>
      </trkpt>
      <trkpt lat="48.27233" lon="-0.63114">
        <ele>131</ele>
        <time>2012-03-23T14:23:03Z</time>
      </trkpt>
      <trkpt lat="48.27236" lon="-0.63106">
        <ele>129</ele>
        <time>2012-03-23T14:23:05Z</time>
      </trkpt>
      <trkpt lat="48.27247" lon="-0.63077">
        <ele>128</ele>
        <time>2012-03-23T14:23:11Z</time>
      </trkpt>
      <trkpt lat="48.27264" lon="-0.63055">
        <ele>129</ele>
        <time>2012-03-23T14:23:17Z</time>
      </trkpt>
      <trkpt lat="48.27278" lon="-0.63043">
        <ele>131</ele>
        <time>2012-03-23T14:23:21Z</time>
      </trkpt>
      <trkpt lat="48.27284" lon="-0.63036">
        <ele>132</ele>
        <time>2012-03-23T14:23:23Z</time>
      </trkpt>
      <trkpt lat="48.27298" lon="-0.63023">
        <ele>136</ele>
        <time>2012-03-23T14:23:27Z</time>
      </trkpt>
      <trkpt lat="48.27312" lon="-0.6301">
        <ele>141</ele>
        <time>2012-03-23T14:23:31Z</time>
      </trkpt>
      <trkpt lat="48.27327" lon="-0.62999">
        <ele>146</ele>
        <time>2012-03-23T14:23:35Z</time>
      </trkpt>
      <trkpt lat="48.27347" lon="-0.62985">
        <ele>146</ele>
        <time>2012-03-23T14:23:41Z</time>
      </trkpt>
      <trkpt lat="48.2736" lon="-0.62979">
        <ele>145</ele>
        <time>2012-03-23T14:23:45Z</time>
      </trkpt>
      <trkpt lat="48.27366" lon="-0.62976">
        <ele>145</ele>
        <time>2012-03-23T14:23:47Z</time>
      </trkpt>
      <trkpt lat="48.27379" lon="-0.6297">
        <ele>144</ele>
        <time>2012-03-23T14:23:51Z</time>
      </trkpt>
      <trkpt lat="48.27385" lon="-0.62968">
        <ele>145</ele>
        <time>2012-03-23T14:23:53Z</time>
      </trkpt>
      <trkpt lat="48.27404" lon="-0.62961">
        <ele>145</ele>
        <time>2012-03-23T14:23:59Z</time>
      </trkpt>
      <trkpt lat="48.27425" lon="-0.62955">
        <ele>145</ele>
        <time>2012-03-23T14:24:05Z</time>
      </trkpt>
      <trkpt lat="48.27437" lon="-0.62951">
        <ele>144</ele>
        <time>2012-03-23T14:24:09Z</time>
      </trkpt>
      <trkpt lat="48.27444" lon="-0.62949">
        <ele>143</ele>
        <time>2012-03-23T14:24:11Z</time>
      </trkpt>
      <trkpt lat="48.27459" lon="-0.62945">
        <ele>141</ele>
        <time>2012-03-23T14:24:15Z</time>
      </trkpt>
      <trkpt lat="48.27467" lon="-0.62943">
        <ele>139</ele>
        <time>2012-03-23T14:24:17Z</time>
      </trkpt>
      <trkpt lat="48.27481" lon="-0.62939">
        <ele>138</ele>
        <time>2012-03-23T14:24:21Z</time>
      </trkpt>
      <trkpt lat="48.27489" lon="-0.62937">
        <ele>139</ele>
        <time>2012-03-23T14:24:23Z</time>
      </trkpt>
      <trkpt lat="48.27503" lon="-0.62934">
        <ele>139</ele>
        <time>2012-03-23T14:24:27Z</time>
      </trkpt>
      <trkpt lat="48.27519" lon="-0.62929">
        <ele>139</ele>
        <time>2012-03-23T14:24:31Z</time>
      </trkpt>
      <trkpt lat="48.27534" lon="-0.62925">
        <ele>139</ele>
        <time>2012-03-23T14:24:35Z</time>
      </trkpt>
      <trkpt lat="48.27547" lon="-0.62921">
        <ele>139</ele>
        <time>2012-03-23T14:24:39Z</time>
      </trkpt>
      <trkpt lat="48.27554" lon="-0.62919">
        <ele>138</ele>
        <time>2012-03-23T14:24:41Z</time>
      </trkpt>
      <trkpt lat="48.2757" lon="-0.62912">
        <ele>138</ele>
        <time>2012-03-23T14:24:45Z</time>
      </trkpt>
      <trkpt lat="48.27578" lon="-0.62909">
        <ele>138</ele>
        <time>2012-03-23T14:24:46Z</time>
      </trkpt>
      <trkpt lat="48.27585" lon="-0.62907">
        <ele>138</ele>
        <time>2012-03-23T14:24:48Z</time>
      </trkpt>
      <trkpt lat="48.276" lon="-0.62904">
        <ele>138</ele>
        <time>2012-03-23T14:24:52Z</time>
      </trkpt>
      <trkpt lat="48.27613" lon="-0.629">
        <ele>137</ele>
        <time>2012-03-23T14:24:56Z</time>
      </trkpt>
      <trkpt lat="48.27626" lon="-0.62895">
        <ele>137</ele>
        <time>2012-03-23T14:25:00Z</time>
      </trkpt>
      <trkpt lat="48.27633" lon="-0.62892">
        <ele>138</ele>
        <time>2012-03-23T14:25:02Z</time>
      </trkpt>
      <trkpt lat="48.27646" lon="-0.62888">
        <ele>138</ele>
        <time>2012-03-23T14:25:06Z</time>
      </trkpt>
      <trkpt lat="48.27653" lon="-0.62886">
        <ele>139</ele>
        <time>2012-03-23T14:25:08Z</time>
      </trkpt>
      <trkpt lat="48.27673" lon="-0.62881">
        <ele>139</ele>
        <time>2012-03-23T14:25:14Z</time>
      </trkpt>
      <trkpt lat="48.27694" lon="-0.62875">
        <ele>139</ele>
        <time>2012-03-23T14:25:20Z</time>
      </trkpt>
      <trkpt lat="48.27707" lon="-0.6287">
        <ele>137</ele>
        <time>2012-03-23T14:25:24Z</time>
      </trkpt>
      <trkpt lat="48.27712" lon="-0.6287">
        <ele>137</ele>
        <time>2012-03-23T14:25:26Z</time>
      </trkpt>
      <trkpt lat="48.27726" lon="-0.62869">
        <ele>137</ele>
        <time>2012-03-23T14:25:30Z</time>
      </trkpt>
      <trkpt lat="48.27731" lon="-0.62869">
        <ele>137</ele>
        <time>2012-03-23T14:25:32Z</time>
      </trkpt>
      <trkpt lat="48.27745" lon="-0.62866">
        <ele>137</ele>
        <time>2012-03-23T14:25:36Z</time>
      </trkpt>
      <trkpt lat="48.27751" lon="-0.62864">
        <ele>136</ele>
        <time>2012-03-23T14:25:38Z</time>
      </trkpt>
      <trkpt lat="48.27765" lon="-0.62858">
        <ele>135</ele>
        <time>2012-03-23T14:25:42Z</time>
      </trkpt>
      <trkpt lat="48.27772" lon="-0.62854">
        <ele>135</ele>
        <time>2012-03-23T14:25:44Z</time>
      </trkpt>
      <trkpt lat="48.27786" lon="-0.62848">
        <ele>135</ele>
        <time>2012-03-23T14:25:48Z</time>
      </trkpt>
      <trkpt lat="48.27793" lon="-0.62846">
        <ele>135</ele>
        <time>2012-03-23T14:25:50Z</time>
      </trkpt>
      <trkpt lat="48.27807" lon="-0.62842">
        <ele>135</ele>
        <time>2012-03-23T14:25:54Z</time>
      </trkpt>
      <trkpt lat="48.27821" lon="-0.62839">
        <ele>138</ele>
        <time>2012-03-23T14:25:58Z</time>
      </trkpt>
      <trkpt lat="48.27835" lon="-0.62837">
        <ele>139</ele>
        <time>2012-03-23T14:26:02Z</time>
      </trkpt>
      <trkpt lat="48.27841" lon="-0.62836">
        <ele>140</ele>
        <time>2012-03-23T14:26:04Z</time>
      </trkpt>
      <trkpt lat="48.27854" lon="-0.62834">
        <ele>140</ele>
        <time>2012-03-23T14:26:08Z</time>
      </trkpt>
      <trkpt lat="48.27858" lon="-0.62833">
        <ele>140</ele>
        <time>2012-03-23T14:26:10Z</time>
      </trkpt>
      <trkpt lat="48.27866" lon="-0.62833">
        <ele>140</ele>
        <time>2012-03-23T14:26:14Z</time>
      </trkpt>
      <trkpt lat="48.27874" lon="-0.62836">
        <ele>141</ele>
        <time>2012-03-23T14:26:18Z</time>
      </trkpt>
      <trkpt lat="48.27886" lon="-0.62842">
        <ele>141</ele>
        <time>2012-03-23T14:26:24Z</time>
      </trkpt>
      <trkpt lat="48.2789" lon="-0.62844">
        <ele>141</ele>
        <time>2012-03-23T14:26:26Z</time>
      </trkpt>
      <trkpt lat="48.27894" lon="-0.62846">
        <ele>141</ele>
        <time>2012-03-23T14:26:28Z</time>
      </trkpt>
      <trkpt lat="48.27906" lon="-0.62849">
        <ele>140</ele>
        <time>2012-03-23T14:26:34Z</time>
      </trkpt>
      <trkpt lat="48.27918" lon="-0.62849">
        <ele>140</ele>
        <time>2012-03-23T14:26:40Z</time>
      </trkpt>
      <trkpt lat="48.2793" lon="-0.62842">
        <ele>140</ele>
        <time>2012-03-23T14:26:46Z</time>
      </trkpt>
      <trkpt lat="48.27945" lon="-0.62843">
        <ele>140</ele>
        <time>2012-03-23T14:26:52Z</time>
      </trkpt>
      <trkpt lat="48.2795" lon="-0.62845">
        <ele>139</ele>
        <time>2012-03-23T14:26:54Z</time>
      </trkpt>
      <trkpt lat="48.27955" lon="-0.62846">
        <ele>139</ele>
        <time>2012-03-23T14:26:56Z</time>
      </trkpt>
      <trkpt lat="48.27966" lon="-0.62849">
        <ele>139</ele>
        <time>2012-03-23T14:27:00Z</time>
      </trkpt>
      <trkpt lat="48.27972" lon="-0.6285">
        <ele>139</ele>
        <time>2012-03-23T14:27:02Z</time>
      </trkpt>
      <trkpt lat="48.27984" lon="-0.62854">
        <ele>139</ele>
        <time>2012-03-23T14:27:06Z</time>
      </trkpt>
      <trkpt lat="48.2799" lon="-0.62857">
        <ele>139</ele>
        <time>2012-03-23T14:27:08Z</time>
      </trkpt>
      <trkpt lat="48.28003" lon="-0.62863">
        <ele>139</ele>
        <time>2012-03-23T14:27:12Z</time>
      </trkpt>
      <trkpt lat="48.28009" lon="-0.62865">
        <ele>139</ele>
        <time>2012-03-23T14:27:14Z</time>
      </trkpt>
      <trkpt lat="48.28021" lon="-0.6287">
        <ele>139</ele>
        <time>2012-03-23T14:27:18Z</time>
      </trkpt>
      <trkpt lat="48.28027" lon="-0.62872">
        <ele>139</ele>
        <time>2012-03-23T14:27:20Z</time>
      </trkpt>
      <trkpt lat="48.2804" lon="-0.62875">
        <ele>139</ele>
        <time>2012-03-23T14:27:24Z</time>
      </trkpt>
      <trkpt lat="48.28048" lon="-0.62877">
        <ele>139</ele>
        <time>2012-03-23T14:27:26Z</time>
      </trkpt>
      <trkpt lat="48.28062" lon="-0.6288">
        <ele>139</ele>
        <time>2012-03-23T14:27:30Z</time>
      </trkpt>
      <trkpt lat="48.28069" lon="-0.62881">
        <ele>139</ele>
        <time>2012-03-23T14:27:32Z</time>
      </trkpt>
      <trkpt lat="48.28082" lon="-0.62883">
        <ele>139</ele>
        <time>2012-03-23T14:27:36Z</time>
      </trkpt>
      <trkpt lat="48.28094" lon="-0.62885">
        <ele>139</ele>
        <time>2012-03-23T14:27:40Z</time>
      </trkpt>
      <trkpt lat="48.28101" lon="-0.62885">
        <ele>139</ele>
        <time>2012-03-23T14:27:42Z</time>
      </trkpt>
      <trkpt lat="48.28115" lon="-0.62887">
        <ele>139</ele>
        <time>2012-03-23T14:27:46Z</time>
      </trkpt>
      <trkpt lat="48.28123" lon="-0.62888">
        <ele>139</ele>
        <time>2012-03-23T14:27:48Z</time>
      </trkpt>
      <trkpt lat="48.28143" lon="-0.62892">
        <ele>138</ele>
        <time>2012-03-23T14:27:54Z</time>
      </trkpt>
      <trkpt lat="48.28156" lon="-0.62895">
        <ele>138</ele>
        <time>2012-03-23T14:27:58Z</time>
      </trkpt>
      <trkpt lat="48.28161" lon="-0.62897">
        <ele>137</ele>
        <time>2012-03-23T14:28:00Z</time>
      </trkpt>
      <trkpt lat="48.28179" lon="-0.62897">
        <ele>135</ele>
        <time>2012-03-23T14:28:08Z</time>
      </trkpt>
      <trkpt lat="48.28194" lon="-0.6289">
        <ele>133</ele>
        <time>2012-03-23T14:28:12Z</time>
      </trkpt>
      <trkpt lat="48.28201" lon="-0.62889">
        <ele>133</ele>
        <time>2012-03-23T14:28:14Z</time>
      </trkpt>
      <trkpt lat="48.28215" lon="-0.62888">
        <ele>134</ele>
        <time>2012-03-23T14:28:18Z</time>
      </trkpt>
      <trkpt lat="48.28229" lon="-0.62887">
        <ele>134</ele>
        <time>2012-03-23T14:28:22Z</time>
      </trkpt>
      <trkpt lat="48.28236" lon="-0.62887">
        <ele>134</ele>
        <time>2012-03-23T14:28:24Z</time>
      </trkpt>
      <trkpt lat="48.2825" lon="-0.62888">
        <ele>134</ele>
        <time>2012-03-23T14:28:28Z</time>
      </trkpt>
      <trkpt lat="48.28257" lon="-0.62887">
        <ele>134</ele>
        <time>2012-03-23T14:28:30Z</time>
      </trkpt>
      <trkpt lat="48.2827" lon="-0.62887">
        <ele>135</ele>
        <time>2012-03-23T14:28:34Z</time>
      </trkpt>
      <trkpt lat="48.28277" lon="-0.62887">
        <ele>135</ele>
        <time>2012-03-23T14:28:36Z</time>
      </trkpt>
      <trkpt lat="48.28291" lon="-0.62888">
        <ele>135</ele>
        <time>2012-03-23T14:28:40Z</time>
      </trkpt>
      <trkpt lat="48.28297" lon="-0.62888">
        <ele>135</ele>
        <time>2012-03-23T14:28:42Z</time>
      </trkpt>
      <trkpt lat="48.28311" lon="-0.62888">
        <ele>136</ele>
        <time>2012-03-23T14:28:46Z</time>
      </trkpt>
      <trkpt lat="48.28317" lon="-0.62888">
        <ele>136</ele>
        <time>2012-03-23T14:28:48Z</time>
      </trkpt>
      <trkpt lat="48.28329" lon="-0.62889">
        <ele>137</ele>
        <time>2012-03-23T14:28:52Z</time>
      </trkpt>
      <trkpt lat="48.28335" lon="-0.6289">
        <ele>138</ele>
        <time>2012-03-23T14:28:54Z</time>
      </trkpt>
      <trkpt lat="48.28347" lon="-0.62891">
        <ele>138</ele>
        <time>2012-03-23T14:28:58Z</time>
      </trkpt>
      <trkpt lat="48.28352" lon="-0.62892">
        <ele>139</ele>
        <time>2012-03-23T14:29:00Z</time>
      </trkpt>
      <trkpt lat="48.28362" lon="-0.62895">
        <ele>138</ele>
        <time>2012-03-23T14:29:04Z</time>
      </trkpt>
      <trkpt lat="48.28373" lon="-0.62896">
        <ele>139</ele>
        <time>2012-03-23T14:29:10Z</time>
      </trkpt>
      <trkpt lat="48.28373" lon="-0.62896">
        <ele>139</ele>
        <time>2012-03-23T14:29:26Z</time>
      </trkpt>
      <trkpt lat="48.28373" lon="-0.62896">
        <ele>139</ele>
        <time>2012-03-23T14:29:42Z</time>
      </trkpt>
      <trkpt lat="48.28373" lon="-0.62889">
        <ele>140</ele>
        <time>2012-03-23T14:29:48Z</time>
      </trkpt>
      <trkpt lat="48.28372" lon="-0.62884">
        <ele>141</ele>
        <time>2012-03-23T14:29:50Z</time>
      </trkpt>
      <trkpt lat="48.28376" lon="-0.62865">
        <ele>138</ele>
        <time>2012-03-23T14:30:02Z</time>
      </trkpt>
      <trkpt lat="48.2838" lon="-0.62856">
        <ele>138</ele>
        <time>2012-03-23T14:30:08Z</time>
      </trkpt>
      <trkpt lat="48.28384" lon="-0.6285">
        <ele>138</ele>
        <time>2012-03-23T14:30:12Z</time>
      </trkpt>
      <trkpt lat="48.28388" lon="-0.62842">
        <ele>140</ele>
        <time>2012-03-23T14:30:16Z</time>
      </trkpt>
      <trkpt lat="48.2839" lon="-0.62836">
        <ele>140</ele>
        <time>2012-03-23T14:30:20Z</time>
      </trkpt>
      <trkpt lat="48.28393" lon="-0.6283">
        <ele>139</ele>
        <time>2012-03-23T14:30:24Z</time>
      </trkpt>
      <trkpt lat="48.28397" lon="-0.62824">
        <ele>140</ele>
        <time>2012-03-23T14:30:28Z</time>
      </trkpt>
      <trkpt lat="48.28402" lon="-0.62817">
        <ele>139</ele>
        <time>2012-03-23T14:30:32Z</time>
      </trkpt>
      <trkpt lat="48.28405" lon="-0.62812">
        <ele>137</ele>
        <time>2012-03-23T14:30:34Z</time>
      </trkpt>
      <trkpt lat="48.28408" lon="-0.62808">
        <ele>136</ele>
        <time>2012-03-23T14:30:36Z</time>
      </trkpt>
      <trkpt lat="48.2841" lon="-0.62801">
        <ele>137</ele>
        <time>2012-03-23T14:30:42Z</time>
      </trkpt>
      <trkpt lat="48.2841" lon="-0.62787">
        <ele>141</ele>
        <time>2012-03-23T14:30:50Z</time>
      </trkpt>
      <trkpt lat="48.28409" lon="-0.62779">
        <ele>142</ele>
        <time>2012-03-23T14:30:54Z</time>
      </trkpt>
      <trkpt lat="48.28409" lon="-0.62776">
        <ele>143</ele>
        <time>2012-03-23T14:30:56Z</time>
      </trkpt>
      <trkpt lat="48.28409" lon="-0.62764">
        <ele>146</ele>
        <time>2012-03-23T14:31:06Z</time>
      </trkpt>
      <trkpt lat="48.28411" lon="-0.62756">
        <ele>150</ele>
        <time>2012-03-23T14:31:20Z</time>
      </trkpt>
      <trkpt lat="48.28413" lon="-0.62748">
        <ele>151</ele>
        <time>2012-03-23T14:31:24Z</time>
      </trkpt>
      <trkpt lat="48.28425" lon="-0.6274">
        <ele>153</ele>
        <time>2012-03-23T14:31:34Z</time>
      </trkpt>
      <trkpt lat="48.28435" lon="-0.62735">
        <ele>152</ele>
        <time>2012-03-23T14:31:38Z</time>
      </trkpt>
      <trkpt lat="48.2844" lon="-0.62731">
        <ele>152</ele>
        <time>2012-03-23T14:31:40Z</time>
      </trkpt>
      <trkpt lat="48.28445" lon="-0.62727">
        <ele>151</ele>
        <time>2012-03-23T14:31:42Z</time>
      </trkpt>
      <trkpt lat="48.2845" lon="-0.62722">
        <ele>150</ele>
        <time>2012-03-23T14:31:44Z</time>
      </trkpt>
      <trkpt lat="48.28457" lon="-0.62713">
        <ele>148</ele>
        <time>2012-03-23T14:31:48Z</time>
      </trkpt>
      <trkpt lat="48.28461" lon="-0.62707">
        <ele>148</ele>
        <time>2012-03-23T14:31:50Z</time>
      </trkpt>
      <trkpt lat="48.28467" lon="-0.62695">
        <ele>147</ele>
        <time>2012-03-23T14:31:54Z</time>
      </trkpt>
      <trkpt lat="48.28471" lon="-0.62688">
        <ele>147</ele>
        <time>2012-03-23T14:31:56Z</time>
      </trkpt>
      <trkpt lat="48.28477" lon="-0.62675">
        <ele>147</ele>
        <time>2012-03-23T14:32:00Z</time>
      </trkpt>
      <trkpt lat="48.2848" lon="-0.62668">
        <ele>148</ele>
        <time>2012-03-23T14:32:02Z</time>
      </trkpt>
      <trkpt lat="48.28484" lon="-0.62661">
        <ele>149</ele>
        <time>2012-03-23T14:32:04Z</time>
      </trkpt>
      <trkpt lat="48.2849" lon="-0.62647">
        <ele>148</ele>
        <time>2012-03-23T14:32:08Z</time>
      </trkpt>
      <trkpt lat="48.28503" lon="-0.62621">
        <ele>147</ele>
        <time>2012-03-23T14:32:16Z</time>
      </trkpt>
      <trkpt lat="48.2851" lon="-0.62608">
        <ele>147</ele>
        <time>2012-03-23T14:32:20Z</time>
      </trkpt>
      <trkpt lat="48.28513" lon="-0.62602">
        <ele>147</ele>
        <time>2012-03-23T14:32:22Z</time>
      </trkpt>
      <trkpt lat="48.28517" lon="-0.62595">
        <ele>146</ele>
        <time>2012-03-23T14:32:24Z</time>
      </trkpt>
      <trkpt lat="48.28527" lon="-0.62577">
        <ele>145</ele>
        <time>2012-03-23T14:32:30Z</time>
      </trkpt>
      <trkpt lat="48.28534" lon="-0.62565">
        <ele>146</ele>
        <time>2012-03-23T14:32:34Z</time>
      </trkpt>
      <trkpt lat="48.28538" lon="-0.62558">
        <ele>146</ele>
        <time>2012-03-23T14:32:36Z</time>
      </trkpt>
      <trkpt lat="48.28544" lon="-0.62545">
        <ele>147</ele>
        <time>2012-03-23T14:32:40Z</time>
      </trkpt>
      <trkpt lat="48.28547" lon="-0.62539">
        <ele>148</ele>
        <time>2012-03-23T14:32:42Z</time>
      </trkpt>
      <trkpt lat="48.28552" lon="-0.62528">
        <ele>150</ele>
        <time>2012-03-23T14:32:46Z</time>
      </trkpt>
      <trkpt lat="48.28557" lon="-0.62517">
        <ele>151</ele>
        <time>2012-03-23T14:32:50Z</time>
      </trkpt>
      <trkpt lat="48.28565" lon="-0.62501">
        <ele>152</ele>
        <time>2012-03-23T14:32:56Z</time>
      </trkpt>
      <trkpt lat="48.28567" lon="-0.62496">
        <ele>152</ele>
        <time>2012-03-23T14:32:58Z</time>
      </trkpt>
      <trkpt lat="48.28573" lon="-0.62485">
        <ele>153</ele>
        <time>2012-03-23T14:33:02Z</time>
      </trkpt>
      <trkpt lat="48.28575" lon="-0.6248">
        <ele>152</ele>
        <time>2012-03-23T14:33:04Z</time>
      </trkpt>
      <trkpt lat="48.28578" lon="-0.62474">
        <ele>153</ele>
        <time>2012-03-23T14:33:06Z</time>
      </trkpt>
      <trkpt lat="48.28582" lon="-0.62464">
        <ele>153</ele>
        <time>2012-03-23T14:33:10Z</time>
      </trkpt>
      <trkpt lat="48.28585" lon="-0.62459">
        <ele>153</ele>
        <time>2012-03-23T14:33:12Z</time>
      </trkpt>
      <trkpt lat="48.28588" lon="-0.62454">
        <ele>153</ele>
        <time>2012-03-23T14:33:14Z</time>
      </trkpt>
      <trkpt lat="48.2859" lon="-0.62449">
        <ele>153</ele>
        <time>2012-03-23T14:33:16Z</time>
      </trkpt>
      <trkpt lat="48.28595" lon="-0.62439">
        <ele>153</ele>
        <time>2012-03-23T14:33:20Z</time>
      </trkpt>
      <trkpt lat="48.28598" lon="-0.62434">
        <ele>154</ele>
        <time>2012-03-23T14:33:22Z</time>
      </trkpt>
      <trkpt lat="48.28601" lon="-0.6243">
        <ele>154</ele>
        <time>2012-03-23T14:33:24Z</time>
      </trkpt>
      <trkpt lat="48.28608" lon="-0.62416">
        <ele>155</ele>
        <time>2012-03-23T14:33:30Z</time>
      </trkpt>
      <trkpt lat="48.2861" lon="-0.62411">
        <ele>156</ele>
        <time>2012-03-23T14:33:32Z</time>
      </trkpt>
      <trkpt lat="48.28615" lon="-0.62396">
        <ele>156</ele>
        <time>2012-03-23T14:33:38Z</time>
      </trkpt>
      <trkpt lat="48.28615" lon="-0.62384">
        <ele>157</ele>
        <time>2012-03-23T14:33:42Z</time>
      </trkpt>
      <trkpt lat="48.28609" lon="-0.6237">
        <ele>157</ele>
        <time>2012-03-23T14:33:48Z</time>
      </trkpt>
      <trkpt lat="48.28605" lon="-0.62361">
        <ele>158</ele>
        <time>2012-03-23T14:33:52Z</time>
      </trkpt>
      <trkpt lat="48.286" lon="-0.62351">
        <ele>158</ele>
        <time>2012-03-23T14:33:56Z</time>
      </trkpt>
      <trkpt lat="48.28598" lon="-0.62346">
        <ele>158</ele>
        <time>2012-03-23T14:33:58Z</time>
      </trkpt>
      <trkpt lat="48.28592" lon="-0.62338">
        <ele>158</ele>
        <time>2012-03-23T14:34:02Z</time>
      </trkpt>
      <trkpt lat="48.28586" lon="-0.6233">
        <ele>159</ele>
        <time>2012-03-23T14:34:06Z</time>
      </trkpt>
      <trkpt lat="48.28584" lon="-0.62327">
        <ele>159</ele>
        <time>2012-03-23T14:34:08Z</time>
      </trkpt>
      <trkpt lat="48.28575" lon="-0.62323">
        <ele>159</ele>
        <time>2012-03-23T14:34:14Z</time>
      </trkpt>
      <trkpt lat="48.28571" lon="-0.62323">
        <ele>160</ele>
        <time>2012-03-23T14:34:18Z</time>
      </trkpt>
      <trkpt lat="48.28567" lon="-0.62324">
        <ele>161</ele>
        <time>2012-03-23T14:34:26Z</time>
      </trkpt>
      <trkpt lat="48.28563" lon="-0.62317">
        <ele>162</ele>
        <time>2012-03-23T14:34:36Z</time>
      </trkpt>
      <trkpt lat="48.2856" lon="-0.62309">
        <ele>162</ele>
        <time>2012-03-23T14:34:40Z</time>
      </trkpt>
      <trkpt lat="48.28558" lon="-0.62297">
        <ele>163</ele>
        <time>2012-03-23T14:34:46Z</time>
      </trkpt>
      <trkpt lat="48.28562" lon="-0.62291">
        <ele>163</ele>
        <time>2012-03-23T14:34:52Z</time>
      </trkpt>
      <trkpt lat="48.28565" lon="-0.62275">
        <ele>163</ele>
        <time>2012-03-23T14:34:58Z</time>
      </trkpt>
      <trkpt lat="48.28567" lon="-0.62271">
        <ele>162</ele>
        <time>2012-03-23T14:35:00Z</time>
      </trkpt>
      <trkpt lat="48.28568" lon="-0.62265">
        <ele>162</ele>
        <time>2012-03-23T14:35:02Z</time>
      </trkpt>
      <trkpt lat="48.28569" lon="-0.62259">
        <ele>162</ele>
        <time>2012-03-23T14:35:04Z</time>
      </trkpt>
      <trkpt lat="48.2857" lon="-0.62254">
        <ele>162</ele>
        <time>2012-03-23T14:35:06Z</time>
      </trkpt>
      <trkpt lat="48.28571" lon="-0.6224">
        <ele>161</ele>
        <time>2012-03-23T14:35:10Z</time>
      </trkpt>
      <trkpt lat="48.28572" lon="-0.62233">
        <ele>162</ele>
        <time>2012-03-23T14:35:12Z</time>
      </trkpt>
      <trkpt lat="48.28573" lon="-0.62226">
        <ele>162</ele>
        <time>2012-03-23T14:35:14Z</time>
      </trkpt>
      <trkpt lat="48.28573" lon="-0.62206">
        <ele>162</ele>
        <time>2012-03-23T14:35:20Z</time>
      </trkpt>
      <trkpt lat="48.28572" lon="-0.62199">
        <ele>163</ele>
        <time>2012-03-23T14:35:22Z</time>
      </trkpt>
      <trkpt lat="48.28572" lon="-0.62186">
        <ele>164</ele>
        <time>2012-03-23T14:35:26Z</time>
      </trkpt>
      <trkpt lat="48.28572" lon="-0.62179">
        <ele>164</ele>
        <time>2012-03-23T14:35:28Z</time>
      </trkpt>
      <trkpt lat="48.28572" lon="-0.62172">
        <ele>164</ele>
        <time>2012-03-23T14:35:30Z</time>
      </trkpt>
      <trkpt lat="48.28571" lon="-0.62158">
        <ele>164</ele>
        <time>2012-03-23T14:35:34Z</time>
      </trkpt>
      <trkpt lat="48.28571" lon="-0.62152">
        <ele>164</ele>
        <time>2012-03-23T14:35:36Z</time>
      </trkpt>
      <trkpt lat="48.2857" lon="-0.62145">
        <ele>164</ele>
        <time>2012-03-23T14:35:38Z</time>
      </trkpt>
      <trkpt lat="48.2857" lon="-0.62121">
        <ele>163</ele>
        <time>2012-03-23T14:35:46Z</time>
      </trkpt>
      <trkpt lat="48.2857" lon="-0.62107">
        <ele>165</ele>
        <time>2012-03-23T14:35:50Z</time>
      </trkpt>
      <trkpt lat="48.2857" lon="-0.621">
        <ele>165</ele>
        <time>2012-03-23T14:35:52Z</time>
      </trkpt>
      <trkpt lat="48.2857" lon="-0.62093">
        <ele>166</ele>
        <time>2012-03-23T14:35:54Z</time>
      </trkpt>
      <trkpt lat="48.28569" lon="-0.62079">
        <ele>166</ele>
        <time>2012-03-23T14:35:58Z</time>
      </trkpt>
      <trkpt lat="48.28569" lon="-0.62072">
        <ele>167</ele>
        <time>2012-03-23T14:36:00Z</time>
      </trkpt>
      <trkpt lat="48.28569" lon="-0.62065">
        <ele>168</ele>
        <time>2012-03-23T14:36:02Z</time>
      </trkpt>
      <trkpt lat="48.28569" lon="-0.6205">
        <ele>168</ele>
        <time>2012-03-23T14:36:06Z</time>
      </trkpt>
      <trkpt lat="48.28569" lon="-0.62043">
        <ele>169</ele>
        <time>2012-03-23T14:36:08Z</time>
      </trkpt>
      <trkpt lat="48.28569" lon="-0.62036">
        <ele>169</ele>
        <time>2012-03-23T14:36:10Z</time>
      </trkpt>
      <trkpt lat="48.28568" lon="-0.62022">
        <ele>169</ele>
        <time>2012-03-23T14:36:14Z</time>
      </trkpt>
      <trkpt lat="48.28568" lon="-0.62015">
        <ele>169</ele>
        <time>2012-03-23T14:36:16Z</time>
      </trkpt>
      <trkpt lat="48.28568" lon="-0.62008">
        <ele>169</ele>
        <time>2012-03-23T14:36:18Z</time>
      </trkpt>
      <trkpt lat="48.28568" lon="-0.61988">
        <ele>169</ele>
        <time>2012-03-23T14:36:24Z</time>
      </trkpt>
      <trkpt lat="48.28568" lon="-0.61981">
        <ele>170</ele>
        <time>2012-03-23T14:36:26Z</time>
      </trkpt>
      <trkpt lat="48.28568" lon="-0.61966">
        <ele>170</ele>
        <time>2012-03-23T14:36:30Z</time>
      </trkpt>
      <trkpt lat="48.28568" lon="-0.61959">
        <ele>170</ele>
        <time>2012-03-23T14:36:32Z</time>
      </trkpt>
      <trkpt lat="48.28568" lon="-0.61953">
        <ele>170</ele>
        <time>2012-03-23T14:36:34Z</time>
      </trkpt>
      <trkpt lat="48.28567" lon="-0.61932">
        <ele>171</ele>
        <time>2012-03-23T14:36:40Z</time>
      </trkpt>
      <trkpt lat="48.28566" lon="-0.61925">
        <ele>171</ele>
        <time>2012-03-23T14:36:42Z</time>
      </trkpt>
      <trkpt lat="48.28565" lon="-0.6191">
        <ele>171</ele>
        <time>2012-03-23T14:36:46Z</time>
      </trkpt>
      <trkpt lat="48.28565" lon="-0.61894">
        <ele>172</ele>
        <time>2012-03-23T14:36:50Z</time>
      </trkpt>
      <trkpt lat="48.28565" lon="-0.61879">
        <ele>172</ele>
        <time>2012-03-23T14:36:54Z</time>
      </trkpt>
      <trkpt lat="48.28565" lon="-0.61872">
        <ele>173</ele>
        <time>2012-03-23T14:36:56Z</time>
      </trkpt>
      <trkpt lat="48.28565" lon="-0.61865">
        <ele>173</ele>
        <time>2012-03-23T14:36:58Z</time>
      </trkpt>
      <trkpt lat="48.28565" lon="-0.61851">
        <ele>173</ele>
        <time>2012-03-23T14:37:02Z</time>
      </trkpt>
      <trkpt lat="48.28565" lon="-0.61844">
        <ele>173</ele>
        <time>2012-03-23T14:37:04Z</time>
      </trkpt>
      <trkpt lat="48.28565" lon="-0.61836">
        <ele>173</ele>
        <time>2012-03-23T14:37:06Z</time>
      </trkpt>
      <trkpt lat="48.28565" lon="-0.6182">
        <ele>174</ele>
        <time>2012-03-23T14:37:10Z</time>
      </trkpt>
      <trkpt lat="48.28564" lon="-0.61813">
        <ele>174</ele>
        <time>2012-03-23T14:37:12Z</time>
      </trkpt>
      <trkpt lat="48.28564" lon="-0.61807">
        <ele>174</ele>
        <time>2012-03-23T14:37:14Z</time>
      </trkpt>
      <trkpt lat="48.28564" lon="-0.61792">
        <ele>174</ele>
        <time>2012-03-23T14:37:18Z</time>
      </trkpt>
      <trkpt lat="48.28565" lon="-0.61785">
        <ele>174</ele>
        <time>2012-03-23T14:37:20Z</time>
      </trkpt>
      <trkpt lat="48.28565" lon="-0.61778">
        <ele>174</ele>
        <time>2012-03-23T14:37:22Z</time>
      </trkpt>
      <trkpt lat="48.28566" lon="-0.61762">
        <ele>174</ele>
        <time>2012-03-23T14:37:26Z</time>
      </trkpt>
      <trkpt lat="48.28567" lon="-0.61755">
        <ele>174</ele>
        <time>2012-03-23T14:37:28Z</time>
      </trkpt>
      <trkpt lat="48.28567" lon="-0.61747">
        <ele>175</ele>
        <time>2012-03-23T14:37:30Z</time>
      </trkpt>
      <trkpt lat="48.28568" lon="-0.61723">
        <ele>175</ele>
        <time>2012-03-23T14:37:36Z</time>
      </trkpt>
      <trkpt lat="48.28567" lon="-0.61711">
        <ele>176</ele>
        <time>2012-03-23T14:37:40Z</time>
      </trkpt>
      <trkpt lat="48.28567" lon="-0.61706">
        <ele>176</ele>
        <time>2012-03-23T14:37:42Z</time>
      </trkpt>
      <trkpt lat="48.28562" lon="-0.61698">
        <ele>176</ele>
        <time>2012-03-23T14:37:48Z</time>
      </trkpt>
      <trkpt lat="48.28555" lon="-0.61694">
        <ele>176</ele>
        <time>2012-03-23T14:37:52Z</time>
      </trkpt>
      <trkpt lat="48.28543" lon="-0.6169">
        <ele>177</ele>
        <time>2012-03-23T14:37:58Z</time>
      </trkpt>
      <trkpt lat="48.2854" lon="-0.61689">
        <ele>177</ele>
        <time>2012-03-23T14:38:00Z</time>
      </trkpt>
      <trkpt lat="48.28537" lon="-0.61688">
        <ele>178</ele>
        <time>2012-03-23T14:38:02Z</time>
      </trkpt>
      <trkpt lat="48.28529" lon="-0.61686">
        <ele>178</ele>
        <time>2012-03-23T14:38:06Z</time>
      </trkpt>
      <trkpt lat="48.28524" lon="-0.61685">
        <ele>178</ele>
        <time>2012-03-23T14:38:08Z</time>
      </trkpt>
      <trkpt lat="48.2852" lon="-0.61685">
        <ele>178</ele>
        <time>2012-03-23T14:38:10Z</time>
      </trkpt>
      <trkpt lat="48.28515" lon="-0.61684">
        <ele>179</ele>
        <time>2012-03-23T14:38:12Z</time>
      </trkpt>
      <trkpt lat="48.28501" lon="-0.6168">
        <ele>179</ele>
        <time>2012-03-23T14:38:18Z</time>
      </trkpt>
      <trkpt lat="48.28497" lon="-0.61678">
        <ele>179</ele>
        <time>2012-03-23T14:38:20Z</time>
      </trkpt>
      <trkpt lat="48.28488" lon="-0.61675">
        <ele>179</ele>
        <time>2012-03-23T14:38:24Z</time>
      </trkpt>
      <trkpt lat="48.28484" lon="-0.61674">
        <ele>178</ele>
        <time>2012-03-23T14:38:26Z</time>
      </trkpt>
      <trkpt lat="48.28479" lon="-0.61673">
        <ele>178</ele>
        <time>2012-03-23T14:38:28Z</time>
      </trkpt>
      <trkpt lat="48.28469" lon="-0.61669">
        <ele>177</ele>
        <time>2012-03-23T14:38:32Z</time>
      </trkpt>
      <trkpt lat="48.28464" lon="-0.61667">
        <ele>177</ele>
        <time>2012-03-23T14:38:34Z</time>
      </trkpt>
      <trkpt lat="48.28459" lon="-0.61666">
        <ele>176</ele>
        <time>2012-03-23T14:38:36Z</time>
      </trkpt>
      <trkpt lat="48.28448" lon="-0.61663">
        <ele>176</ele>
        <time>2012-03-23T14:38:40Z</time>
      </trkpt>
      <trkpt lat="48.28443" lon="-0.61661">
        <ele>176</ele>
        <time>2012-03-23T14:38:42Z</time>
      </trkpt>
      <trkpt lat="48.28437" lon="-0.61658">
        <ele>176</ele>
        <time>2012-03-23T14:38:44Z</time>
      </trkpt>
      <trkpt lat="48.28426" lon="-0.61653">
        <ele>175</ele>
        <time>2012-03-23T14:38:48Z</time>
      </trkpt>
      <trkpt lat="48.28421" lon="-0.61651">
        <ele>173</ele>
        <time>2012-03-23T14:38:50Z</time>
      </trkpt>
      <trkpt lat="48.2841" lon="-0.61647">
        <ele>170</ele>
        <time>2012-03-23T14:38:54Z</time>
      </trkpt>
      <trkpt lat="48.28404" lon="-0.61645">
        <ele>169</ele>
        <time>2012-03-23T14:38:56Z</time>
      </trkpt>
      <trkpt lat="48.28392" lon="-0.6164">
        <ele>167</ele>
        <time>2012-03-23T14:39:00Z</time>
      </trkpt>
      <trkpt lat="48.28387" lon="-0.61636">
        <ele>166</ele>
        <time>2012-03-23T14:39:02Z</time>
      </trkpt>
      <trkpt lat="48.28376" lon="-0.6163">
        <ele>163</ele>
        <time>2012-03-23T14:39:06Z</time>
      </trkpt>
      <trkpt lat="48.28371" lon="-0.61627">
        <ele>162</ele>
        <time>2012-03-23T14:39:08Z</time>
      </trkpt>
      <trkpt lat="48.28361" lon="-0.61622">
        <ele>160</ele>
        <time>2012-03-23T14:39:12Z</time>
      </trkpt>
      <trkpt lat="48.28352" lon="-0.61618">
        <ele>160</ele>
        <time>2012-03-23T14:39:16Z</time>
      </trkpt>
      <trkpt lat="48.28343" lon="-0.61613">
        <ele>157</ele>
        <time>2012-03-23T14:39:20Z</time>
      </trkpt>
      <trkpt lat="48.28338" lon="-0.61611">
        <ele>157</ele>
        <time>2012-03-23T14:39:22Z</time>
      </trkpt>
      <trkpt lat="48.28333" lon="-0.61608">
        <ele>158</ele>
        <time>2012-03-23T14:39:24Z</time>
      </trkpt>
      <trkpt lat="48.28322" lon="-0.61602">
        <ele>158</ele>
        <time>2012-03-23T14:39:28Z</time>
      </trkpt>
      <trkpt lat="48.28317" lon="-0.616">
        <ele>157</ele>
        <time>2012-03-23T14:39:30Z</time>
      </trkpt>
      <trkpt lat="48.28301" lon="-0.6159">
        <ele>158</ele>
        <time>2012-03-23T14:39:36Z</time>
      </trkpt>
      <trkpt lat="48.28297" lon="-0.61587">
        <ele>157</ele>
        <time>2012-03-23T14:39:38Z</time>
      </trkpt>
      <trkpt lat="48.28282" lon="-0.61579">
        <ele>153</ele>
        <time>2012-03-23T14:39:44Z</time>
      </trkpt>
      <trkpt lat="48.28272" lon="-0.61576">
        <ele>148</ele>
        <time>2012-03-23T14:39:48Z</time>
      </trkpt>
      <trkpt lat="48.28267" lon="-0.61572">
        <ele>147</ele>
        <time>2012-03-23T14:39:50Z</time>
      </trkpt>
      <trkpt lat="48.28258" lon="-0.61567">
        <ele>146</ele>
        <time>2012-03-23T14:39:54Z</time>
      </trkpt>
      <trkpt lat="48.28254" lon="-0.61564">
        <ele>146</ele>
        <time>2012-03-23T14:39:56Z</time>
      </trkpt>
      <trkpt lat="48.28248" lon="-0.61561">
        <ele>145</ele>
        <time>2012-03-23T14:39:58Z</time>
      </trkpt>
      <trkpt lat="48.28242" lon="-0.61548">
        <ele>147</ele>
        <time>2012-03-23T14:40:02Z</time>
      </trkpt>
      <trkpt lat="48.2824" lon="-0.61543">
        <ele>152</ele>
        <time>2012-03-23T14:40:04Z</time>
      </trkpt>
      <trkpt lat="48.28237" lon="-0.61526">
        <ele>158</ele>
        <time>2012-03-23T14:40:10Z</time>
      </trkpt>
      <trkpt lat="48.28232" lon="-0.61509">
        <ele>165</ele>
        <time>2012-03-23T14:40:16Z</time>
      </trkpt>
      <trkpt lat="48.28231" lon="-0.61502">
        <ele>169</ele>
        <time>2012-03-23T14:40:18Z</time>
      </trkpt>
      <trkpt lat="48.28229" lon="-0.6149">
        <ele>171</ele>
        <time>2012-03-23T14:40:22Z</time>
      </trkpt>
      <trkpt lat="48.28229" lon="-0.61484">
        <ele>172</ele>
        <time>2012-03-23T14:40:24Z</time>
      </trkpt>
      <trkpt lat="48.28228" lon="-0.61478">
        <ele>173</ele>
        <time>2012-03-23T14:40:26Z</time>
      </trkpt>
      <trkpt lat="48.28226" lon="-0.61465">
        <ele>176</ele>
        <time>2012-03-23T14:40:30Z</time>
      </trkpt>
      <trkpt lat="48.28226" lon="-0.61458">
        <ele>178</ele>
        <time>2012-03-23T14:40:32Z</time>
      </trkpt>
      <trkpt lat="48.28226" lon="-0.61452">
        <ele>180</ele>
        <time>2012-03-23T14:40:34Z</time>
      </trkpt>
      <trkpt lat="48.28225" lon="-0.61445">
        <ele>181</ele>
        <time>2012-03-23T14:40:36Z</time>
      </trkpt>
      <trkpt lat="48.28224" lon="-0.61436">
        <ele>182</ele>
        <time>2012-03-23T14:40:40Z</time>
      </trkpt>
      <trkpt lat="48.28224" lon="-0.61431">
        <ele>183</ele>
        <time>2012-03-23T14:40:42Z</time>
      </trkpt>
      <trkpt lat="48.28224" lon="-0.61425">
        <ele>183</ele>
        <time>2012-03-23T14:40:44Z</time>
      </trkpt>
      <trkpt lat="48.28223" lon="-0.61411">
        <ele>183</ele>
        <time>2012-03-23T14:40:48Z</time>
      </trkpt>
      <trkpt lat="48.28222" lon="-0.61405">
        <ele>184</ele>
        <time>2012-03-23T14:40:50Z</time>
      </trkpt>
      <trkpt lat="48.28222" lon="-0.614">
        <ele>184</ele>
        <time>2012-03-23T14:40:52Z</time>
      </trkpt>
      <trkpt lat="48.28221" lon="-0.61394">
        <ele>184</ele>
        <time>2012-03-23T14:40:54Z</time>
      </trkpt>
      <trkpt lat="48.28224" lon="-0.61376">
        <ele>184</ele>
        <time>2012-03-23T14:41:00Z</time>
      </trkpt>
      <trkpt lat="48.28228" lon="-0.61365">
        <ele>184</ele>
        <time>2012-03-23T14:41:04Z</time>
      </trkpt>
      <trkpt lat="48.28232" lon="-0.61353">
        <ele>184</ele>
        <time>2012-03-23T14:41:08Z</time>
      </trkpt>
      <trkpt lat="48.28235" lon="-0.61347">
        <ele>184</ele>
        <time>2012-03-23T14:41:10Z</time>
      </trkpt>
      <trkpt lat="48.28238" lon="-0.61341">
        <ele>184</ele>
        <time>2012-03-23T14:41:12Z</time>
      </trkpt>
      <trkpt lat="48.28242" lon="-0.61337">
        <ele>184</ele>
        <time>2012-03-23T14:41:14Z</time>
      </trkpt>
      <trkpt lat="48.28248" lon="-0.61329">
        <ele>184</ele>
        <time>2012-03-23T14:41:18Z</time>
      </trkpt>
      <trkpt lat="48.28254" lon="-0.61321">
        <ele>183</ele>
        <time>2012-03-23T14:41:22Z</time>
      </trkpt>
      <trkpt lat="48.28265" lon="-0.61313">
        <ele>183</ele>
        <time>2012-03-23T14:41:28Z</time>
      </trkpt>
      <trkpt lat="48.28269" lon="-0.61311">
        <ele>184</ele>
        <time>2012-03-23T14:41:30Z</time>
      </trkpt>
      <trkpt lat="48.28274" lon="-0.61309">
        <ele>184</ele>
        <time>2012-03-23T14:41:32Z</time>
      </trkpt>
      <trkpt lat="48.28283" lon="-0.61306">
        <ele>184</ele>
        <time>2012-03-23T14:41:36Z</time>
      </trkpt>
      <trkpt lat="48.28289" lon="-0.61305">
        <ele>185</ele>
        <time>2012-03-23T14:41:38Z</time>
      </trkpt>
      <trkpt lat="48.28294" lon="-0.61304">
        <ele>185</ele>
        <time>2012-03-23T14:41:40Z</time>
      </trkpt>
      <trkpt lat="48.28304" lon="-0.61304">
        <ele>186</ele>
        <time>2012-03-23T14:41:44Z</time>
      </trkpt>
      <trkpt lat="48.2831" lon="-0.61304">
        <ele>186</ele>
        <time>2012-03-23T14:41:46Z</time>
      </trkpt>
      <trkpt lat="48.28315" lon="-0.61304">
        <ele>186</ele>
        <time>2012-03-23T14:41:48Z</time>
      </trkpt>
      <trkpt lat="48.28326" lon="-0.61303">
        <ele>186</ele>
        <time>2012-03-23T14:41:52Z</time>
      </trkpt>
      <trkpt lat="48.28331" lon="-0.61301">
        <ele>187</ele>
        <time>2012-03-23T14:41:54Z</time>
      </trkpt>
      <trkpt lat="48.28341" lon="-0.61293">
        <ele>187</ele>
        <time>2012-03-23T14:41:58Z</time>
      </trkpt>
      <trkpt lat="48.28346" lon="-0.61289">
        <ele>186</ele>
        <time>2012-03-23T14:42:00Z</time>
      </trkpt>
      <trkpt lat="48.2835" lon="-0.61284">
        <ele>187</ele>
        <time>2012-03-23T14:42:02Z</time>
      </trkpt>
      <trkpt lat="48.28359" lon="-0.61274">
        <ele>187</ele>
        <time>2012-03-23T14:42:06Z</time>
      </trkpt>
      <trkpt lat="48.28363" lon="-0.61268">
        <ele>186</ele>
        <time>2012-03-23T14:42:08Z</time>
      </trkpt>
      <trkpt lat="48.28366" lon="-0.61263">
        <ele>187</ele>
        <time>2012-03-23T14:42:10Z</time>
      </trkpt>
      <trkpt lat="48.28371" lon="-0.61254">
        <ele>187</ele>
        <time>2012-03-23T14:42:14Z</time>
      </trkpt>
      <trkpt lat="48.28374" lon="-0.61244">
        <ele>187</ele>
        <time>2012-03-23T14:42:18Z</time>
      </trkpt>
      <trkpt lat="48.28376" lon="-0.61232">
        <ele>187</ele>
        <time>2012-03-23T14:42:22Z</time>
      </trkpt>
      <trkpt lat="48.28377" lon="-0.61226">
        <ele>187</ele>
        <time>2012-03-23T14:42:24Z</time>
      </trkpt>
      <trkpt lat="48.28378" lon="-0.61219">
        <ele>187</ele>
        <time>2012-03-23T14:42:26Z</time>
      </trkpt>
      <trkpt lat="48.28379" lon="-0.61211">
        <ele>187</ele>
        <time>2012-03-23T14:42:28Z</time>
      </trkpt>
      <trkpt lat="48.28383" lon="-0.61194">
        <ele>187</ele>
        <time>2012-03-23T14:42:32Z</time>
      </trkpt>
      <trkpt lat="48.28385" lon="-0.61184">
        <ele>187</ele>
        <time>2012-03-23T14:42:34Z</time>
      </trkpt>
      <trkpt lat="48.28387" lon="-0.61174">
        <ele>186</ele>
        <time>2012-03-23T14:42:36Z</time>
      </trkpt>
      <trkpt lat="48.28391" lon="-0.61151">
        <ele>186</ele>
        <time>2012-03-23T14:42:40Z</time>
      </trkpt>
      <trkpt lat="48.28394" lon="-0.61139">
        <ele>185</ele>
        <time>2012-03-23T14:42:42Z</time>
      </trkpt>
      <trkpt lat="48.28398" lon="-0.61116">
        <ele>185</ele>
        <time>2012-03-23T14:42:46Z</time>
      </trkpt>
      <trkpt lat="48.28401" lon="-0.61105">
        <ele>184</ele>
        <time>2012-03-23T14:42:48Z</time>
      </trkpt>
      <trkpt lat="48.28404" lon="-0.61085">
        <ele>184</ele>
        <time>2012-03-23T14:42:52Z</time>
      </trkpt>
      <trkpt lat="48.28408" lon="-0.61067">
        <ele>183</ele>
        <time>2012-03-23T14:42:56Z</time>
      </trkpt>
      <trkpt lat="48.2841" lon="-0.61059">
        <ele>183</ele>
        <time>2012-03-23T14:42:58Z</time>
      </trkpt>
      <trkpt lat="48.28413" lon="-0.61042">
        <ele>183</ele>
        <time>2012-03-23T14:43:02Z</time>
      </trkpt>
      <trkpt lat="48.28415" lon="-0.61033">
        <ele>183</ele>
        <time>2012-03-23T14:43:04Z</time>
      </trkpt>
      <trkpt lat="48.28418" lon="-0.61015">
        <ele>182</ele>
        <time>2012-03-23T14:43:08Z</time>
      </trkpt>
      <trkpt lat="48.2842" lon="-0.61007">
        <ele>182</ele>
        <time>2012-03-23T14:43:10Z</time>
      </trkpt>
      <trkpt lat="48.28423" lon="-0.60993">
        <ele>182</ele>
        <time>2012-03-23T14:43:14Z</time>
      </trkpt>
      <trkpt lat="48.28425" lon="-0.60985">
        <ele>182</ele>
        <time>2012-03-23T14:43:16Z</time>
      </trkpt>
      <trkpt lat="48.28426" lon="-0.60978">
        <ele>182</ele>
        <time>2012-03-23T14:43:18Z</time>
      </trkpt>
      <trkpt lat="48.2843" lon="-0.60962">
        <ele>182</ele>
        <time>2012-03-23T14:43:22Z</time>
      </trkpt>
      <trkpt lat="48.28432" lon="-0.60956">
        <ele>182</ele>
        <time>2012-03-23T14:43:24Z</time>
      </trkpt>
      <trkpt lat="48.28434" lon="-0.60936">
        <ele>181</ele>
        <time>2012-03-23T14:43:30Z</time>
      </trkpt>
      <trkpt lat="48.28435" lon="-0.60931">
        <ele>181</ele>
        <time>2012-03-23T14:43:32Z</time>
      </trkpt>
      <trkpt lat="48.28436" lon="-0.60925">
        <ele>179</ele>
        <time>2012-03-23T14:43:44Z</time>
      </trkpt>
      <trkpt lat="48.28441" lon="-0.6092">
        <ele>179</ele>
        <time>2012-03-23T14:43:48Z</time>
      </trkpt>
      <trkpt lat="48.28446" lon="-0.60919">
        <ele>179</ele>
        <time>2012-03-23T14:43:50Z</time>
      </trkpt>
      <trkpt lat="48.28456" lon="-0.6092">
        <ele>180</ele>
        <time>2012-03-23T14:43:54Z</time>
      </trkpt>
      <trkpt lat="48.28461" lon="-0.6092">
        <ele>180</ele>
        <time>2012-03-23T14:43:56Z</time>
      </trkpt>
      <trkpt lat="48.28466" lon="-0.60921">
        <ele>181</ele>
        <time>2012-03-23T14:43:58Z</time>
      </trkpt>
      <trkpt lat="48.28479" lon="-0.60925">
        <ele>183</ele>
        <time>2012-03-23T14:44:04Z</time>
      </trkpt>
      <trkpt lat="48.28485" lon="-0.60924">
        <ele>183</ele>
        <time>2012-03-23T14:44:06Z</time>
      </trkpt>
      <trkpt lat="48.28501" lon="-0.60923">
        <ele>178</ele>
        <time>2012-03-23T14:44:12Z</time>
      </trkpt>
      <trkpt lat="48.28506" lon="-0.60907">
        <ele>181</ele>
        <time>2012-03-23T14:44:18Z</time>
      </trkpt>
      <trkpt lat="48.28507" lon="-0.60889">
        <ele>183</ele>
        <time>2012-03-23T14:44:24Z</time>
      </trkpt>
      <trkpt lat="48.28507" lon="-0.60877">
        <ele>183</ele>
        <time>2012-03-23T14:44:28Z</time>
      </trkpt>
      <trkpt lat="48.28508" lon="-0.6086">
        <ele>184</ele>
        <time>2012-03-23T14:44:34Z</time>
      </trkpt>
      <trkpt lat="48.2851" lon="-0.60849">
        <ele>185</ele>
        <time>2012-03-23T14:44:38Z</time>
      </trkpt>
      <trkpt lat="48.28514" lon="-0.60834">
        <ele>185</ele>
        <time>2012-03-23T14:44:44Z</time>
      </trkpt>
      <trkpt lat="48.28515" lon="-0.60829">
        <ele>185</ele>
        <time>2012-03-23T14:44:46Z</time>
      </trkpt>
      <trkpt lat="48.28517" lon="-0.60823">
        <ele>185</ele>
        <time>2012-03-23T14:44:48Z</time>
      </trkpt>
      <trkpt lat="48.28519" lon="-0.60811">
        <ele>185</ele>
        <time>2012-03-23T14:44:52Z</time>
      </trkpt>
      <trkpt lat="48.28521" lon="-0.60804">
        <ele>185</ele>
        <time>2012-03-23T14:44:54Z</time>
      </trkpt>
      <trkpt lat="48.28523" lon="-0.60796">
        <ele>185</ele>
        <time>2012-03-23T14:44:56Z</time>
      </trkpt>
      <trkpt lat="48.28525" lon="-0.60787">
        <ele>184</ele>
        <time>2012-03-23T14:44:58Z</time>
      </trkpt>
      <trkpt lat="48.2853" lon="-0.60768">
        <ele>183</ele>
        <time>2012-03-23T14:45:02Z</time>
      </trkpt>
      <trkpt lat="48.28532" lon="-0.60757">
        <ele>183</ele>
        <time>2012-03-23T14:45:04Z</time>
      </trkpt>
      <trkpt lat="48.28538" lon="-0.60734">
        <ele>182</ele>
        <time>2012-03-23T14:45:08Z</time>
      </trkpt>
      <trkpt lat="48.28543" lon="-0.6071">
        <ele>181</ele>
        <time>2012-03-23T14:45:12Z</time>
      </trkpt>
      <trkpt lat="48.28544" lon="-0.607">
        <ele>181</ele>
        <time>2012-03-23T14:45:14Z</time>
      </trkpt>
      <trkpt lat="48.28547" lon="-0.60681">
        <ele>181</ele>
        <time>2012-03-23T14:45:18Z</time>
      </trkpt>
      <trkpt lat="48.2855" lon="-0.60664">
        <ele>182</ele>
        <time>2012-03-23T14:45:22Z</time>
      </trkpt>
      <trkpt lat="48.28551" lon="-0.60655">
        <ele>181</ele>
        <time>2012-03-23T14:45:24Z</time>
      </trkpt>
      <trkpt lat="48.28554" lon="-0.60638">
        <ele>182</ele>
        <time>2012-03-23T14:45:28Z</time>
      </trkpt>
      <trkpt lat="48.28555" lon="-0.6063">
        <ele>182</ele>
        <time>2012-03-23T14:45:30Z</time>
      </trkpt>
      <trkpt lat="48.28557" lon="-0.60622">
        <ele>182</ele>
        <time>2012-03-23T14:45:32Z</time>
      </trkpt>
      <trkpt lat="48.2856" lon="-0.60608">
        <ele>183</ele>
        <time>2012-03-23T14:45:36Z</time>
      </trkpt>
      <trkpt lat="48.28563" lon="-0.606">
        <ele>184</ele>
        <time>2012-03-23T14:45:38Z</time>
      </trkpt>
      <trkpt lat="48.28567" lon="-0.60585">
        <ele>185</ele>
        <time>2012-03-23T14:45:42Z</time>
      </trkpt>
      <trkpt lat="48.2857" lon="-0.60577">
        <ele>185</ele>
        <time>2012-03-23T14:45:44Z</time>
      </trkpt>
      <trkpt lat="48.28574" lon="-0.60562">
        <ele>186</ele>
        <time>2012-03-23T14:45:48Z</time>
      </trkpt>
      <trkpt lat="48.28575" lon="-0.60555">
        <ele>186</ele>
        <time>2012-03-23T14:45:50Z</time>
      </trkpt>
      <trkpt lat="48.28577" lon="-0.60547">
        <ele>186</ele>
        <time>2012-03-23T14:45:52Z</time>
      </trkpt>
      <trkpt lat="48.28581" lon="-0.60534">
        <ele>186</ele>
        <time>2012-03-23T14:45:56Z</time>
      </trkpt>
      <trkpt lat="48.28583" lon="-0.60528">
        <ele>186</ele>
        <time>2012-03-23T14:45:58Z</time>
      </trkpt>
      <trkpt lat="48.28586" lon="-0.60514">
        <ele>187</ele>
        <time>2012-03-23T14:46:02Z</time>
      </trkpt>
      <trkpt lat="48.28588" lon="-0.60507">
        <ele>187</ele>
        <time>2012-03-23T14:46:04Z</time>
      </trkpt>
      <trkpt lat="48.28589" lon="-0.605">
        <ele>186</ele>
        <time>2012-03-23T14:46:06Z</time>
      </trkpt>
      <trkpt lat="48.28593" lon="-0.60485">
        <ele>186</ele>
        <time>2012-03-23T14:46:10Z</time>
      </trkpt>
      <trkpt lat="48.28594" lon="-0.60477">
        <ele>187</ele>
        <time>2012-03-23T14:46:12Z</time>
      </trkpt>
      <trkpt lat="48.28596" lon="-0.6047">
        <ele>187</ele>
        <time>2012-03-23T14:46:14Z</time>
      </trkpt>
      <trkpt lat="48.286" lon="-0.60456">
        <ele>187</ele>
        <time>2012-03-23T14:46:18Z</time>
      </trkpt>
      <trkpt lat="48.286" lon="-0.60451">
        <ele>187</ele>
        <time>2012-03-23T14:46:20Z</time>
      </trkpt>
      <trkpt lat="48.28601" lon="-0.60433">
        <ele>187</ele>
        <time>2012-03-23T14:46:26Z</time>
      </trkpt>
      <trkpt lat="48.28602" lon="-0.60427">
        <ele>187</ele>
        <time>2012-03-23T14:46:28Z</time>
      </trkpt>
      <trkpt lat="48.28604" lon="-0.60411">
        <ele>187</ele>
        <time>2012-03-23T14:46:32Z</time>
      </trkpt>
      <trkpt lat="48.28606" lon="-0.60395">
        <ele>187</ele>
        <time>2012-03-23T14:46:36Z</time>
      </trkpt>
      <trkpt lat="48.28609" lon="-0.60382">
        <ele>186</ele>
        <time>2012-03-23T14:46:40Z</time>
      </trkpt>
      <trkpt lat="48.2861" lon="-0.60375">
        <ele>186</ele>
        <time>2012-03-23T14:46:42Z</time>
      </trkpt>
      <trkpt lat="48.28613" lon="-0.6036">
        <ele>186</ele>
        <time>2012-03-23T14:46:46Z</time>
      </trkpt>
      <trkpt lat="48.28614" lon="-0.60352">
        <ele>186</ele>
        <time>2012-03-23T14:46:48Z</time>
      </trkpt>
      <trkpt lat="48.28616" lon="-0.60345">
        <ele>187</ele>
        <time>2012-03-23T14:46:50Z</time>
      </trkpt>
      <trkpt lat="48.28619" lon="-0.60325">
        <ele>187</ele>
        <time>2012-03-23T14:46:56Z</time>
      </trkpt>
      <trkpt lat="48.2862" lon="-0.60318">
        <ele>188</ele>
        <time>2012-03-23T14:46:58Z</time>
      </trkpt>
      <trkpt lat="48.28624" lon="-0.60297">
        <ele>188</ele>
        <time>2012-03-23T14:47:04Z</time>
      </trkpt>
      <trkpt lat="48.28626" lon="-0.6029">
        <ele>188</ele>
        <time>2012-03-23T14:47:06Z</time>
      </trkpt>
      <trkpt lat="48.28629" lon="-0.60274">
        <ele>188</ele>
        <time>2012-03-23T14:47:10Z</time>
      </trkpt>
      <trkpt lat="48.2863" lon="-0.60265">
        <ele>188</ele>
        <time>2012-03-23T14:47:12Z</time>
      </trkpt>
      <trkpt lat="48.28632" lon="-0.60257">
        <ele>188</ele>
        <time>2012-03-23T14:47:14Z</time>
      </trkpt>
      <trkpt lat="48.28635" lon="-0.60239">
        <ele>188</ele>
        <time>2012-03-23T14:47:18Z</time>
      </trkpt>
      <trkpt lat="48.28637" lon="-0.6023">
        <ele>188</ele>
        <time>2012-03-23T14:47:20Z</time>
      </trkpt>
      <trkpt lat="48.2864" lon="-0.6021">
        <ele>188</ele>
        <time>2012-03-23T14:47:24Z</time>
      </trkpt>
      <trkpt lat="48.28642" lon="-0.602">
        <ele>188</ele>
        <time>2012-03-23T14:47:26Z</time>
      </trkpt>
      <trkpt lat="48.28646" lon="-0.60178">
        <ele>187</ele>
        <time>2012-03-23T14:47:30Z</time>
      </trkpt>
      <trkpt lat="48.28648" lon="-0.60166">
        <ele>187</ele>
        <time>2012-03-23T14:47:32Z</time>
      </trkpt>
      <trkpt lat="48.28653" lon="-0.60142">
        <ele>186</ele>
        <time>2012-03-23T14:47:36Z</time>
      </trkpt>
      <trkpt lat="48.28657" lon="-0.60116">
        <ele>185</ele>
        <time>2012-03-23T14:47:40Z</time>
      </trkpt>
      <trkpt lat="48.28662" lon="-0.60088">
        <ele>184</ele>
        <time>2012-03-23T14:47:44Z</time>
      </trkpt>
      <trkpt lat="48.28667" lon="-0.60059">
        <ele>183</ele>
        <time>2012-03-23T14:47:48Z</time>
      </trkpt>
      <trkpt lat="48.28674" lon="-0.6003">
        <ele>182</ele>
        <time>2012-03-23T14:47:52Z</time>
      </trkpt>
      <trkpt lat="48.28681" lon="-0.60004">
        <ele>181</ele>
        <time>2012-03-23T14:47:56Z</time>
      </trkpt>
      <trkpt lat="48.28688" lon="-0.59978">
        <ele>180</ele>
        <time>2012-03-23T14:48:00Z</time>
      </trkpt>
      <trkpt lat="48.28695" lon="-0.59952">
        <ele>179</ele>
        <time>2012-03-23T14:48:04Z</time>
      </trkpt>
      <trkpt lat="48.28703" lon="-0.59928">
        <ele>178</ele>
        <time>2012-03-23T14:48:08Z</time>
      </trkpt>
      <trkpt lat="48.28712" lon="-0.59907">
        <ele>178</ele>
        <time>2012-03-23T14:48:12Z</time>
      </trkpt>
      <trkpt lat="48.2872" lon="-0.59889">
        <ele>177</ele>
        <time>2012-03-23T14:48:16Z</time>
      </trkpt>
      <trkpt lat="48.28728" lon="-0.59872">
        <ele>177</ele>
        <time>2012-03-23T14:48:20Z</time>
      </trkpt>
      <trkpt lat="48.28732" lon="-0.59864">
        <ele>176</ele>
        <time>2012-03-23T14:48:22Z</time>
      </trkpt>
      <trkpt lat="48.28737" lon="-0.59852">
        <ele>174</ele>
        <time>2012-03-23T14:48:26Z</time>
      </trkpt>
      <trkpt lat="48.2874" lon="-0.59833">
        <ele>172</ele>
        <time>2012-03-23T14:48:32Z</time>
      </trkpt>
      <trkpt lat="48.28752" lon="-0.5981">
        <ele>172</ele>
        <time>2012-03-23T14:48:38Z</time>
      </trkpt>
      <trkpt lat="48.28755" lon="-0.598">
        <ele>174</ele>
        <time>2012-03-23T14:48:40Z</time>
      </trkpt>
      <trkpt lat="48.28755" lon="-0.59782">
        <ele>176</ele>
        <time>2012-03-23T14:48:44Z</time>
      </trkpt>
      <trkpt lat="48.28756" lon="-0.59775">
        <ele>177</ele>
        <time>2012-03-23T14:48:46Z</time>
      </trkpt>
      <trkpt lat="48.2876" lon="-0.59761">
        <ele>177</ele>
        <time>2012-03-23T14:48:50Z</time>
      </trkpt>
      <trkpt lat="48.28762" lon="-0.59755">
        <ele>177</ele>
        <time>2012-03-23T14:48:52Z</time>
      </trkpt>
      <trkpt lat="48.2877" lon="-0.59739">
        <ele>177</ele>
        <time>2012-03-23T14:48:58Z</time>
      </trkpt>
      <trkpt lat="48.28773" lon="-0.59733">
        <ele>177</ele>
        <time>2012-03-23T14:49:00Z</time>
      </trkpt>
      <trkpt lat="48.28778" lon="-0.59722">
        <ele>176</ele>
        <time>2012-03-23T14:49:04Z</time>
      </trkpt>
      <trkpt lat="48.28781" lon="-0.59716">
        <ele>176</ele>
        <time>2012-03-23T14:49:06Z</time>
      </trkpt>
      <trkpt lat="48.28784" lon="-0.5971">
        <ele>176</ele>
        <time>2012-03-23T14:49:08Z</time>
      </trkpt>
      <trkpt lat="48.2879" lon="-0.59697">
        <ele>176</ele>
        <time>2012-03-23T14:49:12Z</time>
      </trkpt>
      <trkpt lat="48.28793" lon="-0.5969">
        <ele>176</ele>
        <time>2012-03-23T14:49:14Z</time>
      </trkpt>
      <trkpt lat="48.28796" lon="-0.59683">
        <ele>176</ele>
        <time>2012-03-23T14:49:16Z</time>
      </trkpt>
      <trkpt lat="48.28802" lon="-0.59671">
        <ele>175</ele>
        <time>2012-03-23T14:49:20Z</time>
      </trkpt>
      <trkpt lat="48.28805" lon="-0.59665">
        <ele>175</ele>
        <time>2012-03-23T14:49:22Z</time>
      </trkpt>
      <trkpt lat="48.28811" lon="-0.59653">
        <ele>175</ele>
        <time>2012-03-23T14:49:26Z</time>
      </trkpt>
      <trkpt lat="48.28815" lon="-0.59646">
        <ele>175</ele>
        <time>2012-03-23T14:49:28Z</time>
      </trkpt>
      <trkpt lat="48.28817" lon="-0.5964">
        <ele>175</ele>
        <time>2012-03-23T14:49:30Z</time>
      </trkpt>
      <trkpt lat="48.28824" lon="-0.59626">
        <ele>175</ele>
        <time>2012-03-23T14:49:34Z</time>
      </trkpt>
      <trkpt lat="48.28828" lon="-0.59619">
        <ele>175</ele>
        <time>2012-03-23T14:49:36Z</time>
      </trkpt>
      <trkpt lat="48.28835" lon="-0.59607">
        <ele>175</ele>
        <time>2012-03-23T14:49:40Z</time>
      </trkpt>
      <trkpt lat="48.28838" lon="-0.596">
        <ele>175</ele>
        <time>2012-03-23T14:49:42Z</time>
      </trkpt>
      <trkpt lat="48.28845" lon="-0.59586">
        <ele>175</ele>
        <time>2012-03-23T14:49:46Z</time>
      </trkpt>
      <trkpt lat="48.28849" lon="-0.59578">
        <ele>174</ele>
        <time>2012-03-23T14:49:48Z</time>
      </trkpt>
      <trkpt lat="48.28853" lon="-0.5957">
        <ele>174</ele>
        <time>2012-03-23T14:49:50Z</time>
      </trkpt>
      <trkpt lat="48.28863" lon="-0.59551">
        <ele>173</ele>
        <time>2012-03-23T14:49:54Z</time>
      </trkpt>
      <trkpt lat="48.28869" lon="-0.5954">
        <ele>173</ele>
        <time>2012-03-23T14:49:56Z</time>
      </trkpt>
      <trkpt lat="48.28881" lon="-0.59521">
        <ele>173</ele>
        <time>2012-03-23T14:50:00Z</time>
      </trkpt>
      <trkpt lat="48.28895" lon="-0.59504">
        <ele>174</ele>
        <time>2012-03-23T14:50:04Z</time>
      </trkpt>
      <trkpt lat="48.28909" lon="-0.59488">
        <ele>176</ele>
        <time>2012-03-23T14:50:08Z</time>
      </trkpt>
      <trkpt lat="48.2892" lon="-0.59473">
        <ele>177</ele>
        <time>2012-03-23T14:50:12Z</time>
      </trkpt>
      <trkpt lat="48.28929" lon="-0.59458">
        <ele>178</ele>
        <time>2012-03-23T14:50:16Z</time>
      </trkpt>
      <trkpt lat="48.28938" lon="-0.59446">
        <ele>178</ele>
        <time>2012-03-23T14:50:20Z</time>
      </trkpt>
      <trkpt lat="48.28941" lon="-0.5944">
        <ele>179</ele>
        <time>2012-03-23T14:50:22Z</time>
      </trkpt>
      <trkpt lat="48.28949" lon="-0.5943">
        <ele>179</ele>
        <time>2012-03-23T14:50:26Z</time>
      </trkpt>
      <trkpt lat="48.28952" lon="-0.59426">
        <ele>180</ele>
        <time>2012-03-23T14:50:28Z</time>
      </trkpt>
      <trkpt lat="48.28958" lon="-0.59419">
        <ele>180</ele>
        <time>2012-03-23T14:50:32Z</time>
      </trkpt>
      <trkpt lat="48.28961" lon="-0.59415">
        <ele>180</ele>
        <time>2012-03-23T14:50:34Z</time>
      </trkpt>
      <trkpt lat="48.28964" lon="-0.59411">
        <ele>181</ele>
        <time>2012-03-23T14:50:36Z</time>
      </trkpt>
      <trkpt lat="48.2897" lon="-0.59404">
        <ele>182</ele>
        <time>2012-03-23T14:50:40Z</time>
      </trkpt>
      <trkpt lat="48.28973" lon="-0.594">
        <ele>182</ele>
        <time>2012-03-23T14:50:42Z</time>
      </trkpt>
      <trkpt lat="48.28976" lon="-0.59396">
        <ele>182</ele>
        <time>2012-03-23T14:50:44Z</time>
      </trkpt>
      <trkpt lat="48.28979" lon="-0.59392">
        <ele>182</ele>
        <time>2012-03-23T14:50:46Z</time>
      </trkpt>
      <trkpt lat="48.2899" lon="-0.5938">
        <ele>183</ele>
        <time>2012-03-23T14:50:52Z</time>
      </trkpt>
      <trkpt lat="48.28993" lon="-0.59375">
        <ele>183</ele>
        <time>2012-03-23T14:50:54Z</time>
      </trkpt>
      <trkpt lat="48.29" lon="-0.59367">
        <ele>183</ele>
        <time>2012-03-23T14:50:58Z</time>
      </trkpt>
      <trkpt lat="48.29008" lon="-0.59359">
        <ele>183</ele>
        <time>2012-03-23T14:51:02Z</time>
      </trkpt>
      <trkpt lat="48.29011" lon="-0.59355">
        <ele>183</ele>
        <time>2012-03-23T14:51:04Z</time>
      </trkpt>
      <trkpt lat="48.29019" lon="-0.59347">
        <ele>184</ele>
        <time>2012-03-23T14:51:08Z</time>
      </trkpt>
      <trkpt lat="48.29024" lon="-0.59343">
        <ele>184</ele>
        <time>2012-03-23T14:51:10Z</time>
      </trkpt>
      <trkpt lat="48.29028" lon="-0.59339">
        <ele>184</ele>
        <time>2012-03-23T14:51:12Z</time>
      </trkpt>
      <trkpt lat="48.29036" lon="-0.59331">
        <ele>184</ele>
        <time>2012-03-23T14:51:16Z</time>
      </trkpt>
      <trkpt lat="48.2904" lon="-0.59327">
        <ele>184</ele>
        <time>2012-03-23T14:51:18Z</time>
      </trkpt>
      <trkpt lat="48.29044" lon="-0.59324">
        <ele>185</ele>
        <time>2012-03-23T14:51:20Z</time>
      </trkpt>
      <trkpt lat="48.29052" lon="-0.59316">
        <ele>184</ele>
        <time>2012-03-23T14:51:24Z</time>
      </trkpt>
      <trkpt lat="48.29056" lon="-0.59313">
        <ele>184</ele>
        <time>2012-03-23T14:51:26Z</time>
      </trkpt>
      <trkpt lat="48.2906" lon="-0.59309">
        <ele>184</ele>
        <time>2012-03-23T14:51:28Z</time>
      </trkpt>
      <trkpt lat="48.2907" lon="-0.59301">
        <ele>184</ele>
        <time>2012-03-23T14:51:32Z</time>
      </trkpt>
      <trkpt lat="48.29075" lon="-0.59296">
        <ele>183</ele>
        <time>2012-03-23T14:51:34Z</time>
      </trkpt>
      <trkpt lat="48.29079" lon="-0.59292">
        <ele>184</ele>
        <time>2012-03-23T14:51:36Z</time>
      </trkpt>
      <trkpt lat="48.29089" lon="-0.59283">
        <ele>184</ele>
        <time>2012-03-23T14:51:40Z</time>
      </trkpt>
      <trkpt lat="48.29093" lon="-0.59279">
        <ele>184</ele>
        <time>2012-03-23T14:51:42Z</time>
      </trkpt>
      <trkpt lat="48.29108" lon="-0.59267">
        <ele>184</ele>
        <time>2012-03-23T14:51:48Z</time>
      </trkpt>
      <trkpt lat="48.29113" lon="-0.59263">
        <ele>184</ele>
        <time>2012-03-23T14:51:50Z</time>
      </trkpt>
      <trkpt lat="48.29122" lon="-0.59256">
        <ele>184</ele>
        <time>2012-03-23T14:51:54Z</time>
      </trkpt>
      <trkpt lat="48.29126" lon="-0.59252">
        <ele>184</ele>
        <time>2012-03-23T14:51:56Z</time>
      </trkpt>
      <trkpt lat="48.2914" lon="-0.59241">
        <ele>184</ele>
        <time>2012-03-23T14:52:02Z</time>
      </trkpt>
      <trkpt lat="48.29145" lon="-0.59237">
        <ele>184</ele>
        <time>2012-03-23T14:52:04Z</time>
      </trkpt>
      <trkpt lat="48.29155" lon="-0.5923">
        <ele>184</ele>
        <time>2012-03-23T14:52:08Z</time>
      </trkpt>
      <trkpt lat="48.2916" lon="-0.59226">
        <ele>184</ele>
        <time>2012-03-23T14:52:10Z</time>
      </trkpt>
      <trkpt lat="48.29168" lon="-0.5922">
        <ele>184</ele>
        <time>2012-03-23T14:52:14Z</time>
      </trkpt>
      <trkpt lat="48.29172" lon="-0.59217">
        <ele>184</ele>
        <time>2012-03-23T14:52:16Z</time>
      </trkpt>
      <trkpt lat="48.2918" lon="-0.59212">
        <ele>184</ele>
        <time>2012-03-23T14:52:20Z</time>
      </trkpt>
      <trkpt lat="48.29184" lon="-0.59209">
        <ele>183</ele>
        <time>2012-03-23T14:52:22Z</time>
      </trkpt>
      <trkpt lat="48.29189" lon="-0.59206">
        <ele>183</ele>
        <time>2012-03-23T14:52:24Z</time>
      </trkpt>
      <trkpt lat="48.29194" lon="-0.59204">
        <ele>183</ele>
        <time>2012-03-23T14:52:26Z</time>
      </trkpt>
      <trkpt lat="48.2921" lon="-0.59209">
        <ele>181</ele>
        <time>2012-03-23T14:52:32Z</time>
      </trkpt>
      <trkpt lat="48.29216" lon="-0.5921">
        <ele>180</ele>
        <time>2012-03-23T14:52:34Z</time>
      </trkpt>
      <trkpt lat="48.29231" lon="-0.59211">
        <ele>179</ele>
        <time>2012-03-23T14:52:40Z</time>
      </trkpt>
      <trkpt lat="48.29246" lon="-0.59202">
        <ele>180</ele>
        <time>2012-03-23T14:52:44Z</time>
      </trkpt>
      <trkpt lat="48.29254" lon="-0.59198">
        <ele>181</ele>
        <time>2012-03-23T14:52:46Z</time>
      </trkpt>
      <trkpt lat="48.29261" lon="-0.59193">
        <ele>181</ele>
        <time>2012-03-23T14:52:48Z</time>
      </trkpt>
      <trkpt lat="48.29272" lon="-0.59183">
        <ele>182</ele>
        <time>2012-03-23T14:52:52Z</time>
      </trkpt>
      <trkpt lat="48.29283" lon="-0.59176">
        <ele>183</ele>
        <time>2012-03-23T14:52:56Z</time>
      </trkpt>
      <trkpt lat="48.29289" lon="-0.59173">
        <ele>183</ele>
        <time>2012-03-23T14:52:58Z</time>
      </trkpt>
      <trkpt lat="48.29301" lon="-0.59168">
        <ele>184</ele>
        <time>2012-03-23T14:53:02Z</time>
      </trkpt>
      <trkpt lat="48.29307" lon="-0.59165">
        <ele>184</ele>
        <time>2012-03-23T14:53:04Z</time>
      </trkpt>
      <trkpt lat="48.29319" lon="-0.59161">
        <ele>184</ele>
        <time>2012-03-23T14:53:08Z</time>
      </trkpt>
      <trkpt lat="48.29325" lon="-0.59159">
        <ele>184</ele>
        <time>2012-03-23T14:53:10Z</time>
      </trkpt>
      <trkpt lat="48.29336" lon="-0.59154">
        <ele>185</ele>
        <time>2012-03-23T14:53:14Z</time>
      </trkpt>
      <trkpt lat="48.29341" lon="-0.59152">
        <ele>185</ele>
        <time>2012-03-23T14:53:16Z</time>
      </trkpt>
      <trkpt lat="48.29352" lon="-0.59149">
        <ele>184</ele>
        <time>2012-03-23T14:53:20Z</time>
      </trkpt>
      <trkpt lat="48.29357" lon="-0.59147">
        <ele>184</ele>
        <time>2012-03-23T14:53:22Z</time>
      </trkpt>
      <trkpt lat="48.29368" lon="-0.59142">
        <ele>184</ele>
        <time>2012-03-23T14:53:26Z</time>
      </trkpt>
      <trkpt lat="48.29373" lon="-0.5914">
        <ele>184</ele>
        <time>2012-03-23T14:53:28Z</time>
      </trkpt>
      <trkpt lat="48.29384" lon="-0.59135">
        <ele>185</ele>
        <time>2012-03-23T14:53:32Z</time>
      </trkpt>
      <trkpt lat="48.2939" lon="-0.59132">
        <ele>185</ele>
        <time>2012-03-23T14:53:34Z</time>
      </trkpt>
      <trkpt lat="48.294" lon="-0.59126">
        <ele>185</ele>
        <time>2012-03-23T14:53:38Z</time>
      </trkpt>
      <trkpt lat="48.29406" lon="-0.59124">
        <ele>185</ele>
        <time>2012-03-23T14:53:40Z</time>
      </trkpt>
      <trkpt lat="48.29417" lon="-0.5912">
        <ele>185</ele>
        <time>2012-03-23T14:53:44Z</time>
      </trkpt>
      <trkpt lat="48.29423" lon="-0.59119">
        <ele>185</ele>
        <time>2012-03-23T14:53:46Z</time>
      </trkpt>
      <trkpt lat="48.29429" lon="-0.59117">
        <ele>185</ele>
        <time>2012-03-23T14:53:48Z</time>
      </trkpt>
      <trkpt lat="48.2944" lon="-0.59113">
        <ele>185</ele>
        <time>2012-03-23T14:53:52Z</time>
      </trkpt>
      <trkpt lat="48.29446" lon="-0.59112">
        <ele>185</ele>
        <time>2012-03-23T14:53:54Z</time>
      </trkpt>
      <trkpt lat="48.29452" lon="-0.5911">
        <ele>185</ele>
        <time>2012-03-23T14:53:56Z</time>
      </trkpt>
      <trkpt lat="48.29468" lon="-0.59106">
        <ele>184</ele>
        <time>2012-03-23T14:54:02Z</time>
      </trkpt>
      <trkpt lat="48.2948" lon="-0.59106">
        <ele>184</ele>
        <time>2012-03-23T14:54:08Z</time>
      </trkpt>
      <trkpt lat="48.29484" lon="-0.59106">
        <ele>184</ele>
        <time>2012-03-23T14:54:10Z</time>
      </trkpt>
      <trkpt lat="48.29495" lon="-0.59105">
        <ele>184</ele>
        <time>2012-03-23T14:54:14Z</time>
      </trkpt>
      <trkpt lat="48.29501" lon="-0.59104">
        <ele>184</ele>
        <time>2012-03-23T14:54:16Z</time>
      </trkpt>
      <trkpt lat="48.29505" lon="-0.59102">
        <ele>184</ele>
        <time>2012-03-23T14:54:18Z</time>
      </trkpt>
      <trkpt lat="48.29515" lon="-0.591">
        <ele>185</ele>
        <time>2012-03-23T14:54:22Z</time>
      </trkpt>
      <trkpt lat="48.29521" lon="-0.59099">
        <ele>185</ele>
        <time>2012-03-23T14:54:24Z</time>
      </trkpt>
      <trkpt lat="48.29527" lon="-0.59097">
        <ele>185</ele>
        <time>2012-03-23T14:54:26Z</time>
      </trkpt>
      <trkpt lat="48.29541" lon="-0.59094">
        <ele>184</ele>
        <time>2012-03-23T14:54:30Z</time>
      </trkpt>
      <trkpt lat="48.29547" lon="-0.59093">
        <ele>184</ele>
        <time>2012-03-23T14:54:32Z</time>
      </trkpt>
      <trkpt lat="48.29562" lon="-0.59089">
        <ele>184</ele>
        <time>2012-03-23T14:54:36Z</time>
      </trkpt>
      <trkpt lat="48.29569" lon="-0.59088">
        <ele>184</ele>
        <time>2012-03-23T14:54:38Z</time>
      </trkpt>
      <trkpt lat="48.29585" lon="-0.59085">
        <ele>183</ele>
        <time>2012-03-23T14:54:42Z</time>
      </trkpt>
      <trkpt lat="48.29593" lon="-0.59083">
        <ele>183</ele>
        <time>2012-03-23T14:54:44Z</time>
      </trkpt>
      <trkpt lat="48.29608" lon="-0.5908">
        <ele>183</ele>
        <time>2012-03-23T14:54:48Z</time>
      </trkpt>
      <trkpt lat="48.29623" lon="-0.59075">
        <ele>183</ele>
        <time>2012-03-23T14:54:52Z</time>
      </trkpt>
      <trkpt lat="48.29637" lon="-0.5907">
        <ele>184</ele>
        <time>2012-03-23T14:54:56Z</time>
      </trkpt>
      <trkpt lat="48.29652" lon="-0.59065">
        <ele>184</ele>
        <time>2012-03-23T14:55:00Z</time>
      </trkpt>
      <trkpt lat="48.29666" lon="-0.5906">
        <ele>184</ele>
        <time>2012-03-23T14:55:04Z</time>
      </trkpt>
      <trkpt lat="48.29673" lon="-0.59058">
        <ele>184</ele>
        <time>2012-03-23T14:55:06Z</time>
      </trkpt>
      <trkpt lat="48.29688" lon="-0.59053">
        <ele>184</ele>
        <time>2012-03-23T14:55:10Z</time>
      </trkpt>
      <trkpt lat="48.29696" lon="-0.59051">
        <ele>184</ele>
        <time>2012-03-23T14:55:12Z</time>
      </trkpt>
      <trkpt lat="48.29711" lon="-0.59046">
        <ele>184</ele>
        <time>2012-03-23T14:55:16Z</time>
      </trkpt>
      <trkpt lat="48.29727" lon="-0.59042">
        <ele>185</ele>
        <time>2012-03-23T14:55:20Z</time>
      </trkpt>
      <trkpt lat="48.29734" lon="-0.5904">
        <ele>185</ele>
        <time>2012-03-23T14:55:22Z</time>
      </trkpt>
      <trkpt lat="48.29748" lon="-0.59036">
        <ele>185</ele>
        <time>2012-03-23T14:55:26Z</time>
      </trkpt>
      <trkpt lat="48.29762" lon="-0.59032">
        <ele>185</ele>
        <time>2012-03-23T14:55:30Z</time>
      </trkpt>
      <trkpt lat="48.29769" lon="-0.5903">
        <ele>185</ele>
        <time>2012-03-23T14:55:32Z</time>
      </trkpt>
      <trkpt lat="48.29781" lon="-0.59027">
        <ele>186</ele>
        <time>2012-03-23T14:55:36Z</time>
      </trkpt>
      <trkpt lat="48.29787" lon="-0.59025">
        <ele>186</ele>
        <time>2012-03-23T14:55:38Z</time>
      </trkpt>
      <trkpt lat="48.29801" lon="-0.59021">
        <ele>187</ele>
        <time>2012-03-23T14:55:42Z</time>
      </trkpt>
      <trkpt lat="48.29809" lon="-0.59019">
        <ele>187</ele>
        <time>2012-03-23T14:55:44Z</time>
      </trkpt>
      <trkpt lat="48.29824" lon="-0.59016">
        <ele>186</ele>
        <time>2012-03-23T14:55:48Z</time>
      </trkpt>
      <trkpt lat="48.29836" lon="-0.59014">
        <ele>187</ele>
        <time>2012-03-23T14:55:52Z</time>
      </trkpt>
      <trkpt lat="48.29841" lon="-0.59013">
        <ele>187</ele>
        <time>2012-03-23T14:55:54Z</time>
      </trkpt>
      <trkpt lat="48.29853" lon="-0.59009">
        <ele>188</ele>
        <time>2012-03-23T14:55:58Z</time>
      </trkpt>
      <trkpt lat="48.29859" lon="-0.59007">
        <ele>188</ele>
        <time>2012-03-23T14:56:00Z</time>
      </trkpt>
      <trkpt lat="48.29875" lon="-0.59005">
        <ele>190</ele>
        <time>2012-03-23T14:56:06Z</time>
      </trkpt>
      <trkpt lat="48.29886" lon="-0.59006">
        <ele>191</ele>
        <time>2012-03-23T14:56:10Z</time>
      </trkpt>
      <trkpt lat="48.2989" lon="-0.59009">
        <ele>191</ele>
        <time>2012-03-23T14:56:12Z</time>
      </trkpt>
      <trkpt lat="48.29897" lon="-0.59026">
        <ele>191</ele>
        <time>2012-03-23T14:56:18Z</time>
      </trkpt>
      <trkpt lat="48.299" lon="-0.59031">
        <ele>190</ele>
        <time>2012-03-23T14:56:20Z</time>
      </trkpt>
      <trkpt lat="48.29909" lon="-0.59044">
        <ele>189</ele>
        <time>2012-03-23T14:56:26Z</time>
      </trkpt>
      <trkpt lat="48.29913" lon="-0.59062">
        <ele>189</ele>
        <time>2012-03-23T14:56:32Z</time>
      </trkpt>
      <trkpt lat="48.29914" lon="-0.59069">
        <ele>189</ele>
        <time>2012-03-23T14:56:34Z</time>
      </trkpt>
      <trkpt lat="48.29913" lon="-0.59083">
        <ele>192</ele>
        <time>2012-03-23T14:56:38Z</time>
      </trkpt>
      <trkpt lat="48.29913" lon="-0.5909">
        <ele>194</ele>
        <time>2012-03-23T14:56:40Z</time>
      </trkpt>
      <trkpt lat="48.29913" lon="-0.59099">
        <ele>195</ele>
        <time>2012-03-23T14:56:42Z</time>
      </trkpt>
      <trkpt lat="48.29913" lon="-0.59113">
        <ele>195</ele>
        <time>2012-03-23T14:56:46Z</time>
      </trkpt>
      <trkpt lat="48.29914" lon="-0.59126">
        <ele>194</ele>
        <time>2012-03-23T14:56:50Z</time>
      </trkpt>
      <trkpt lat="48.29916" lon="-0.59142">
        <ele>192</ele>
        <time>2012-03-23T14:56:54Z</time>
      </trkpt>
      <trkpt lat="48.29916" lon="-0.59149">
        <ele>192</ele>
        <time>2012-03-23T14:56:56Z</time>
      </trkpt>
      <trkpt lat="48.29917" lon="-0.59155">
        <ele>191</ele>
        <time>2012-03-23T14:56:58Z</time>
      </trkpt>
      <trkpt lat="48.29918" lon="-0.59166">
        <ele>190</ele>
        <time>2012-03-23T14:57:02Z</time>
      </trkpt>
      <trkpt lat="48.29918" lon="-0.59173">
        <ele>190</ele>
        <time>2012-03-23T14:57:04Z</time>
      </trkpt>
      <trkpt lat="48.29918" lon="-0.59179">
        <ele>189</ele>
        <time>2012-03-23T14:57:06Z</time>
      </trkpt>
      <trkpt lat="48.29918" lon="-0.59185">
        <ele>189</ele>
        <time>2012-03-23T14:57:08Z</time>
      </trkpt>
      <trkpt lat="48.29919" lon="-0.592">
        <ele>189</ele>
        <time>2012-03-23T14:57:12Z</time>
      </trkpt>
      <trkpt lat="48.29919" lon="-0.59207">
        <ele>188</ele>
        <time>2012-03-23T14:57:14Z</time>
      </trkpt>
      <trkpt lat="48.29921" lon="-0.59214">
        <ele>188</ele>
        <time>2012-03-23T14:57:16Z</time>
      </trkpt>
      <trkpt lat="48.2993" lon="-0.59218">
        <ele>188</ele>
        <time>2012-03-23T14:57:20Z</time>
      </trkpt>
      <trkpt lat="48.29934" lon="-0.59224">
        <ele>188</ele>
        <time>2012-03-23T14:57:22Z</time>
      </trkpt>
      <trkpt lat="48.29937" lon="-0.59229">
        <ele>188</ele>
        <time>2012-03-23T14:57:24Z</time>
      </trkpt>
      <trkpt lat="48.29948" lon="-0.59234">
        <ele>189</ele>
        <time>2012-03-23T14:57:30Z</time>
      </trkpt>
      <trkpt lat="48.29951" lon="-0.59244">
        <ele>190</ele>
        <time>2012-03-23T14:57:36Z</time>
      </trkpt>
      <trkpt lat="48.29943" lon="-0.59253">
        <ele>190</ele>
        <time>2012-03-23T14:57:40Z</time>
      </trkpt>
      <trkpt lat="48.29937" lon="-0.59266">
        <ele>190</ele>
        <time>2012-03-23T14:57:44Z</time>
      </trkpt>
      <trkpt lat="48.29935" lon="-0.59273">
        <ele>190</ele>
        <time>2012-03-23T14:57:46Z</time>
      </trkpt>
      <trkpt lat="48.29934" lon="-0.59281">
        <ele>190</ele>
        <time>2012-03-23T14:57:48Z</time>
      </trkpt>
      <trkpt lat="48.29933" lon="-0.5929">
        <ele>190</ele>
        <time>2012-03-23T14:57:50Z</time>
      </trkpt>
      <trkpt lat="48.29934" lon="-0.59308">
        <ele>189</ele>
        <time>2012-03-23T14:57:54Z</time>
      </trkpt>
      <trkpt lat="48.29934" lon="-0.59318">
        <ele>189</ele>
        <time>2012-03-23T14:57:56Z</time>
      </trkpt>
      <trkpt lat="48.29935" lon="-0.59335">
        <ele>189</ele>
        <time>2012-03-23T14:58:00Z</time>
      </trkpt>
      <trkpt lat="48.29936" lon="-0.59344">
        <ele>188</ele>
        <time>2012-03-23T14:58:02Z</time>
      </trkpt>
      <trkpt lat="48.29936" lon="-0.59362">
        <ele>189</ele>
        <time>2012-03-23T14:58:06Z</time>
      </trkpt>
      <trkpt lat="48.29936" lon="-0.59371">
        <ele>189</ele>
        <time>2012-03-23T14:58:08Z</time>
      </trkpt>
      <trkpt lat="48.29937" lon="-0.59387">
        <ele>190</ele>
        <time>2012-03-23T14:58:12Z</time>
      </trkpt>
      <trkpt lat="48.29938" lon="-0.59395">
        <ele>190</ele>
        <time>2012-03-23T14:58:14Z</time>
      </trkpt>
      <trkpt lat="48.29938" lon="-0.59411">
        <ele>189</ele>
        <time>2012-03-23T14:58:18Z</time>
      </trkpt>
      <trkpt lat="48.29939" lon="-0.5942">
        <ele>189</ele>
        <time>2012-03-23T14:58:20Z</time>
      </trkpt>
      <trkpt lat="48.29939" lon="-0.59435">
        <ele>189</ele>
        <time>2012-03-23T14:58:24Z</time>
      </trkpt>
      <trkpt lat="48.2994" lon="-0.59444">
        <ele>189</ele>
        <time>2012-03-23T14:58:26Z</time>
      </trkpt>
      <trkpt lat="48.2994" lon="-0.59452">
        <ele>189</ele>
        <time>2012-03-23T14:58:28Z</time>
      </trkpt>
      <trkpt lat="48.29941" lon="-0.59468">
        <ele>189</ele>
        <time>2012-03-23T14:58:32Z</time>
      </trkpt>
      <trkpt lat="48.29941" lon="-0.59476">
        <ele>189</ele>
        <time>2012-03-23T14:58:34Z</time>
      </trkpt>
      <trkpt lat="48.29942" lon="-0.59494">
        <ele>189</ele>
        <time>2012-03-23T14:58:38Z</time>
      </trkpt>
      <trkpt lat="48.29943" lon="-0.59503">
        <ele>189</ele>
        <time>2012-03-23T14:58:40Z</time>
      </trkpt>
      <trkpt lat="48.29944" lon="-0.59522">
        <ele>190</ele>
        <time>2012-03-23T14:58:44Z</time>
      </trkpt>
      <trkpt lat="48.29944" lon="-0.59532">
        <ele>190</ele>
        <time>2012-03-23T14:58:46Z</time>
      </trkpt>
      <trkpt lat="48.29945" lon="-0.59551">
        <ele>191</ele>
        <time>2012-03-23T14:58:50Z</time>
      </trkpt>
      <trkpt lat="48.29946" lon="-0.59562">
        <ele>191</ele>
        <time>2012-03-23T14:58:52Z</time>
      </trkpt>
      <trkpt lat="48.29947" lon="-0.5958">
        <ele>191</ele>
        <time>2012-03-23T14:58:56Z</time>
      </trkpt>
      <trkpt lat="48.29947" lon="-0.59591">
        <ele>191</ele>
        <time>2012-03-23T14:58:58Z</time>
      </trkpt>
      <trkpt lat="48.29948" lon="-0.59612">
        <ele>191</ele>
        <time>2012-03-23T14:59:02Z</time>
      </trkpt>
      <trkpt lat="48.29949" lon="-0.59623">
        <ele>191</ele>
        <time>2012-03-23T14:59:04Z</time>
      </trkpt>
      <trkpt lat="48.29949" lon="-0.59642">
        <ele>190</ele>
        <time>2012-03-23T14:59:08Z</time>
      </trkpt>
      <trkpt lat="48.2995" lon="-0.59651">
        <ele>190</ele>
        <time>2012-03-23T14:59:10Z</time>
      </trkpt>
      <trkpt lat="48.2995" lon="-0.59668">
        <ele>190</ele>
        <time>2012-03-23T14:59:14Z</time>
      </trkpt>
      <trkpt lat="48.29951" lon="-0.59678">
        <ele>190</ele>
        <time>2012-03-23T14:59:16Z</time>
      </trkpt>
      <trkpt lat="48.29952" lon="-0.59699">
        <ele>190</ele>
        <time>2012-03-23T14:59:20Z</time>
      </trkpt>
      <trkpt lat="48.29953" lon="-0.59708">
        <ele>190</ele>
        <time>2012-03-23T14:59:22Z</time>
      </trkpt>
      <trkpt lat="48.29953" lon="-0.59724">
        <ele>189</ele>
        <time>2012-03-23T14:59:26Z</time>
      </trkpt>
      <trkpt lat="48.29954" lon="-0.59733">
        <ele>189</ele>
        <time>2012-03-23T14:59:28Z</time>
      </trkpt>
      <trkpt lat="48.29955" lon="-0.59752">
        <ele>188</ele>
        <time>2012-03-23T14:59:32Z</time>
      </trkpt>
      <trkpt lat="48.29956" lon="-0.59762">
        <ele>188</ele>
        <time>2012-03-23T14:59:34Z</time>
      </trkpt>
      <trkpt lat="48.29956" lon="-0.59772">
        <ele>188</ele>
        <time>2012-03-23T14:59:36Z</time>
      </trkpt>
      <trkpt lat="48.29957" lon="-0.59792">
        <ele>188</ele>
        <time>2012-03-23T14:59:40Z</time>
      </trkpt>
      <trkpt lat="48.29958" lon="-0.59801">
        <ele>189</ele>
        <time>2012-03-23T14:59:42Z</time>
      </trkpt>
      <trkpt lat="48.29958" lon="-0.59817">
        <ele>189</ele>
        <time>2012-03-23T14:59:46Z</time>
      </trkpt>
      <trkpt lat="48.29959" lon="-0.59827">
        <ele>189</ele>
        <time>2012-03-23T14:59:48Z</time>
      </trkpt>
      <trkpt lat="48.2996" lon="-0.59845">
        <ele>189</ele>
        <time>2012-03-23T14:59:52Z</time>
      </trkpt>
      <trkpt lat="48.2996" lon="-0.59854">
        <ele>189</ele>
        <time>2012-03-23T14:59:54Z</time>
      </trkpt>
      <trkpt lat="48.29961" lon="-0.5987">
        <ele>189</ele>
        <time>2012-03-23T14:59:58Z</time>
      </trkpt>
      <trkpt lat="48.29962" lon="-0.59879">
        <ele>190</ele>
        <time>2012-03-23T15:00:00Z</time>
      </trkpt>
      <trkpt lat="48.29962" lon="-0.59897">
        <ele>190</ele>
        <time>2012-03-23T15:00:04Z</time>
      </trkpt>
      <trkpt lat="48.29963" lon="-0.59905">
        <ele>190</ele>
        <time>2012-03-23T15:00:06Z</time>
      </trkpt>
      <trkpt lat="48.29963" lon="-0.5992">
        <ele>190</ele>
        <time>2012-03-23T15:00:10Z</time>
      </trkpt>
      <trkpt lat="48.29964" lon="-0.59928">
        <ele>190</ele>
        <time>2012-03-23T15:00:12Z</time>
      </trkpt>
      <trkpt lat="48.29964" lon="-0.59936">
        <ele>189</ele>
        <time>2012-03-23T15:00:14Z</time>
      </trkpt>
      <trkpt lat="48.29965" lon="-0.59953">
        <ele>189</ele>
        <time>2012-03-23T15:00:18Z</time>
      </trkpt>
      <trkpt lat="48.29965" lon="-0.59961">
        <ele>188</ele>
        <time>2012-03-23T15:00:20Z</time>
      </trkpt>
      <trkpt lat="48.29966" lon="-0.59974">
        <ele>188</ele>
        <time>2012-03-23T15:00:24Z</time>
      </trkpt>
      <trkpt lat="48.29966" lon="-0.59979">
        <ele>187</ele>
        <time>2012-03-23T15:00:28Z</time>
      </trkpt>
      <trkpt lat="48.29967" lon="-0.59992">
        <ele>188</ele>
        <time>2012-03-23T15:00:36Z</time>
      </trkpt>
      <trkpt lat="48.29972" lon="-0.59999">
        <ele>186</ele>
        <time>2012-03-23T15:00:42Z</time>
      </trkpt>
      <trkpt lat="48.29975" lon="-0.60013">
        <ele>186</ele>
        <time>2012-03-23T15:00:48Z</time>
      </trkpt>
      <trkpt lat="48.29969" lon="-0.60021">
        <ele>188</ele>
        <time>2012-03-23T15:00:52Z</time>
      </trkpt>
      <trkpt lat="48.29967" lon="-0.60033">
        <ele>188</ele>
        <time>2012-03-23T15:00:56Z</time>
      </trkpt>
      <trkpt lat="48.29968" lon="-0.60048">
        <ele>188</ele>
        <time>2012-03-23T15:01:00Z</time>
      </trkpt>
      <trkpt lat="48.29968" lon="-0.60056">
        <ele>188</ele>
        <time>2012-03-23T15:01:02Z</time>
      </trkpt>
      <trkpt lat="48.29969" lon="-0.60065">
        <ele>188</ele>
        <time>2012-03-23T15:01:04Z</time>
      </trkpt>
      <trkpt lat="48.2997" lon="-0.60074">
        <ele>188</ele>
        <time>2012-03-23T15:01:06Z</time>
      </trkpt>
      <trkpt lat="48.2997" lon="-0.60094">
        <ele>188</ele>
        <time>2012-03-23T15:01:10Z</time>
      </trkpt>
      <trkpt lat="48.2997" lon="-0.60104">
        <ele>187</ele>
        <time>2012-03-23T15:01:12Z</time>
      </trkpt>
      <trkpt lat="48.29971" lon="-0.60122">
        <ele>187</ele>
        <time>2012-03-23T15:01:16Z</time>
      </trkpt>
      <trkpt lat="48.29971" lon="-0.60131">
        <ele>186</ele>
        <time>2012-03-23T15:01:18Z</time>
      </trkpt>
      <trkpt lat="48.29972" lon="-0.60151">
        <ele>186</ele>
        <time>2012-03-23T15:01:22Z</time>
      </trkpt>
      <trkpt lat="48.29973" lon="-0.60161">
        <ele>186</ele>
        <time>2012-03-23T15:01:24Z</time>
      </trkpt>
      <trkpt lat="48.29974" lon="-0.60184">
        <ele>186</ele>
        <time>2012-03-23T15:01:28Z</time>
      </trkpt>
      <trkpt lat="48.29974" lon="-0.60195">
        <ele>186</ele>
        <time>2012-03-23T15:01:30Z</time>
      </trkpt>
      <trkpt lat="48.29975" lon="-0.60217">
        <ele>186</ele>
        <time>2012-03-23T15:01:34Z</time>
      </trkpt>
      <trkpt lat="48.29976" lon="-0.6024">
        <ele>185</ele>
        <time>2012-03-23T15:01:38Z</time>
      </trkpt>
      <trkpt lat="48.29976" lon="-0.60252">
        <ele>185</ele>
        <time>2012-03-23T15:01:40Z</time>
      </trkpt>
      <trkpt lat="48.29978" lon="-0.60276">
        <ele>182</ele>
        <time>2012-03-23T15:01:44Z</time>
      </trkpt>
      <trkpt lat="48.29979" lon="-0.603">
        <ele>182</ele>
        <time>2012-03-23T15:01:48Z</time>
      </trkpt>
      <trkpt lat="48.29979" lon="-0.6031">
        <ele>182</ele>
        <time>2012-03-23T15:01:50Z</time>
      </trkpt>
      <trkpt lat="48.2998" lon="-0.60332">
        <ele>182</ele>
        <time>2012-03-23T15:01:54Z</time>
      </trkpt>
      <trkpt lat="48.29981" lon="-0.60356">
        <ele>182</ele>
        <time>2012-03-23T15:01:58Z</time>
      </trkpt>
      <trkpt lat="48.29983" lon="-0.60393">
        <ele>181</ele>
        <time>2012-03-23T15:02:04Z</time>
      </trkpt>
      <trkpt lat="48.29983" lon="-0.60417">
        <ele>181</ele>
        <time>2012-03-23T15:02:08Z</time>
      </trkpt>
      <trkpt lat="48.29984" lon="-0.6043">
        <ele>181</ele>
        <time>2012-03-23T15:02:10Z</time>
      </trkpt>
      <trkpt lat="48.29985" lon="-0.60455">
        <ele>180</ele>
        <time>2012-03-23T15:02:14Z</time>
      </trkpt>
      <trkpt lat="48.29986" lon="-0.60493">
        <ele>181</ele>
        <time>2012-03-23T15:02:20Z</time>
      </trkpt>
      <trkpt lat="48.29987" lon="-0.60517">
        <ele>179</ele>
        <time>2012-03-23T15:02:24Z</time>
      </trkpt>
      <trkpt lat="48.29988" lon="-0.6053">
        <ele>180</ele>
        <time>2012-03-23T15:02:26Z</time>
      </trkpt>
      <trkpt lat="48.29988" lon="-0.60547">
        <ele>180</ele>
        <time>2012-03-23T15:02:30Z</time>
      </trkpt>
      <trkpt lat="48.29989" lon="-0.6056">
        <ele>178</ele>
        <time>2012-03-23T15:02:34Z</time>
      </trkpt>
      <trkpt lat="48.29995" lon="-0.6057">
        <ele>179</ele>
        <time>2012-03-23T15:02:40Z</time>
      </trkpt>
      <trkpt lat="48.3" lon="-0.60574">
        <ele>179</ele>
        <time>2012-03-23T15:02:44Z</time>
      </trkpt>
      <trkpt lat="48.30001" lon="-0.60588">
        <ele>178</ele>
        <time>2012-03-23T15:02:48Z</time>
      </trkpt>
      <trkpt lat="48.3" lon="-0.60596">
        <ele>178</ele>
        <time>2012-03-23T15:02:50Z</time>
      </trkpt>
      <trkpt lat="48.29999" lon="-0.60603">
        <ele>177</ele>
        <time>2012-03-23T15:02:52Z</time>
      </trkpt>
      <trkpt lat="48.30002" lon="-0.6061">
        <ele>177</ele>
        <time>2012-03-23T15:02:56Z</time>
      </trkpt>
      <trkpt lat="48.29997" lon="-0.60622">
        <ele>175</ele>
        <time>2012-03-23T15:03:04Z</time>
      </trkpt>
      <trkpt lat="48.2999" lon="-0.60641">
        <ele>178</ele>
        <time>2012-03-23T15:03:10Z</time>
      </trkpt>
      <trkpt lat="48.2999" lon="-0.60651">
        <ele>178</ele>
        <time>2012-03-23T15:03:12Z</time>
      </trkpt>
      <trkpt lat="48.29991" lon="-0.60661">
        <ele>178</ele>
        <time>2012-03-23T15:03:14Z</time>
      </trkpt>
      <trkpt lat="48.29992" lon="-0.6067">
        <ele>178</ele>
        <time>2012-03-23T15:03:16Z</time>
      </trkpt>
      <trkpt lat="48.29993" lon="-0.60689">
        <ele>178</ele>
        <time>2012-03-23T15:03:20Z</time>
      </trkpt>
      <trkpt lat="48.29993" lon="-0.60699">
        <ele>179</ele>
        <time>2012-03-23T15:03:22Z</time>
      </trkpt>
      <trkpt lat="48.29994" lon="-0.6072">
        <ele>179</ele>
        <time>2012-03-23T15:03:26Z</time>
      </trkpt>
      <trkpt lat="48.29994" lon="-0.60731">
        <ele>179</ele>
        <time>2012-03-23T15:03:28Z</time>
      </trkpt>
      <trkpt lat="48.29995" lon="-0.60752">
        <ele>180</ele>
        <time>2012-03-23T15:03:32Z</time>
      </trkpt>
      <trkpt lat="48.29996" lon="-0.60763">
        <ele>180</ele>
        <time>2012-03-23T15:03:34Z</time>
      </trkpt>
      <trkpt lat="48.29997" lon="-0.60785">
        <ele>180</ele>
        <time>2012-03-23T15:03:38Z</time>
      </trkpt>
      <trkpt lat="48.29997" lon="-0.60795">
        <ele>180</ele>
        <time>2012-03-23T15:03:40Z</time>
      </trkpt>
      <trkpt lat="48.29998" lon="-0.60815">
        <ele>180</ele>
        <time>2012-03-23T15:03:44Z</time>
      </trkpt>
      <trkpt lat="48.29998" lon="-0.60823">
        <ele>180</ele>
        <time>2012-03-23T15:03:46Z</time>
      </trkpt>
      <trkpt lat="48.3" lon="-0.60837">
        <ele>178</ele>
        <time>2012-03-23T15:03:50Z</time>
      </trkpt>
      <trkpt lat="48.30001" lon="-0.60844">
        <ele>178</ele>
        <time>2012-03-23T15:03:52Z</time>
      </trkpt>
      <trkpt lat="48.30002" lon="-0.6085">
        <ele>178</ele>
        <time>2012-03-23T15:03:54Z</time>
      </trkpt>
      <trkpt lat="48.30004" lon="-0.60862">
        <ele>178</ele>
        <time>2012-03-23T15:04:00Z</time>
      </trkpt>
      <trkpt lat="48.30007" lon="-0.60868">
        <ele>177</ele>
        <time>2012-03-23T15:04:16Z</time>
      </trkpt>
      <trkpt lat="48.30012" lon="-0.60874">
        <ele>174</ele>
        <time>2012-03-23T15:04:22Z</time>
      </trkpt>
      <trkpt lat="48.30017" lon="-0.60876">
        <ele>175</ele>
        <time>2012-03-23T15:04:28Z</time>
      </trkpt>
      <trkpt lat="48.30018" lon="-0.60886">
        <ele>175</ele>
        <time>2012-03-23T15:04:32Z</time>
      </trkpt>
      <trkpt lat="48.30015" lon="-0.60896">
        <ele>175</ele>
        <time>2012-03-23T15:04:36Z</time>
      </trkpt>
      <trkpt lat="48.30006" lon="-0.60911">
        <ele>174</ele>
        <time>2012-03-23T15:04:42Z</time>
      </trkpt>
      <trkpt lat="48.30001" lon="-0.60912">
        <ele>174</ele>
        <time>2012-03-23T15:04:44Z</time>
      </trkpt>
      <trkpt lat="48.29995" lon="-0.60912">
        <ele>173</ele>
        <time>2012-03-23T15:04:46Z</time>
      </trkpt>
      <trkpt lat="48.29989" lon="-0.60914">
        <ele>173</ele>
        <time>2012-03-23T15:04:48Z</time>
      </trkpt>
      <trkpt lat="48.29984" lon="-0.60918">
        <ele>174</ele>
        <time>2012-03-23T15:04:50Z</time>
      </trkpt>
      <trkpt lat="48.29972" lon="-0.60927">
        <ele>175</ele>
        <time>2012-03-23T15:04:54Z</time>
      </trkpt>
      <trkpt lat="48.29966" lon="-0.60931">
        <ele>176</ele>
        <time>2012-03-23T15:04:56Z</time>
      </trkpt>
      <trkpt lat="48.29961" lon="-0.60935">
        <ele>176</ele>
        <time>2012-03-23T15:04:58Z</time>
      </trkpt>
      <trkpt lat="48.29948" lon="-0.60944">
        <ele>178</ele>
        <time>2012-03-23T15:05:02Z</time>
      </trkpt>
      <trkpt lat="48.29942" lon="-0.60949">
        <ele>178</ele>
        <time>2012-03-23T15:05:04Z</time>
      </trkpt>
      <trkpt lat="48.29929" lon="-0.60958">
        <ele>179</ele>
        <time>2012-03-23T15:05:08Z</time>
      </trkpt>
      <trkpt lat="48.29923" lon="-0.60963">
        <ele>180</ele>
        <time>2012-03-23T15:05:10Z</time>
      </trkpt>
      <trkpt lat="48.2991" lon="-0.60972">
        <ele>180</ele>
        <time>2012-03-23T15:05:14Z</time>
      </trkpt>
      <trkpt lat="48.29903" lon="-0.60977">
        <ele>180</ele>
        <time>2012-03-23T15:05:16Z</time>
      </trkpt>
      <trkpt lat="48.2989" lon="-0.60987">
        <ele>180</ele>
        <time>2012-03-23T15:05:20Z</time>
      </trkpt>
      <trkpt lat="48.29878" lon="-0.60995">
        <ele>181</ele>
        <time>2012-03-23T15:05:24Z</time>
      </trkpt>
      <trkpt lat="48.29872" lon="-0.60999">
        <ele>181</ele>
        <time>2012-03-23T15:05:26Z</time>
      </trkpt>
      <trkpt lat="48.29861" lon="-0.61008">
        <ele>181</ele>
        <time>2012-03-23T15:05:30Z</time>
      </trkpt>
      <trkpt lat="48.29855" lon="-0.61012">
        <ele>181</ele>
        <time>2012-03-23T15:05:32Z</time>
      </trkpt>
      <trkpt lat="48.29843" lon="-0.61022">
        <ele>182</ele>
        <time>2012-03-23T15:05:36Z</time>
      </trkpt>
      <trkpt lat="48.29837" lon="-0.61026">
        <ele>182</ele>
        <time>2012-03-23T15:05:38Z</time>
      </trkpt>
      <trkpt lat="48.29827" lon="-0.61035">
        <ele>183</ele>
        <time>2012-03-23T15:05:42Z</time>
      </trkpt>
      <trkpt lat="48.29822" lon="-0.61038">
        <ele>182</ele>
        <time>2012-03-23T15:05:44Z</time>
      </trkpt>
      <trkpt lat="48.29807" lon="-0.6105">
        <ele>183</ele>
        <time>2012-03-23T15:05:50Z</time>
      </trkpt>
      <trkpt lat="48.29797" lon="-0.61057">
        <ele>183</ele>
        <time>2012-03-23T15:05:54Z</time>
      </trkpt>
      <trkpt lat="48.29792" lon="-0.61061">
        <ele>184</ele>
        <time>2012-03-23T15:05:56Z</time>
      </trkpt>
      <trkpt lat="48.29781" lon="-0.6107">
        <ele>184</ele>
        <time>2012-03-23T15:06:00Z</time>
      </trkpt>
      <trkpt lat="48.29775" lon="-0.61075">
        <ele>184</ele>
        <time>2012-03-23T15:06:02Z</time>
      </trkpt>
      <trkpt lat="48.29768" lon="-0.6108">
        <ele>184</ele>
        <time>2012-03-23T15:06:04Z</time>
      </trkpt>
      <trkpt lat="48.29754" lon="-0.6109">
        <ele>184</ele>
        <time>2012-03-23T15:06:08Z</time>
      </trkpt>
      <trkpt lat="48.29747" lon="-0.61096">
        <ele>184</ele>
        <time>2012-03-23T15:06:10Z</time>
      </trkpt>
      <trkpt lat="48.29734" lon="-0.61107">
        <ele>184</ele>
        <time>2012-03-23T15:06:14Z</time>
      </trkpt>
      <trkpt lat="48.29719" lon="-0.61118">
        <ele>184</ele>
        <time>2012-03-23T15:06:18Z</time>
      </trkpt>
      <trkpt lat="48.29712" lon="-0.61123">
        <ele>184</ele>
        <time>2012-03-23T15:06:20Z</time>
      </trkpt>
      <trkpt lat="48.29698" lon="-0.61135">
        <ele>183</ele>
        <time>2012-03-23T15:06:24Z</time>
      </trkpt>
      <trkpt lat="48.29683" lon="-0.61147">
        <ele>182</ele>
        <time>2012-03-23T15:06:28Z</time>
      </trkpt>
      <trkpt lat="48.29674" lon="-0.61166">
        <ele>181</ele>
        <time>2012-03-23T15:06:32Z</time>
      </trkpt>
      <trkpt lat="48.29664" lon="-0.61186">
        <ele>180</ele>
        <time>2012-03-23T15:06:36Z</time>
      </trkpt>
      <trkpt lat="48.29659" lon="-0.61195">
        <ele>180</ele>
        <time>2012-03-23T15:06:38Z</time>
      </trkpt>
      <trkpt lat="48.2965" lon="-0.61212">
        <ele>180</ele>
        <time>2012-03-23T15:06:42Z</time>
      </trkpt>
      <trkpt lat="48.29641" lon="-0.61228">
        <ele>178</ele>
        <time>2012-03-23T15:06:46Z</time>
      </trkpt>
      <trkpt lat="48.29637" lon="-0.61236">
        <ele>178</ele>
        <time>2012-03-23T15:06:48Z</time>
      </trkpt>
      <trkpt lat="48.29627" lon="-0.61251">
        <ele>178</ele>
        <time>2012-03-23T15:06:52Z</time>
      </trkpt>
      <trkpt lat="48.29621" lon="-0.61259">
        <ele>178</ele>
        <time>2012-03-23T15:06:54Z</time>
      </trkpt>
      <trkpt lat="48.29611" lon="-0.61273">
        <ele>178</ele>
        <time>2012-03-23T15:06:58Z</time>
      </trkpt>
      <trkpt lat="48.29599" lon="-0.61284">
        <ele>177</ele>
        <time>2012-03-23T15:07:02Z</time>
      </trkpt>
      <trkpt lat="48.29587" lon="-0.6129">
        <ele>176</ele>
        <time>2012-03-23T15:07:06Z</time>
      </trkpt>
      <trkpt lat="48.29581" lon="-0.61294">
        <ele>176</ele>
        <time>2012-03-23T15:07:08Z</time>
      </trkpt>
      <trkpt lat="48.29568" lon="-0.61303">
        <ele>176</ele>
        <time>2012-03-23T15:07:12Z</time>
      </trkpt>
      <trkpt lat="48.29561" lon="-0.61308">
        <ele>176</ele>
        <time>2012-03-23T15:07:14Z</time>
      </trkpt>
      <trkpt lat="48.29548" lon="-0.61316">
        <ele>176</ele>
        <time>2012-03-23T15:07:18Z</time>
      </trkpt>
      <trkpt lat="48.29542" lon="-0.6132">
        <ele>176</ele>
        <time>2012-03-23T15:07:20Z</time>
      </trkpt>
      <trkpt lat="48.29532" lon="-0.61334">
        <ele>176</ele>
        <time>2012-03-23T15:07:24Z</time>
      </trkpt>
      <trkpt lat="48.29491" lon="-0.6135">
        <ele>178</ele>
        <time>2012-03-23T15:07:32Z</time>
      </trkpt>
      <trkpt lat="48.29484" lon="-0.61365">
        <ele>180</ele>
        <time>2012-03-23T15:07:38Z</time>
      </trkpt>
      <trkpt lat="48.29474" lon="-0.61374">
        <ele>181</ele>
        <time>2012-03-23T15:07:42Z</time>
      </trkpt>
      <trkpt lat="48.29468" lon="-0.61378">
        <ele>182</ele>
        <time>2012-03-23T15:07:44Z</time>
      </trkpt>
      <trkpt lat="48.29463" lon="-0.61382">
        <ele>183</ele>
        <time>2012-03-23T15:07:46Z</time>
      </trkpt>
      <trkpt lat="48.29454" lon="-0.61388">
        <ele>184</ele>
        <time>2012-03-23T15:07:50Z</time>
      </trkpt>
      <trkpt lat="48.2945" lon="-0.61392">
        <ele>185</ele>
        <time>2012-03-23T15:07:52Z</time>
      </trkpt>
      <trkpt lat="48.29441" lon="-0.61399">
        <ele>186</ele>
        <time>2012-03-23T15:07:56Z</time>
      </trkpt>
      <trkpt lat="48.29438" lon="-0.61402">
        <ele>186</ele>
        <time>2012-03-23T15:07:58Z</time>
      </trkpt>
      <trkpt lat="48.29435" lon="-0.61404">
        <ele>187</ele>
        <time>2012-03-23T15:08:06Z</time>
      </trkpt>
      <trkpt lat="48.29435" lon="-0.61404">
        <ele>187</ele>
        <time>2012-03-23T15:08:22Z</time>
      </trkpt>
      <trkpt lat="48.29435" lon="-0.61404">
        <ele>187</ele>
        <time>2012-03-23T15:08:38Z</time>
      </trkpt>
      <trkpt lat="48.29435" lon="-0.61404">
        <ele>187</ele>
        <time>2012-03-23T15:08:54Z</time>
      </trkpt>
      <trkpt lat="48.29435" lon="-0.61404">
        <ele>187</ele>
        <time>2012-03-23T15:09:10Z</time>
      </trkpt>
      <trkpt lat="48.29435" lon="-0.61404">
        <ele>187</ele>
        <time>2012-03-23T15:09:26Z</time>
      </trkpt>
      <trkpt lat="48.29435" lon="-0.61404">
        <ele>187</ele>
        <time>2012-03-23T15:09:42Z</time>
      </trkpt>
      <trkpt lat="48.29429" lon="-0.61409">
        <ele>182</ele>
        <time>2012-03-23T15:09:58Z</time>
      </trkpt>
      <trkpt lat="48.29418" lon="-0.61417">
        <ele>181</ele>
        <time>2012-03-23T15:10:04Z</time>
      </trkpt>
      <trkpt lat="48.2941" lon="-0.61423">
        <ele>180</ele>
        <time>2012-03-23T15:10:08Z</time>
      </trkpt>
      <trkpt lat="48.29406" lon="-0.61426">
        <ele>179</ele>
        <time>2012-03-23T15:10:10Z</time>
      </trkpt>
      <trkpt lat="48.29402" lon="-0.61428">
        <ele>179</ele>
        <time>2012-03-23T15:10:12Z</time>
      </trkpt>
      <trkpt lat="48.29397" lon="-0.61432">
        <ele>179</ele>
        <time>2012-03-23T15:10:14Z</time>
      </trkpt>
      <trkpt lat="48.29392" lon="-0.61435">
        <ele>178</ele>
        <time>2012-03-23T15:10:16Z</time>
      </trkpt>
      <trkpt lat="48.29387" lon="-0.61438">
        <ele>179</ele>
        <time>2012-03-23T15:10:18Z</time>
      </trkpt>
      <trkpt lat="48.29381" lon="-0.61443">
        <ele>178</ele>
        <time>2012-03-23T15:10:20Z</time>
      </trkpt>
      <trkpt lat="48.29371" lon="-0.61454">
        <ele>177</ele>
        <time>2012-03-23T15:10:24Z</time>
      </trkpt>
      <trkpt lat="48.29365" lon="-0.6146">
        <ele>177</ele>
        <time>2012-03-23T15:10:26Z</time>
      </trkpt>
      <trkpt lat="48.29352" lon="-0.61469">
        <ele>178</ele>
        <time>2012-03-23T15:10:30Z</time>
      </trkpt>
      <trkpt lat="48.29346" lon="-0.61473">
        <ele>178</ele>
        <time>2012-03-23T15:10:32Z</time>
      </trkpt>
      <trkpt lat="48.29333" lon="-0.61482">
        <ele>178</ele>
        <time>2012-03-23T15:10:36Z</time>
      </trkpt>
      <trkpt lat="48.29327" lon="-0.61486">
        <ele>178</ele>
        <time>2012-03-23T15:10:38Z</time>
      </trkpt>
      <trkpt lat="48.29315" lon="-0.61494">
        <ele>179</ele>
        <time>2012-03-23T15:10:42Z</time>
      </trkpt>
      <trkpt lat="48.29309" lon="-0.61498">
        <ele>179</ele>
        <time>2012-03-23T15:10:44Z</time>
      </trkpt>
      <trkpt lat="48.29296" lon="-0.61507">
        <ele>179</ele>
        <time>2012-03-23T15:10:48Z</time>
      </trkpt>
      <trkpt lat="48.2929" lon="-0.61511">
        <ele>179</ele>
        <time>2012-03-23T15:10:50Z</time>
      </trkpt>
      <trkpt lat="48.29278" lon="-0.61516">
        <ele>179</ele>
        <time>2012-03-23T15:10:54Z</time>
      </trkpt>
      <trkpt lat="48.29273" lon="-0.6152">
        <ele>179</ele>
        <time>2012-03-23T15:10:56Z</time>
      </trkpt>
      <trkpt lat="48.29261" lon="-0.61529">
        <ele>178</ele>
        <time>2012-03-23T15:11:00Z</time>
      </trkpt>
      <trkpt lat="48.29254" lon="-0.61533">
        <ele>178</ele>
        <time>2012-03-23T15:11:02Z</time>
      </trkpt>
      <trkpt lat="48.29241" lon="-0.61542">
        <ele>178</ele>
        <time>2012-03-23T15:11:06Z</time>
      </trkpt>
      <trkpt lat="48.29234" lon="-0.61546">
        <ele>179</ele>
        <time>2012-03-23T15:11:08Z</time>
      </trkpt>
      <trkpt lat="48.29222" lon="-0.61553">
        <ele>179</ele>
        <time>2012-03-23T15:11:12Z</time>
      </trkpt>
      <trkpt lat="48.29216" lon="-0.61556">
        <ele>179</ele>
        <time>2012-03-23T15:11:14Z</time>
      </trkpt>
      <trkpt lat="48.29204" lon="-0.61562">
        <ele>180</ele>
        <time>2012-03-23T15:11:18Z</time>
      </trkpt>
      <trkpt lat="48.29197" lon="-0.61566">
        <ele>180</ele>
        <time>2012-03-23T15:11:20Z</time>
      </trkpt>
      <trkpt lat="48.29183" lon="-0.61575">
        <ele>179</ele>
        <time>2012-03-23T15:11:24Z</time>
      </trkpt>
      <trkpt lat="48.29176" lon="-0.61579">
        <ele>179</ele>
        <time>2012-03-23T15:11:26Z</time>
      </trkpt>
      <trkpt lat="48.29162" lon="-0.61587">
        <ele>179</ele>
        <time>2012-03-23T15:11:30Z</time>
      </trkpt>
      <trkpt lat="48.29149" lon="-0.61593">
        <ele>178</ele>
        <time>2012-03-23T15:11:34Z</time>
      </trkpt>
      <trkpt lat="48.29143" lon="-0.61597">
        <ele>178</ele>
        <time>2012-03-23T15:11:36Z</time>
      </trkpt>
      <trkpt lat="48.29128" lon="-0.61604">
        <ele>177</ele>
        <time>2012-03-23T15:11:40Z</time>
      </trkpt>
      <trkpt lat="48.29121" lon="-0.61608">
        <ele>177</ele>
        <time>2012-03-23T15:11:42Z</time>
      </trkpt>
      <trkpt lat="48.29105" lon="-0.61615">
        <ele>177</ele>
        <time>2012-03-23T15:11:46Z</time>
      </trkpt>
      <trkpt lat="48.29099" lon="-0.61618">
        <ele>177</ele>
        <time>2012-03-23T15:11:48Z</time>
      </trkpt>
      <trkpt lat="48.29086" lon="-0.61624">
        <ele>176</ele>
        <time>2012-03-23T15:11:52Z</time>
      </trkpt>
      <trkpt lat="48.29072" lon="-0.61631">
        <ele>175</ele>
        <time>2012-03-23T15:11:56Z</time>
      </trkpt>
      <trkpt lat="48.29064" lon="-0.61634">
        <ele>175</ele>
        <time>2012-03-23T15:11:58Z</time>
      </trkpt>
      <trkpt lat="48.29051" lon="-0.61638">
        <ele>172</ele>
        <time>2012-03-23T15:12:02Z</time>
      </trkpt>
      <trkpt lat="48.29045" lon="-0.6164">
        <ele>171</ele>
        <time>2012-03-23T15:12:04Z</time>
      </trkpt>
      <trkpt lat="48.2903" lon="-0.61645">
        <ele>170</ele>
        <time>2012-03-23T15:12:08Z</time>
      </trkpt>
      <trkpt lat="48.29023" lon="-0.61648">
        <ele>169</ele>
        <time>2012-03-23T15:12:10Z</time>
      </trkpt>
      <trkpt lat="48.29008" lon="-0.61654">
        <ele>170</ele>
        <time>2012-03-23T15:12:14Z</time>
      </trkpt>
      <trkpt lat="48.29001" lon="-0.61656">
        <ele>171</ele>
        <time>2012-03-23T15:12:16Z</time>
      </trkpt>
      <trkpt lat="48.28986" lon="-0.61659">
        <ele>168</ele>
        <time>2012-03-23T15:12:20Z</time>
      </trkpt>
      <trkpt lat="48.2897" lon="-0.61662">
        <ele>167</ele>
        <time>2012-03-23T15:12:24Z</time>
      </trkpt>
      <trkpt lat="48.28963" lon="-0.61663">
        <ele>166</ele>
        <time>2012-03-23T15:12:26Z</time>
      </trkpt>
      <trkpt lat="48.28951" lon="-0.61666">
        <ele>165</ele>
        <time>2012-03-23T15:12:30Z</time>
      </trkpt>
      <trkpt lat="48.28933" lon="-0.6167">
        <ele>164</ele>
        <time>2012-03-23T15:12:36Z</time>
      </trkpt>
      <trkpt lat="48.28918" lon="-0.61673">
        <ele>163</ele>
        <time>2012-03-23T15:12:40Z</time>
      </trkpt>
      <trkpt lat="48.28911" lon="-0.61674">
        <ele>163</ele>
        <time>2012-03-23T15:12:42Z</time>
      </trkpt>
      <trkpt lat="48.28895" lon="-0.61677">
        <ele>162</ele>
        <time>2012-03-23T15:12:46Z</time>
      </trkpt>
      <trkpt lat="48.28887" lon="-0.61678">
        <ele>163</ele>
        <time>2012-03-23T15:12:48Z</time>
      </trkpt>
      <trkpt lat="48.2887" lon="-0.61681">
        <ele>163</ele>
        <time>2012-03-23T15:12:52Z</time>
      </trkpt>
      <trkpt lat="48.28846" lon="-0.61685">
        <ele>162</ele>
        <time>2012-03-23T15:12:58Z</time>
      </trkpt>
      <trkpt lat="48.28831" lon="-0.61691">
        <ele>163</ele>
        <time>2012-03-23T15:13:02Z</time>
      </trkpt>
      <trkpt lat="48.28815" lon="-0.61691">
        <ele>163</ele>
        <time>2012-03-23T15:13:06Z</time>
      </trkpt>
      <trkpt lat="48.28802" lon="-0.61691">
        <ele>162</ele>
        <time>2012-03-23T15:13:10Z</time>
      </trkpt>
      <trkpt lat="48.28788" lon="-0.6169">
        <ele>160</ele>
        <time>2012-03-23T15:13:14Z</time>
      </trkpt>
      <trkpt lat="48.2878" lon="-0.61691">
        <ele>160</ele>
        <time>2012-03-23T15:13:16Z</time>
      </trkpt>
      <trkpt lat="48.28763" lon="-0.61694">
        <ele>160</ele>
        <time>2012-03-23T15:13:20Z</time>
      </trkpt>
      <trkpt lat="48.28745" lon="-0.61694">
        <ele>160</ele>
        <time>2012-03-23T15:13:24Z</time>
      </trkpt>
      <trkpt lat="48.28718" lon="-0.61694">
        <ele>158</ele>
        <time>2012-03-23T15:13:30Z</time>
      </trkpt>
      <trkpt lat="48.28701" lon="-0.61693">
        <ele>159</ele>
        <time>2012-03-23T15:13:34Z</time>
      </trkpt>
      <trkpt lat="48.28683" lon="-0.61692">
        <ele>160</ele>
        <time>2012-03-23T15:13:38Z</time>
      </trkpt>
      <trkpt lat="48.28667" lon="-0.61693">
        <ele>161</ele>
        <time>2012-03-23T15:13:42Z</time>
      </trkpt>
      <trkpt lat="48.28654" lon="-0.61692">
        <ele>162</ele>
        <time>2012-03-23T15:13:46Z</time>
      </trkpt>
      <trkpt lat="48.28645" lon="-0.61684">
        <ele>163</ele>
        <time>2012-03-23T15:13:50Z</time>
      </trkpt>
      <trkpt lat="48.28638" lon="-0.61674">
        <ele>166</ele>
        <time>2012-03-23T15:13:56Z</time>
      </trkpt>
    </trkseg>
  </trk>
</gpx>